     2.11           OBSERVATION DATA    G (GPS)             RINEX VERSION / TYPE
teqc 2010Oct21 OPUS Account 20111025 13:56:52UTC            PGM / RUN BY / DATE
G 1521                                                      MARKER NAME
1126                                                        MARKER NUMBER
CSMIDDLETON NGS                                             OBSERVER / AGENCY
0220280359 TRIMBLE 5700 NP 2.32 / SP 2.32                   REC # / TYPE / VERS
11885611 TRM41249.00 NONE                                   ANT # / TYPE
  -739479.6742 -5466013.4993  3192100.3453                  APPROX POSITION XYZ
        1.9990        0.0000        0.0000                  ANTENNA: DELTA H/E/N
     1     1                                                WAVELENGTH FACT L1/2
     5    L1    L2    C1    P1    P2                        # / TYPES OF OBSERV
    15                                                      LEAP SECONDS
  2011     7    23    18     8    0.0000000     GPS         TIME OF FIRST OBS
                                                            END OF HEADER
 11  7 23 18  8  0.0000000  0 10G03G10G16G07G08G13G06G19G23G28
   -611891.89857   -493168.65655  21029223.4844                   21029222.5354
   -848169.80156   -629854.93453  23843170.5234                   23843169.6334
    -41297.77756    -31276.11753  23413815.3914                   23413814.4494
  -1686771.94557  -1287085.14555  21919155.3204                   21919153.4414
  -1873844.74256  -1400161.54753  23928268.4454                   23928267.7814
  -1080531.37157   -824579.87156  19970922.7344                   19970919.9264
   -334594.25856   -254499.32854  22717865.0394                   22717863.4224
  -1437722.75057  -1160942.15655  21032636.0314                   21032632.0704
   -398658.29757   -305483.91456  20572879.1564                   20572875.5864
   -563373.74615                  24583602.117
 11  7 23 18  8 30.0000000  0 10G03G10G16G07G08G13G06G19G23G28
   -664857.78147   -534440.81245  21019144.1024                   21019143.1604
   -922847.27346   -688045.23443  23828959.3754                   23828960.4884
    -46473.87546    -35309.54743  23412830.5944                   23412828.8634
  -1839528.89547  -1406116.53545  21890087.0554                   21890084.8914
  -2040371.66046  -1529922.75443  23896578.9694                   23896578.7774
  -1175647.53147   -898696.37546  19952822.5004                   19952819.6764
   -365969.89846   -278947.94144  22711894.5084                   22711893.7584
  -1565111.42647  -1260206.05545  21008394.0314                   21008390.9344
   -432893.32447   -332160.60546  20566364.2814                   20566360.8324
   -734780.363 5                  24550984.414
 11  7 23 18  9  0.0000000  0 10G03G10G16G07G08G13G06G19G23G28
   -717404.72347   -575386.50445  21009145.3594                   21009143.7234
   -997252.77346   -746023.62543  23814800.1724                   23814801.5664
    -51809.19546    -39467.00043  23411815.6804                   23411813.5354
  -1992393.37947  -1525231.71545  21860997.3754                   21860995.4494
  -2207117.86746  -1659854.82843  23864848.1254                   23864848.0664
  -1270341.21147   -972483.68746  19934803.0554                   19934800.6564
   -397074.94546   -303185.72344  22705974.8284                   22705974.6454
  -1692085.99247  -1359147.26646  20984231.9694                   20984228.1334
   -466788.34447   -358572.37945  20559914.1564                   20559910.5394
   -906147.645 5                  24518373.234
 11  7 23 18  9 30.0000000  0 10G03G10G16G07G08G13G06G19G23G28
   -769533.60547   -616006.46145  20999225.4224                   20999224.1294
  -1071387.66446   -803791.14543  23800693.6334                   23800693.4774
    -57304.09046    -43748.81643  23410770.4064                   23410767.7894
  -2145364.33647  -1644429.85545  21831888.4224                   21831886.5274
  -2374082.77346  -1789957.33243  23833076.3594                   23833075.7704
  -1364611.45747  -1045941.04746  19916864.0634                   19916860.7154
   -427910.78946   -327213.69944  22700107.3284                   22700106.1454
  -1818644.10947  -1457764.00046  20960149.3524                   20960145.1334
   -500344.09447   -384719.79345  20553529.2034                   20553525.2194
  -1077474.523 5                  24485770.750
 11  7 23 18 10  0.0000000  0 10G03G10G16G07G08G13G06G19G23G28
   -821226.91047   -656286.99645  20989388.7034                   20989387.6724
  -1145234.66846   -861334.31643  23786641.1024                   23786641.4184
    -62941.73046    -48141.85943  23409697.7664                   23409694.5944
  -2298421.94547  -1763695.51245  21802762.7974                   21802760.7544
  -2541247.40646  -1920215.45343  23801265.2344                   23801264.8134
  -1458438.10947  -1119052.76246  19899009.2974                   19899006.8444
   -458460.47746   -351018.71944  22694293.9304                   22694293.0474
  -1944765.08647  -1556040.07446  20936149.4304                   20936145.8324
   -533543.10947   -410589.20345  20547211.5554                   20547207.6914
  -1248741.773 5                  24453180.125
 11  7 23 18 10 30.0000000  0 10G03G10G16G07G08G13G06G19G23G28
    702941.92647    531376.98845  21279428.4924                   21279427.2074
    356633.63746    308952.61743  24072436.7894                   24072437.1214
   1506702.88746   1174957.75443  23708390.9384                   23708388.0664
   -876133.29747   -655418.61345  22073414.6414                   22073412.6454
  -1133178.91046   -823019.20343  24069212.8754                   24069211.2194
     23608.99647     35789.10946  20181033.8834                   20181030.4144
   1086701.32446    853003.37144  22988328.6724                   22988328.2504
   -495016.69547   -426365.98445  21212026.8284                   21212023.3594
   1009040.41447    791423.86745  20840755.3754                   20840751.6054
    155483.402 5                  24720394.570
 11  7 23 18 11  0.0000000  0 10G03G10G16G07G08G13G06G19G23G28
    652133.28547    491785.80945  21269760.3754                   21269758.2544
    283376.38346    251868.98443  24058496.7424                   24058496.5084
   1500794.15746   1170353.50743  23707265.8054                   23707263.7274
  -1029341.85947   -774801.90645  22044260.7734                   22044257.9964
  -1300722.87946   -953572.94543  24037329.0004                   24037329.3554
    -69309.98847    -36615.32446  20163351.7274                   20163348.7934
   1056736.45746    829654.07444  22982626.4384                   22982625.7074
   -620240.04747   -523942.61346  21188197.3444                   21188193.7894
    976568.42247    766120.95345  20834576.2114                   20834572.5044
    -15644.129 5                  24687829.602
 11  7 23 18 11 30.0000000  0 10G03G10G16G07G08G13G06G19G23G28
    601771.55547    452542.86345  21260176.8054                   21260175.2074
    210418.03546    195018.28943  24044613.0554                   24044612.9184
   1494754.65646   1165647.29743  23706116.8754                   23706114.2584
  -1182617.92647   -894237.77345  22015092.9924                   22015090.9534
  -1468449.35546  -1084268.80943  24005411.6564                   24005411.6844
   -161767.23447   -108659.94946  20145757.4534                   20145754.8554
   1027067.85946    806535.64544  22976981.2114                   22976980.2934
   -745005.56647   -621162.50445  21164455.5784                   21164451.3014
    944464.68048    741105.00045  20828467.3364                   20828463.1724
   -186694.05115                  24655281.664
 11  7 23 18 12  0.0000000  0 10G03G10G16G07G08G13G06G19G23G28
    551855.13747    413646.93845  21250677.7344                   21250675.7854
    137756.32846    138398.71943  24030785.7034                   24030786.5824
   1488582.40646   1160837.70743  23704942.8674                   23704940.3054
  -1335960.71147  -1013725.62545  21985912.8204                   21985910.0124
  -1636358.84846  -1215107.35343  23973459.7504                   23973460.0434
   -253762.43047   -180344.53946  20128251.4534                   20128249.1524
    997693.21946    783646.27344  22971390.9384                   22971390.2234
   -869312.09047   -718024.74246  21140801.3834                   21140797.3404
    912727.52347    716374.67645  20822428.1174                   20822423.7894
   -357665.863 5                  24622745.031
 11  7 23 18 12 30.0000000  0 10G03G10G16G07G08G13G06G19G23G28
    502383.73847    375097.74645  21241264.2504                   21241261.6024
     65391.84446     82010.76243  24017015.6644                   24017016.1484
   1482278.03546   1155925.16043  23703741.9614                   23703741.2344
  -1489367.14847  -1133263.13345  21956720.2194                   21956717.8014
  -1804448.72346  -1346086.42243  23941473.0164                   23941472.9384
   -345293.10547   -251667.17646  20110833.4534                   20110830.7504
    968612.42647    760985.85544  22965857.1804                   22965857.1254
   -993155.95747   -814526.45346  21117233.8914                   21117230.0634
    881357.07447    691930.12145  20816458.3594                   20816454.2774
   -528557.273 6                  24590226.156
 11  7 23 18 13  0.0000000  0 11G03G10G16G07G08G13G06G19G23G28G11
    453358.66447    336896.35945  21231934.4384                   21231933.0314
     -6674.28546     25855.23443  24003301.3524                   24003302.3324
   1475843.04746   1150910.84843  23702517.8364                   23702516.3284
  -1642833.58247  -1252847.32845  21927516.3524                   21927514.3164
  -1972715.18746  -1477203.11743  23909454.0004                   23909452.9454
   -436355.45747   -322624.87946  20093505.5634                   20093502.3914
    939826.49247    738555.19544  22960379.8674                   22960378.7774
  -1116532.78947   -910664.23846  21093756.0164                   21093752.5664
    850354.68047    667772.35545  20810558.5394                   20810554.9224
   -699364.773 5                  24557722.070
   1352098.71556   1098885.91853  24797996.0944                   24798000.2384
 11  7 23 18 13 30.0000000  0 11G03G10G16G07G08G13G06G19G23G28G11
    404781.14147    299043.71145  21222690.8984                   21222689.3594
    -78441.45746    -30067.27743  23989645.0864                   23989646.0554
   1469278.61746   1145795.60543  23701268.4694                   23701267.5744
  -1796356.24647  -1372475.38345  21898302.5704                   21898300.2154
  -2141155.76246  -1608455.45343  23877400.5234                   23877399.7464
   -526946.23447   -393215.12946  20076266.3594                   20076263.7584
    911335.95347    716354.73044  22954957.6024                   22954957.2894
  -1239438.53547  -1006434.94146  21070367.8674                   21070363.6764
    819721.06648    643901.94145  20804729.4224                   20804725.9844
   -870085.09046   1114980.69552  24525236.4614                   24525237.6524
   1177354.51246    962721.75843  24764743.6334                   24764746.6564
 11  7 23 18 14  0.0000000  0 11G03G10G16G07G08G13G06G19G23G28G11
    356645.09447    261535.08245  21213530.6954                   21213528.7074
   -149915.75846    -85761.60543  23976043.6564                   23976044.6134
   1462579.09846   1140575.18843  23699994.7194                   23699992.2464
  -1949938.44547  -1492149.81245  21869076.9454                   21869074.1054
  -2309774.36746  -1739846.53143  23845312.1644                   23845312.5514
   -617069.40247   -463441.00446  20059116.8204                   20059113.8674
    883134.28146    694379.36744  22949591.9064                   22949590.2504
  -1361876.03147  -1101840.77346  21047069.2194                   21047064.9264
    789450.66047    620314.56345  20798969.4064                   20798965.2854
  -1040722.05946    982016.93042  24492764.9454                   24492766.9024
   1002350.51646    826355.18843  24731441.0634                   24731444.5044
 11  7 23 18 14 30.0000000  0 11G03G10G16G07G08G13G06G19G23G28G11
    308952.23447    224371.77745  21204454.5474                   21204453.0234
   -221095.99646   -141226.84043  23962498.5634                   23962499.6054
   1455746.18446   1135250.72743  23698694.4614                   23698692.0164
  -2103575.94147  -1611867.32845  21839840.8754                   21839838.6054
  -2478567.60946  -1871373.66443  23813192.7424                   23813192.5784
   -706721.36347   -533299.69946  20042056.3134                   20042053.7194
    855222.63746    672630.00444  22944279.8524                   22944279.3324
  -1483840.87947  -1196878.31645  21023859.5474                   21023855.5234
    759544.81647    597011.23846  20793278.3754                   20793274.2154
  -1211272.17246    849120.82042  24460309.6724                   24460311.9414
    827092.25046    689790.50443  24698090.6094                   24698094.4224
 11  7 23 18 15  0.0000000  0 11G03G10G16G07G08G13G06G19G23G28G11
    261705.54347    187556.14845  21195464.0944                   21195462.8754
   -291978.71546   -196460.20743  23949010.5394                   23949011.1134
   1448783.39846   1129825.16043  23697369.3524                   23697366.8954
  -2257262.70747  -1731623.25045  21810594.4614                   21810592.2544
  -2647529.92246  -2003032.57443  23781039.3364                   23781039.9264
   -795896.13747   -602786.56646  20025087.0864                   20025083.9534
    827604.02047    651108.94144  22939025.4774                   22939023.4454
  -1605326.58647  -1291542.50846  21000741.5004                   21000737.7624
    730007.02047    573994.70745  20787657.8984                   20787654.0744
  -1381729.45346    716297.03542  24427872.4844                   24427874.3524
    651587.27346    553033.61742  24664692.1804                   24664696.8914
 11  7 23 18 15 30.0000000  0 11G03G10G16G07G08G13G06G19G23G28G11
    214907.04747    151089.75445  21186558.4774                   21186556.6374
   -362561.97346   -251460.20743  23935579.2034                   23935579.8014
   1441693.60946   1124300.58243  23696020.7424                   23696018.7344
  -2410993.91047  -1851413.77745  21781340.8754                   21781338.3954
  -2816657.13346  -2134819.98044  23748856.3984                   23748856.4494
   -884589.72347   -671898.47746  20008209.6024                   20008206.7234
    800280.05146    629817.49644  22933824.4144                   22933823.7664
  -1726328.07847  -1385829.37146  20977715.9064                   20977711.9964
    700839.40647    551266.64145  20782106.9614                   20782103.1174
  -1552090.08646    583548.54342  24395454.4844                   24395455.8284
    475841.91446    416089.36342  24631249.6954                   24631252.9454
 11  7 23 18 16  0.0000000  0 11G03G10G16G07G08G13G06G19G23G28G11
    168556.01247    114972.03545  21177738.8674                   21177736.9694
   -432846.90246   -306227.71943  23922203.3204                   23922205.2584
   1434475.63746   1118676.11743  23694646.9774                   23694644.7114
  -2564767.88347  -1971237.64545  21752078.9304                   21752076.1884
  -2985948.45746  -2266735.25843  23716640.8524                   23716641.2774
   -972801.17247   -740634.70346  19991423.0554                   19991420.3284
    773249.54746    608754.73043  22928681.5554                   22928679.5744
  -1846843.30947  -1479737.32846  20954782.8834                   20954778.9184
    672041.07447    528826.33245  20776626.9224                   20776623.4144
  -1722352.80145    450876.40642  24363054.7504                   24363056.7734
    299859.43446    278960.34842  24597761.0634                   24597764.1724
 11  7 23 18 16 30.0000000  0 11G03G10G16G07G08G13G06G19G23G28G11
    122653.17647     79203.56645  21169003.2584                   21169001.8754
   -502832.10546   -360761.72343  23908886.4924                   23908887.1724
   1427131.18846   1112953.14143  23693249.0084                   23693247.5864
  -2718580.31647  -2091091.48845  21722809.1484                   21722805.4454
  -3155399.84846  -2398775.25443  23684396.0704                   23684395.5474
  -1060526.12547   -808991.84046  19974729.7504                   19974726.5004
    746513.36346    587921.30543  22923593.6564                   22923592.2194
  -1966867.84847  -1573262.94546  20931942.7114                   20931938.8444
    643613.10247    506674.59845  20771217.3054                   20771213.6374
  -1892513.770 6                  24330674.195
    123645.48846    141650.97743  24564229.1414                   24564232.0704
 11  7 23 18 17  0.0000000  0 11G03G10G16G07G08G13G06G19G23G28G11
     77198.15647     43784.03945  21160353.9774                   21160352.1564
   -572518.78946   -415063.15243  23895625.7194                   23895626.0084
   1419660.39146   1107131.67243  23691827.2424                   23691825.8054
  -2872429.23847  -2210973.78145  21693532.4774                   21693530.4534
  -3325010.34846  -2530939.22743  23652119.8914                   23652119.7194
  -1147764.04347   -876969.46146  19958128.8444                   19958125.7934
    720070.34046    567316.30143  22918561.9454                   22918560.1644
  -2086399.44947  -1666404.44946  20909196.0634                   20909192.5904
    615554.86748    484810.96945  20765878.2664                   20765874.3204
  -2062571.406 5                  24298312.070
    -52796.28146      4164.08242  24530652.3914                   24530655.5394
 11  7 23 18 17 30.0000000  0 11G03G10G16G07G08G13G06G19G23G28G11
     32190.56347      8713.15245  21151789.4534                   21151787.7544
   -641907.18445   -469132.12143  23882421.6884                   23882421.7624
   1412063.25046   1101211.77743  23690381.4844                   23690379.9304
  -3026311.89547  -2330882.33245  21664249.8914                   21664247.3714
  -3494778.25447  -2663225.83243  23619814.5784                   23619813.8404
  -1234512.93447   -944566.03146  19941620.8134                   19941618.5234
    693919.91446    546939.32443  22913585.4144                   22913583.1914
  -2205435.30947  -1759159.65646  20886544.5314                   20886540.6684
    587866.14548    463235.27745  20760609.2114                   20760605.5824
  -2232524.184 5                  24265970.523
   -229461.93446   -133497.25843  24497033.9534                   24497037.7464
 11  7 23 18 18  0.0000000  0 11G03G10G16G07G08G13G06G19G23G28G11
    -12372.15247    -26011.07045  21143309.1564                   21143307.5864
   -710999.72746   -522970.49243  23869273.1644                   23869274.0434
   1404338.07446   1095192.08243  23688912.3754                   23688910.3094
  -3180227.70347  -2450816.69545  21634959.9454                   21634957.5434
  -3664703.45746  -2795635.04343  23587478.8754                   23587477.5944
  -1320772.84047  -1011781.56246  19925206.6414                   19925203.7624
    668059.46146    526788.28543  22908663.8204                   22908662.3244
  -2323974.97747  -1851528.21946  20863987.3444                   20863984.3324
    560544.78548    441945.83645  20755410.2504                   20755406.0514
                                  24233649.328
   -406349.50446   -271331.57842  24463374.0554                   24463376.5514
 11  7 23 18 18 30.0000000  0 11G03G10G16G07G08G13G06G19G23G28G11
   1518928.94547   1167210.51245  21434705.8674                   21434704.8094
    795623.34846    651021.41043  24155974.3674                   24155975.3954
   2971902.75446   2316671.00843  23987209.1414                   23987208.0864
  -1758750.97347  -1343172.50045  21905458.4144                   21905456.3094
  -2259360.19546  -1700562.32443  23854905.9454                   23854905.4804
    168878.97747    148986.05546  20208677.9924                   20208675.0204
   2217907.01247   1734461.63744  23203591.3204                   23203589.6884
   -866593.66447   -715906.41046  21141317.8524                   21141314.4884
   2109009.10947   1648541.35545  21050073.2734                   21050069.4494
   -996689.16015                  24501142.578
    991968.82046    818267.25042  24729464.6484                   24729467.9734
 11  7 23 18 19  0.0000000  0 11G03G10G16G07G08G13G06G19G23G28G11
   1475247.10547   1133172.66845  21426393.8984                   21426392.1954
    727113.18446    597636.80943  24142937.8364                   24142938.3324
   2963913.54346   2310445.56343  23985689.2344                   23985688.1454
  -1912733.37947  -1463158.76645  21876156.3984                   21876154.4304
  -2429602.06646  -1833218.26643  23822510.0004                   23822508.3284
     83594.87947     82530.89146  20192448.9224                   20192445.9844
   2192616.41846   1714754.66044  23198778.4614                   23198776.9964
   -984140.59847   -807501.43446  21118949.0084                   21118945.5164
   2082413.09048   1627817.12145  21045012.0784                   21045008.2074
  -1166328.910 6                  24468861.133
    814641.73445    680090.49642  24695719.4304                   24695724.0514
 11  7 23 18 19 30.0000000  0 11G03G10G16G07G08G13G06G19G23G28G11
   1432001.62547   1099474.87145  21418164.2584                   21418162.3484
    658890.12946    544475.92643  24129955.5394                   24129956.1684
   2955789.32446   2304114.99643  23984143.0474                   23984141.3954
  -2066748.53147  -1583170.57845  21846848.1484                   21846845.4104
  -2600002.88346  -1965998.07843  23790083.0554                   23790082.7304
     -1202.16447     16455.25446  20176312.4454                   20176309.2814
   2167606.60546   1695266.42244  23194018.4924                   23194018.1644
  -1101190.47347   -898709.12546  21096675.6414                   21096672.0554
   2056176.19947   1607372.73045  21040019.3444                   21040015.4884
  -1335864.863 6                  24436600.250
    637097.699 5                  24661934.805
 11  7 23 18 20  0.0000000  0 11G03G10G16G07G08G13G06G19G23G28G11
   1389192.54347   1066117.08245  21410018.0314                   21410016.1024
    590954.09046    491538.62943  24117027.6644                   24117028.0514
   2947530.96946   2297679.84043  23982571.9614                   23982570.1414
  -2220793.22347  -1703205.38745  21817534.3834                   21817531.9924
  -2770559.98846  -2098899.67243  23757627.2424                   23757626.8094
    -85509.89847    -49239.11746  20160269.4774                   20160266.3674
   2142877.07846   1675996.61744  23189313.3914                   23189312.1844
  -1217740.02747   -989526.96146  21074496.6804                   21074493.2424
   2030298.64847   1587208.34445  21035094.9774                   21035091.5594
  -1505295.10946   1451824.91452  24404358.7664                   24404358.7194
    459341.254 5                  24628108.313
 11  7 23 18 20 30.0000000  0 11G03G10G16G07G08G13G06G19G23G28G11
   1346816.99647   1033097.14845  21401954.1484                   21401952.7894
    523302.03146    438822.69543  24104152.8754                   24104154.1054
   2939136.05946   2291138.30143  23980973.5784                   23980972.4654
  -2374867.35247  -1823263.13345  21788215.2504                   21788212.9574
  -2941273.74646  -2231923.34043  23725141.3984                   23725141.6374
   -169328.57447   -114552.39146  20144318.7734                   20144315.8164
   2118424.96547   1656942.96544  23184660.0864                   23184659.2154
  -1333789.25047  -1079954.91046  21052413.2584                   21052409.8054
   2004777.13748   1567321.39145  21030238.5554                   21030235.2704
  -1674620.13346   1319883.44142  24372136.3594                   24372137.9414
    281374.266 5                  24594240.914
 11  7 23 18 21  0.0000000  0 11G03G10G16G07G08G13G06G19G23G28G11
   1304870.03547   1000411.16445  21393972.2894                   21393970.0204
    455928.99646    386324.13343  24091332.8364                   24091334.5044
   2930600.57046   2284487.20743  23979350.5474                   23979347.9924
  -2528972.73047  -1943345.23045  21758889.3524                   21758887.4264
  -3112147.07046  -2365071.30143  23692625.1254                   23692625.8364
   -252661.42247   -179487.09846  20128461.2664                   20128458.3364
   2094244.91446   1638101.32844  23180059.4534                   23180057.8094
  -1449340.42247  -1169994.78945  21030424.9454                   21030420.7034
   1979607.07047   1547708.28545  21025449.1254                   21025445.8714
  -1843842.25446   1188022.11743  24339934.7814                   24339935.3484
    103195.898 5                  24560335.680
 11  7 23 18 21 30.0000000  0 11G03G10G16G07G08G13G06G19G23G28G11
   1263351.26647    968058.84845  21386071.4144                   21386069.3524
    388834.50046    334042.61743  24078565.2814                   24078566.2544
   2921924.49646   2277726.59043  23977698.6564                   23977697.1414
  -2683106.69547  -2063449.60245  21729559.2274                   21729556.3244
  -3283177.87946  -2498342.04743  23660080.4064                   23660078.9574
   -335506.82447   -244041.97346  20112696.4534                   20112693.6524
   2070336.25447   1619471.12544  23175509.7424                   23175508.1334
  -1564391.04747  -1259644.64845  21008531.2894                   21008527.0354
   1954788.12948   1528368.78945  21020726.1804                   21020722.5784
  -2012959.57046   1056242.46143  24307752.5004                   24307753.4024
    -75189.687 6                  24526389.570
 11  7 23 18 22  0.0000000  0 11G03G10G16G07G08G13G06G19G23G28G11
   1222259.71547    936039.41445  21378251.6804                   21378250.3324
    322017.81346    281977.62943  24065851.7424                   24065851.2894
   2913107.84446   2270856.39843  23976022.0084                   23976019.1884
  -2837267.14147  -2183574.61745  21700223.7584                   21700221.5784
  -3454364.71946  -2631734.35543  23627504.8834                   23627502.6604
   -417863.73847   -308216.22746  20097024.6884                   20097021.8134
   2046697.80947   1601051.53944  23171011.1024                   23171009.8634
  -1678939.06247  -1348902.84846  20986733.7504                   20986729.9264
   1930319.34447   1509302.14145  21016069.8204                   21016066.0944
  -2181971.04347    924545.27743  24275591.4064                   24275591.7544
   -253778.484 6                  24492405.234
 11  7 23 18 22 30.0000000  0 11G03G10G16G07G08G13G06G19G23G28G11
   1181591.64147    904349.96145  21370512.8914                   21370511.4804
    255474.95746    230125.94943  24053188.4924                   24053189.1914
   2904147.69246   2263874.39843  23974316.2194                   23974314.9654
  -2991454.30947  -2303720.43445  21670882.4304                   21670880.2854
  -3625708.44546  -2765248.93043  23594898.5864                   23594896.7894
   -499733.46147   -372010.84046  20081444.6174                   20081442.3204
   2023325.77047   1582839.50044  23166563.6414                   23166562.5984
  -1792984.98447  -1437769.80146  20965031.6094                   20965027.8984
   1906196.97348   1490505.43445  21011479.7504                   21011475.9694
  -2350877.80146    792929.70343  24243448.2814                   24243450.4264
   -432569.695 6                  24458381.938
 11  7 23 18 23  0.0000000  0 11G03G10G16G07G08G13G06G19G23G28G11
   1141343.62547    872987.84445  21362854.1644                   21362852.2384
    189202.54346    178485.06343  24040576.4064                   24040578.2194
   2895041.38746   2256778.49243  23972583.8594                   23972581.2774
  -3145668.18047  -2423887.05545  21641536.3284                   21641534.4024
  -3797209.97246  -2898886.42343  23562262.0314                   23562261.4494
   -581117.15647   -435426.72746  20065958.0784                   20065955.4924
   2000216.45747   1564832.22744  23162166.0784                   23162164.2464
  -1906529.33247  -1526245.91846  20943424.8054                   20943421.0904
   1882418.00447   1471976.30945  21006954.8524                   21006950.7274
  -2519680.65646    661395.04743  24211326.3754                   24211327.8634
   -611562.270 6                  24424320.375
 11  7 23 18 23 30.0000000  0 11G03G10G16G07G08G13G06G19G23G28G11
   1101513.53147    841951.37545  21355275.3444                   21355273.4064
    123198.48046    127053.18843  24028017.5474                   24028018.2304
   2885787.98746   2249568.00943  23970822.7114                   23970820.1254
  -3299907.84047  -2544073.78145  21612185.7894                   21612183.6094
  -3968868.80946  -3032646.53143  23529597.4454                   23529596.1134
   -662014.69947   -498463.80546  20050563.6484                   20050561.3134
   1977367.78947   1547028.00844  23157817.6174                   23157816.9964
  -2019570.76247  -1614330.14546  20921913.3444                   20921909.8014
   1858980.46947   1453713.22745  21002494.2504                   21002490.8204
  -2688379.37946    529941.52043  24179224.6174                   24179225.4264
   -790752.961 6                  24390221.109
 11  7 23 18 24  0.0000000  0 11G03G10G16G07G08G13G06G19G23G28G11
   1062098.36347    811238.21545  21347774.2194                   21347773.0124
     57459.71746     75828.07843  24015507.2344                   24015508.1254
   2876385.01246   2242240.95343  23969033.5314                   23969030.5594
  -3454173.52747  -2664280.79345  21582829.9694                   21582827.6374
  -4140685.62146  -3166529.72343  23496901.1954                   23496900.2344
   -742427.38347   -561123.06246  20035262.4774                   20035259.1914
   1954776.36747   1529424.26644  23153519.6954                   23153518.0314
  -2132109.95747  -1702023.02345  20900497.8054                   20900494.2734
   1835881.21947   1435713.74645  20998099.3524                   20998095.6604
  -2856974.63346    398568.62943  24147142.1174                   24147142.1564
   -970140.484 5                  24356085.141
 11  7 23 18 24 30.0000000  0 11G03G10G16G07G08G13G06G19G23G28G11
   1023095.70347    780846.47745  21340352.0784                   21340350.4574
     -8016.03146     24807.94543  24003047.6954                   24003048.3524
   2866831.21546   2234796.38343  23967215.2894                   23967213.0274
  -3608463.59047  -2784506.79345  21553469.3054                   21553467.9184
  -4312659.97346  -3300535.66443  23464175.8054                   23464175.3554
   -822355.11347   -623404.43746  20020052.4774                   20020050.0434
   1932440.02046   1512019.27744  23149268.0474                   23149267.5744
  -2244146.20747  -1789324.01246  20879178.7274                   20879174.5904
   1813118.18448   1417976.24245  20993767.0474                   20993764.2504
  -3025466.17646    267276.57843  24115079.4454                   24115079.5314
  -1149721.87546    628909.59052  24321912.2424                   24321914.8714
 11  7 23 18 25  0.0000000  0 11G03G10G16G07G08G13G06G19G23G28G11
    984501.31647    750772.90245  21333008.2274                   21333006.5824
    -73233.33646    -26010.82443  23990636.9144                   23990638.5984
   2857123.35246   2227231.77343  23965368.1254                   23965366.2774
  -3762779.34847  -2904752.81645  21524104.2664                   21524102.0904
  -4484793.96146  -3434665.99643  23431419.7974                   23431419.1644
   -901800.35247   -685309.84446  20004934.4224                   20004931.9654
   1910353.77746   1494809.16844  23145065.7734                   23145065.1994
  -2355681.02047  -1876234.26246  20857954.0784                   20857949.3404
   1790686.69547   1400497.08245  20989498.9144                   20989495.6954
  -3193856.13346    136063.70743  24083036.1414                   24083035.9654
  -1329497.49646    488824.91842  24287701.8754                   24287704.3594
 11  7 23 18 25 30.0000000  0 11G03G10G16G07G08G13G06G19G23G28G11
    946312.84447    721015.60944  21325741.2034                   21325739.7274
   -138194.61746    -76630.09043  23978275.3284                   23978276.2544
   2847259.70746   2219545.77343  23963491.4144                   23963489.8984
  -3917119.79747  -3025018.09845  21494734.2504                   21494731.8754
  -4657086.53946  -3568919.93443  23398634.1254                   23398632.4384
   -980763.19947   -746839.36346  19989908.3984                   19989905.3244
   1888515.27746   1477792.11744  23140909.4064                   23140909.5474
  -2466713.66847  -1962753.20346  20836825.2664                   20836821.1294
   1768584.95347   1383274.88745  20985293.1174                   20985289.8714
  -3362144.52346      4929.91443  24051011.7504                   24051012.3284
  -1509464.70345    348590.85242  24253454.7814                   24253458.1914
 11  7 23 18 26  0.0000000  0 11G03G10G16G07G08G13G06G19G23G28G11
    908525.42247    691570.83245  21318550.3444                   21318549.1414
   -202904.31246   -127053.32043  23965962.5784                   23965962.7154
   2837236.54746   2211735.50843  23961584.2034                   23961582.5314
  -4071486.44147  -3145303.77745  21465359.1564                   21465356.9184
  -4829539.97746  -3703299.18043  23365816.4384                   23365815.9224
  -1059246.40647   -807995.12946  19974973.3054                   19974970.7934
   1866919.76246   1460964.40243  23136800.5474                   23136799.9264
  -2577246.22747  -2048882.47346  20815791.7194                   20815787.8794
   1746808.35547   1366306.04745  20981149.8444                   20981145.7304
  -3530333.62145   -126126.39842  24019004.3834                   24019007.4924
  -1689622.91046    208208.04743  24219172.2274                   24219175.3524
 11  7 23 18 26 30.0000000  0 11G03G10G16G07G08G13G06G19G23G28G11
   2446560.89547   1890039.98045  21611229.3834                   21611227.5864
   1308060.14846   1050321.46143  24253488.6724                   24253489.3364
   4402475.87946   3431402.44542  24259439.6094                   24259437.1334
  -2650449.65247  -2038002.35945  21735773.8134                   21735771.2544
  -3426725.69546  -2610197.08643  23632763.2424                   23632762.7384
    438175.17247    358826.84846  20259923.4144                   20259921.0824
   3420988.35546   2671926.87943  23432529.4454                   23432529.5164
  -1111851.42647   -907016.40245  21094647.0864                   21094643.4304
   3300778.03147   2577191.45345  21276859.7504                   21276856.2234
  -2122994.49646    970501.67642  24286813.0554                   24286813.9304
   -294541.14146   1295284.92642  24484647.1254                   24484649.8674
 11  7 23 18 27  0.0000000  0 11G03G10G16G07G08G13G06G19G23G28G11
   2409573.59847   1861218.68045  21604190.8444                   21604189.2344
   1243851.36346   1000288.55543  24241270.3284                   24241271.7774
   4392135.15246   3423344.76242  24257471.1254                   24257469.5394
  -2804859.76247  -2158321.89845  21706389.7974                   21706388.1294
  -3599495.19946  -2744822.64144  23599887.1174                   23599885.8754
    360655.50047    298421.88346  20245171.8984                   20245168.9454
   3399876.52746   2655476.05543  23428512.4844                   23428511.9304
  -1221376.62947   -992360.72746  21073804.8364                   21073800.6564
   3279649.71547   2560727.75445  21272839.8524                   21272835.9384
  -2290978.84846    839604.89543  24254846.5554                   24254847.4964
   -475069.59446   1154613.55543  24450293.1414                   24450295.5664
 11  7 23 18 27 30.0000000  0 11G03G10G16G07G08G13G06G19G23G28G11
   2372983.51647   1832706.89545  21597227.5314                   21597226.8244
   1179890.27746    950448.67643  24229099.8364                   24229100.6254
   4381634.35946   3415162.28542  24255473.0784                   24255471.5784
  -2959289.47347  -2278656.72745  21677002.6954                   21677000.7974
  -3772421.20746  -2879570.12544  23566979.7274                   23566978.5744
    283618.03147    238392.65246  20230511.8754                   20230509.5354
   3379003.61346   2639211.39843  23424540.1804                   23424539.5514
  -1330396.78947  -1077311.49646  21053059.0634                   21053055.1724
   3258842.59047   2544514.33645  21268879.6954                   21268877.2504
  -2458860.49646    708788.11743  24222900.0394                   24222900.3164
   -655778.12146   1013801.87543  24415905.4064                   24415908.2154
 11  7 23 18 28  0.0000000  0 11G03G10G16G07G08G13G06G19G23G28G11
   2336786.98447   1804501.75845  21590339.6564                   21590338.4734
   1116172.62946    900798.46543  24216974.5634                   24216975.6564
   4370970.65646   3406852.86343  24253443.3914                   24253442.6334
  -3113739.21147  -2399007.14145  21647612.0234                   21647610.1214
  -3945505.12546  -3014440.68743  23534042.6884                   23534041.2384
    207060.63747    178737.51246  20215943.9064                   20215941.0124
   3358365.57046   2623129.76643  23420612.0864                   23420612.2034
  -1438913.25847  -1161869.77346  21032408.7274                   21032405.1174
   3238353.26247   2528548.56645  21264980.9384                   21264977.3554
  -2626640.87146    578050.29743  24190972.7504                   24190973.0274
   -836666.27746    872850.21543  24381484.4614                   24381486.6214
 11  7 23 18 28 30.0000000  0 11G03G10G16G07G08G13G06G19G23G28G11
   2300983.02047   1776602.53545  21583526.2734                   21583525.0234
   1052697.90646    851337.58643  24204895.8834                   24204896.1604
   4360144.32046   3398416.61342  24251382.5554                   24251382.1804
  -3268206.14547  -2519370.97745  21618218.4924                   21618215.4384
  -4118744.97346  -3149432.73043  23501076.5004                   23501075.1724
    130984.59447    119457.44946  20201467.2734                   20201464.5514
   3337961.21146   2607230.23843  23416729.3984                   23416729.0554
  -1546923.67647  -1246033.73846  21011855.6564                   21011851.9534
   3218180.80947   2512829.70345  21261142.8204                   21261138.6174
  -2794318.28546    447392.66843  24159064.3364                   24159065.4844
  -1017729.95346    731761.84843  24347028.3284                   24347030.6914
 11  7 23 18 29  0.0000000  0 11G03G10G16G07G08G13G06G19G23G28G11
   2265569.57047   1749007.60545  21576787.7584                   21576785.8204
    989463.99646    802064.31342  24192862.8284                   24192862.6094
   4349154.31346   3389852.97342  24249292.3984                   24249291.5784
  -3422689.09847  -2639747.29345  21588820.9534                   21588818.7424
  -4292139.77046  -3284545.53143  23468080.3984                   23468079.3674
     55389.43847     60552.10946  20187081.6804                   20187078.8874
   3317788.44546   2591511.16043  23412891.3594                   23412891.0554
  -1654427.78547  -1329803.18446  20991398.1484                   20991393.9654
   3198323.32847   2497356.29345  21257364.1414                   21257359.6454
  -2961892.01246    316815.82843  24127176.1564                   24127176.7774
  -1198966.25446    590538.91443  24312540.6644                   24312542.8794
 11  7 23 18 29 30.0000000  0 11G03G10G16G07G08G13G06G19G23G28G11
   2230542.09847   1721713.43045  21570122.1884                   21570121.3094
    926466.62146    752975.36743  24180874.3524                   24180875.6914
   4337997.83646   3381159.54743  24247169.3984                   24247167.9924
  -3577188.15247  -2760136.17645  21559420.6094                   21559418.3324
  -4465690.53146  -3419779.85243  23435055.5474                   23435053.6684
    -19726.69947      2020.01646  20172788.0084                   20172785.5084
   3297843.18846   2575969.35943  23409095.5394                   23409094.9494
  -1761426.48447  -1413178.80946  20971036.8524                   20971033.1374
   3178776.82047   2482125.19145  21253644.1644                   21253641.0124
  -3129364.06246    186318.24643  24095308.1334                   24095308.0004
  -1380373.91846    449182.50843  24278018.1644                   24278021.8324
 11  7 23 18 30  0.0000000  0 11G03G10G16G07G08G13G06G19G23G28G11
   2195898.49647   1694718.39145  21563529.3054                   21563528.5904
    863703.57046    704069.00443  24168932.0944                   24168932.2464
   4326673.82045   3372335.53942  24245013.0314                   24245013.4494
  -3731702.89147  -2880537.24245  21530017.9304                   21530015.0704
  -4639397.02046  -3555135.48443  23401998.9224                   23401998.2074
    -94364.24247    -56139.13346  20158584.2344                   20158581.8284
   3278122.98046   2560602.93443  23405342.8524                   23405342.5824
  -1867919.28547  -1496160.20346  20950771.9844                   20950767.8834
   3159538.87947   2467134.51645  21249982.9144                   21249980.1174
  -3296734.26245     55899.98042  24063456.4844                   24063458.0354
  -1561950.30945    307694.56642  24243465.7814                   24243468.5824
 11  7 23 18 30 30.0000000  0 11G03G10G16G07G08G13G06G19G23G28G11
   2161635.47347   1668019.90245  21557009.7034                   21557008.0354
    801171.68046    655342.79342  24157031.7734                   24157032.3444
   4315180.41846   3363379.54742  24242827.7274                   24242826.8594
  -3886232.16047  -3000949.64845  21500611.2274                   21500609.6024
  -4813259.28146  -3690612.52743  23368914.4924                   23368913.5704
   -168524.03947   -113926.02346  20144472.4384                   20144470.1134
   3258624.74246   2545409.41443  23401633.1884                   23401632.3714
  -1973906.87147  -1578747.93446  20930602.8754                   20930598.9924
   3140606.61347   2452382.05545  21246380.4454                   21246377.8874
  -3464003.21146    -74439.32042  24031625.5164                   24031627.4614
  -1743693.85946    166076.35542  24208883.0004                   24208883.7274
 11  7 23 18 31  0.0000000  0 11G03G10G16G07G08G13G06G19G23G28G11
   2127752.83247   1641617.82445  21550561.8674                   21550560.6214
    738870.76246    606796.60242  24145176.1644                   24145177.4614
   4303518.19546   3354292.04742  24240608.3984                   24240607.2074
  -4040773.21547  -3121371.22345  21471203.3204                   21471200.9024
  -4987275.22346  -3826209.32843  23335800.5394                   23335799.7114
   -242204.80947   -171339.63746  20130451.5394                   20130448.7894
   3239347.95746   2530388.56343  23397964.1564                   23397964.1054
  -2079386.84847  -1660940.12145  20910530.7504                   20910527.6454
   3121979.55147   2437867.39845  21242836.4064                   21242833.0904
  -3631168.80546   -204698.11742  23999816.1884                   23999817.1484
  -1925599.91046     24331.64143  24174266.7114                   24174267.2544
 11  7 23 18 31 30.0000000  0 11G03G10G16G07G08G13G06G19G23G28G11
   2094250.44547   1615512.01245  21544186.5704                   21544185.7734
    676800.71546    558430.23442  24133364.7274                   24133366.5784
   4291688.84046   3345074.29343  24238356.7274                   24238356.5124
  -4195321.62147  -3241798.53545  21441794.1884                   21441791.3054
  -5161441.41046  -3961923.19543  23302657.0164                   23302656.0864
   -315404.43047   -228378.33246  20116522.2274                   20116519.1644
   3220292.84447   2515540.37544  23394339.3134                   23394338.5594
  -2184356.14147  -1742734.37546  20890555.8834                   20890551.9264
   3103657.73447   2423590.57445  21239349.6174                   21239346.2974
  -3798228.20346   -334874.18443  23968026.8134                   23968026.9264
  -2107662.77746   -117535.40642  24139620.1644                   24139622.1134
 11  7 23 18 32  0.0000000  0 11G03G10G16G07G08G13G06G19G23G28G11
   2061124.20347   1589699.31344  21537882.6484                   21537881.6414
    614957.11346    510240.32042  24121596.7034                   24121597.6564
   4279689.30146   3335723.92243  24236074.4064                   24236073.1764
  -4349878.64547  -3362232.55145  21412382.6804                   21412379.6994
  -5335759.22347  -4097755.20743  23269485.7814                   23269484.9654
   -388125.45747   -285044.10246  20102683.9694                   20102680.9734
   3201454.71947   2500861.26644  23390755.2974                   23390753.9184
  -2288816.60247  -1824132.14146  20870677.7034                   20870673.7234
   3085637.44147   2409548.71545  21235920.8284                   21235917.4734
  -3965183.72146   -464969.29543  23936255.8204                   23936256.9494
  -2289882.21946   -259524.43742  24104945.8754                   24104947.4224
 11  7 23 18 32 30.0000000  0 11G03G10G16G07G08G13G06G19G23G28G11
   2028374.23847   1564179.81644  21531650.7584                   21531649.4964
    553340.19546    462227.00043  24109872.4694                   24109871.5594
   4267520.91846   3326242.01643  24233758.4144                   24233757.3714
  -4504440.11347  -3482670.04345  21382970.6564                   21382967.6914
  -5510225.43747  -4233702.85543  23236286.0864                   23236284.8204
   -460365.58247   -341335.13746  20088936.9224                   20088934.5274
   3182833.94146   2486351.53944  23387210.4614                   23387210.2854
  -2392765.32447  -1905131.15246  20850897.1254                   20850893.0664
   3067918.85247   2395741.96145  21232548.9534                   21232545.8914
  -4132032.66846   -594981.35543  23904504.1254                   23904505.6024
  -2472252.56245   -401630.98042  24070241.1884                   24070244.0984
 11  7 23 18 33  0.0000000  0 11G03G10G16G07G08G13G06G19G23G28G11
   1995996.13347   1538950.07445  21525490.2664                   21525488.1414
    491946.13746    414387.37943  24098188.4384                   24098188.5394
   4255180.79746   3316626.30543  24231410.4144                   24231409.2464
  -4659006.50447  -3603111.37545  21353557.5554                   21353555.2114
  -5684841.08646  -4369766.95343  23203057.0634                   23203056.2504
   -532126.91847   -397253.08246  20075281.0634                   20075278.1214
   3164426.39546   2472007.93844  23383708.4694                   23383707.5434
  -2496203.48047  -1985732.30946  20831213.2814                   20831209.3954
   3050498.05947   2382167.22745  21229234.2894                   21229230.7424
  -4298776.32046   -724911.39843  23872775.7584                   23872775.2424
  -2654772.77745   -543854.33642  24035507.5784                   24035511.8094
 11  7 23 18 33 30.0000000  0 11G03G10G16G07G08G13G06G19G23G28G11
   1963991.88747   1514011.68044  21519399.4454                   21519397.7974
    430776.59446    366722.75043  24086548.3284                   24086549.3204
   4242672.29346   3306879.39143  24229030.6954                   24229028.6644
  -4813572.72747  -3723552.54345  21324144.7274                   21324142.1174
  -5859601.48846  -4505943.87544  23169801.5784                   23169800.7814
   -603406.21947   -452795.41846  20061717.5474                   20061714.3714
   3146233.73447   2457831.82444  23380246.1564                   23380245.3364
  -2599127.16847  -2065932.57446  20811627.9144                   20811623.7344
   3033376.35247   2368825.55545  21225975.9304                   21225972.8204
  -4465410.58646   -854756.24243  23841065.9614                   23841065.3634
  -2837436.23046   -686189.23842  24000747.7734                   24000752.1134
 11  7 23 18 34  0.0000000  0 11G03G10G16G07G08G13G06G19G23G28G11
   1932359.57047   1489363.07044  21513380.2034                   21513378.6884
    369829.76246    319231.61343  24074950.9844                   24074951.1884
   4229994.68046   3297000.66843  24226617.8594                   24226615.9534
  -4968136.46947  -3843991.79745  21294731.5554                   21294728.8834
  -6034505.64846  -4642232.78943  23136518.7664                   23136517.9534
   -674203.42247   -507962.09446  20048245.1094                   20048242.5234
   3128254.06647   2443821.66844  23376825.5234                   23376823.8054
  -2701535.49647  -2145731.27346  20792139.8834                   20792136.0204
   3016552.12547   2355715.69545  21222774.6724                   21222770.6604
  -4631934.95346   -984515.39143  23809376.8914                   23809377.8834
  -3020239.35546   -828633.13742  23965962.1484                   23965964.4534
 11  7 23 18 34 30.0000000  0 11G03G10G16G07G08G13G06G19G23G28G11
   3476517.67647   2692603.11745  21807223.6484                   21807222.8484
   1884524.77346   1499513.33643  24363188.6564                   24363188.2664
   5792567.36746   4514589.71943  24523965.0784                   24523964.1764
  -3547271.57847  -2736824.35545  21565114.3594                   21565111.1884
  -4634126.83646  -3551028.48043  23403002.0004                   23403001.5594
    830903.37547    664848.36346  20334657.4384                   20334654.5704
   4685905.42246   3657575.91443  23673235.6094                   23673234.9304
  -1228004.77747   -997525.51646  21072543.8834                   21072539.8134
   4575443.70747   3570436.34845  21519421.6724                   21519418.2734
  -3222923.60246    113415.58243  24077501.7894                   24077503.5124
  -1627753.69946    256420.73042  24230942.9144                   24230945.3674
 11  7 23 18 35  0.0000000  0 11G03G10G16G07G08G13G06G19G23G28G11
   3445622.20747   2668528.67644  21801344.6254                   21801343.2854
   1824016.35946   1452363.83243  24351672.6094                   24351674.4884
   5779549.21146   4504445.65643  24521487.9064                   24521486.2774
  -3701826.27047  -2857256.57045  21535703.0164                   21535700.0204
  -4809315.56647  -3687539.13344  23369664.7114                   23369663.5824
    761069.51247    610432.34846  20321368.3204                   20321365.3834
   4668344.95347   3643892.39843  23669894.3594                   23669893.3444
  -1329380.82847  -1076519.85246  21053252.4774                   21053248.4804
   4559208.30147   3557785.30145  21516332.1884                   21516329.1724
  -3389227.02046    -16171.38343  24045855.5234                   24045857.4104
  -1810827.87946    113765.71542  24196105.3364                   24196107.0004
 11  7 23 18 35 30.0000000  0 11G03G10G16G07G08G13G06G19G23G28G11
   3415091.15647   2644738.21544  21795534.6254                   21795532.4804
   1763723.11745   1405382.02342  24340199.3444                   24340201.5554
   5766359.25846   4494167.70742  24518979.0474                   24518976.3134
  -3856374.57448  -2977683.80545  21506293.0004                   21506290.6374
  -4984645.78147  -3824160.02344  23336300.4304                   23336299.3364
    691715.98848    556390.60546  20308170.4924                   20308168.3634
   4650990.21546   3630369.17243  23666591.8594                   23666591.3914
  -1430240.96147  -1155112.15646  21034059.7344                   21034055.3834
   4543263.32847   3545360.57045  21513298.1954                   21513294.9414
  -3555420.50446   -145672.72343  24014230.2814                   24014230.7384
  -1994033.12546    -28991.44542  24161242.0634                   24161243.6724
 11  7 23 18 36  0.0000000  0 11G03G10G16G07G08G13G06G19G23G28G11
   3384924.53947   2621231.73445  21789795.0634                   21789793.1094
   1703645.13746   1358567.91442  24328767.3594                   24328768.4224
   5752998.60246   4483756.74243  24516436.4144                   24516433.8984
  -4010912.73047  -3098103.13745  21476885.9064                   21476883.0044
  -5160114.29747  -3960888.70743  23302910.0164                   23302908.5514
    622844.60547    502724.56646  20295064.7664                   20295061.7934
   4633841.41446   3617006.43044  23663327.6174                   23663328.4144
  -1530582.44547  -1233300.32046  21014965.0394                   21014961.2464
   4527609.20347   3533162.48845  21510319.7974                   21510316.2274
  -3721501.29746   -275086.23043  23982626.3364                   23982626.4494
  -2177364.44546   -171846.86743  24126355.2664                   24126357.1564
 11  7 23 18 36 30.0000000  0 11G03G10G16G07G08G13G06G19G23G28G11
   3355119.89847   2598007.30944  21784122.1564                   21784121.5354
   1643779.96546   1311919.65242  24317375.4454                   24317376.4494
   5739466.71945   4473212.34842  24513860.8834                   24513859.3984
  -4165439.30147  -3218513.44145  21447480.5394                   21447477.3404
  -5335720.48047  -4097724.64843  23269493.1414                   23269491.6884
    554454.68847    449433.69546  20282050.9304                   20282048.0354
   4616895.74246   3603801.95343  23660103.9304                   23660102.8094
  -1630405.50847  -1311084.51646  20995969.3834                   20995965.2504
   4512243.13747   3521188.86345  21507395.5084                   21507391.5634
  -3887469.36346   -404411.93443  23951043.5864                   23951043.7894
  -2360819.30946   -314798.52743  24091445.0944                   24091447.2504
 11  7 23 18 37  0.0000000  0 11G03G10G16G07G08G13G06G19G23G28G11
   3325673.50447   2575062.05144  21778518.6334                   21778517.3524
   1584123.86346   1265434.26243  24306023.1094                   24306024.9184
   5725761.14146   4462532.63342  24511252.3444                   24511251.0474
  -4319954.36347  -3338914.77045  21418077.2894                   21418073.8094
  -5511464.59446  -4234668.08244  23236050.0394                   23236049.2384
    486544.28947    396516.46146  20269127.6254                   20269125.0864
   4600149.75846   3590753.11343  23656917.0164                   23656916.2854
  -1729711.09847  -1388465.50846  20977072.5474                   20977068.3594
   4497161.64547   3509436.96945  21504525.3284                   21504522.1094
  -4053325.88346   -533650.68443  23919481.1564                   23919481.8634
  -2544395.91446   -457845.10943  24056512.1804                   24056512.7384
 11  7 23 18 37 30.0000000  0 11G03G10G16G07G08G13G06G19G23G28G11
   3296586.00447   2552396.44944  21772984.2504                   21772982.2384
   1524677.79346   1219112.53143  24294711.0554                   24294713.4414
   5711884.08246   4451719.28542  24508612.8284                   24508611.0514
  -4474452.89147  -3459303.22745  21388676.9384                   21388674.1564
  -5687342.98046  -4371716.11744  23202581.3834                   23202580.7304
    419116.39547    343975.20746  20256296.8674                   20256294.0634
   4583604.41846   3577860.57044  23653768.8674                   23653769.0554
  -1828495.99247  -1465440.73846  20958274.2114                   20958270.5474
   4482365.70347   3497907.59445  21501709.6564                   21501706.2734
  -4219067.65646   -662800.02043  23887942.6954                   23887941.4964
  -2728088.00846   -600981.61343  24021555.7814                   24021556.2274
 11  7 23 18 38  0.0000000  0 11G03G10G16G07G08G13G06G19G23G28G11
   3267852.04747   2530006.34844  21767516.1094                   21767514.1644
   1465436.39846   1172950.29343  24283437.7504                   24283440.0984
   5697831.98046   4440769.53942  24505937.4384                   24505938.4534
  -4628936.41847  -3579679.97345  21359279.7344                   21359276.9104
  -5863357.77046  -4508870.44944  23169087.2344                   23169085.9924
    352167.37547    291807.12546  20243556.9304                   20243554.4414
   4567254.37146   3565120.23843  23650657.2424                   23650657.4694
  -1926762.86347  -1542012.32846  20939574.5634                   20939570.4844
   4467850.20347   3486596.71145  21498947.8834                   21498943.7854
  -4384697.27346   -791861.98443  23856423.7584                   23856423.3554
  -2911895.86346   -744208.40643  23986578.5864                   23986578.3984
 11  7 23 18 38 30.0000000  0 11G03G10G16G07G08G13G06G19G23G28G11
   3239468.26247   2507889.07844  21762114.6564                   21762112.9614
   1406397.00446   1126945.45343  24272203.4144                   24272204.7114
   5683603.31346   4429682.24642  24503229.5784                   24503231.3404
  -4783404.04347  -3700044.33245  21329885.5634                   21329882.8594
  -6039508.44547  -4646130.68444  23135566.7424                   23135565.2274
    285695.38747    240010.73846  20230907.2274                   20230905.2424
   4551096.42246   3552529.59043  23647583.1644                   23647582.4654
  -2024512.35947  -1618180.77746  20920973.4224                   20920969.5354
   4453611.87947   3475501.85545  21496238.1254                   21496234.3954
  -4550215.56646   -920837.18743  23824927.0634                   23824927.0394
  -3095817.01646   -887523.47343  23951578.9534                   23951579.5044
 11  7 23 18 39  0.0000000  0 11G03G10G16G07G08G13G06G19G23G28G11
   3211432.31647   2486042.85944  21756779.6484                   21756778.0984
   1347556.79746   1081095.84443  24261006.2584                   24261008.0864
   5669196.96545   4418456.48442  24500488.0554                   24500489.5744
  -4937854.57447  -3820395.38745  21300494.5394                   21300491.3984
  -6215794.22746  -4783496.17644  23102020.2974                   23102019.3834
    219699.57847    188585.39546  20218349.6414                   20218346.3954
   4535128.32046   3540086.84043  23644543.6094                   23644543.7034
  -2121744.46947  -1693946.05546  20902470.8054                   20902467.2344
   4439648.62147   3464621.31345  21493581.2274                   21493577.8444
  -4715622.30546  -1049725.45743  23793451.1254                   23793450.8164
  -3279848.74246  -1030924.63743  23916558.5084                   23916559.7074
 11  7 23 18 39 30.0000000  0 11G03G10G16G07G08G13G06G19G23G28G11
   3183742.80147   2464466.59444  21751510.7274                   21751509.6134
   1288914.27746   1035400.35242  24249847.8914                   24249848.8094
   5654613.39846   4407092.58642  24497714.7194                   24497713.9924
  -5092285.58647  -3940731.22345  21271107.0474                   21271103.9844
  -6392213.69146  -4920965.82843  23068448.3284                   23068447.7384
    154180.36347    137531.43046  20205881.3524                   20205878.4454
   4519348.49246   3527790.83243  23641541.7504                   23641541.1684
  -2218458.34847  -1769307.51246  20884066.7584                   20884062.5944
   4425958.68047   3453953.75845  21490976.4694                   21490972.5664
  -4880916.64547  -1178526.12543  23761996.7424                   23761996.4184
  -3463987.04746  -1174408.93443  23881518.8364                   23881519.9144
 11  7 23 18 40  0.0000000  0 11G03G10G16G07G08G13G06G19G23G28G11
   3156401.23047   2443161.44544  21746307.0004                   21746306.9734
   1230470.97346    989859.99242  24238726.0394                   24238728.2304
   5639855.59046   4395592.95342  24494905.9614                   24494904.6764
  -5246691.52347  -4061047.54345  21241725.0004                   21241720.9924
  -6568761.94146  -5058535.84444  23034852.3984                   23034851.6454
     89141.05147     86851.41046  20193505.2194                   20193502.5234
   4503758.43046   3515642.71143  23638574.4614                   23638574.3364
  -2314650.16047  -1844262.17646  20865762.0474                   20865758.0594
   4412543.56347   3443500.35245  21488423.0944                   21488419.8874
  -5046094.84446  -1307236.33643  23730563.6724                   23730563.5434
  -3648225.34446  -1317971.08643  23846458.3984                   23846460.5394
 11  7 23 18 40 30.0000000  0 11G03G10G16G07G08G13G06G19G23G28G11
   3129403.11747   2422123.91044  21741170.3364                   21741169.4884
   1172222.24645    944471.25042  24227642.3284                   24227643.2934
   5624920.70745   4383955.32842  24492064.9694                   24492061.5634
  -5401072.83247  -4181344.65245  21212346.8914                   21212344.0634
  -6745439.95746  -5196206.98843  23001231.9694                   23001231.0904
     24578.62147     36542.98446  20181218.9924                   20181216.9534
   4488354.02046   3503639.22343  23635643.6484                   23635642.8014
  -2410322.00447  -1918811.64546  20847556.1564                   20847551.5434
   4399398.98047   3433257.73845  21485922.3984                   21485918.9414
  -5211158.47346  -1435857.21943  23699153.5084                   23699152.8914
  -3832562.48846  -1461610.30943  23811381.1884                   23811383.1564
 11  7 23 18 41  0.0000000  0 11G03G10G16G07G08G13G06G19G23G28G11
   3102742.44547   2401349.35944  21736096.3204                   21736095.5904
   1114162.64845    899229.85243  24216593.7034                   24216595.0514
   5609804.88746   4372176.66842  24489186.2274                   24489185.7114
  -5555431.11747  -4301623.81245  21182973.3054                   21182970.5904
  -6922249.96546  -5333980.97343  22967586.2194                   22967585.1214
    -39510.64547    -13396.73846  20169023.6254                   20169020.5904
   4473129.53546   3491775.93443  23632745.5394                   23632745.6724
  -2505477.03147  -1992958.42246  20829448.5474                   20829444.5784
   4386519.39147   3423221.62545  21483471.2814                   21483468.1564
  -5376110.94546  -1564391.58243  23667764.1024                   23667763.3954
  -4016998.20346  -1605326.33643  23776283.7814                   23776284.7504
 11  7 23 18 41 30.0000000  0 11G03G10G16G07G08G13G06G19G23G28G11
   3076421.93447   2380839.82444  21731088.5784                   21731086.9064
   1056294.84445    854137.98043  24205582.0164                   24205583.4344
   5594511.97745   4360260.18042  24486277.0784                   24486276.0904
  -5709760.00447  -4421880.08645  21153605.7194                   21153602.7344
  -7099186.27747  -5471853.39144  22933916.6724                   22933915.3594
   -103122.81647    -62964.69146  20156918.3594                   20156915.4694
   4458087.39546   3480054.76243  23629884.6724                   23629883.0704
  -2600110.62547  -2066698.88746  20811439.9774                   20811436.6024
   4373907.22347   3413393.89545  21481071.3914                   21481068.2974
  -5540947.21546  -1692835.32043  23636396.9844                   23636396.6094
  -4201525.16846  -1749113.41043  23741168.8984                   23741170.1564
 11  7 23 18 42  0.0000000  0 11G03G10G16G07G08G13G06G19G23G28G11
   4625854.34847   3588189.72744  22025934.9384                   22025933.8674
   2574032.98045   2036790.93842  24494398.6564                   24494399.9064
   7154456.81346   5575801.58243  24783124.6414                   24783124.4494
  -4288637.86747  -3314512.18045  21424036.0944                   21424033.4414
  -5700827.03947  -4382222.75044  23200015.0234                   23200013.9104
   1409158.08647   1115435.98446  20444695.7734                   20444692.9024
   6018640.85546   4696070.42643  23926847.8674                   23926846.6214
  -1118804.76647   -912434.58245  21093323.8134                   21093319.1994
   5936975.55947   4631369.14845  21778513.3134                   21778510.4534
  -4130246.76646   -593588.13743  23904843.2734                   23904844.3524
  -2810719.41046   -665368.52343  24005829.7664                   24005831.0164
 11  7 23 18 42 30.0000000  0 11G03G10G16G07G08G13G06G19G23G28G11
   4600198.45347   3568198.04744  22021053.8134                   22021052.0394
   2516533.08646   1991985.73443  24483456.4064                   24483457.2424
   7138800.30146   5563601.63343  24780146.1174                   24780144.7154
  -4442910.98047  -3434724.99645  21394679.0234                   21394675.9614
  -5878020.87947  -4520295.84444  23166296.5234                   23166294.8284
   1346489.73047   1066603.46546  20432770.0554                   20432767.3794
   6003949.07046   4684622.24043  23924051.8134                   23924051.3794
  -1212403.48447   -985368.63346  21075512.3204                   21075508.3484
   5924883.59047   4621946.72745  21776212.7734                   21776209.4024
  -4294858.43746   -721856.82843  23873517.8914                   23873519.5204
  -2995427.43446   -809296.74643  23970682.8984                   23970681.9804
 11  7 23 18 43  0.0000000  0 11G03G10G16G07G08G13G06G19G23G28G11
   4574868.20347   3548460.16844  22016232.8444                   22016231.3054
   2459210.53546   1947318.64843  24472547.8754                   24472549.6454
   7122957.79346   5551256.77743  24777130.7504                   24777129.4384
  -4597156.86347  -3554916.58245  21365326.8524                   21365324.1644
  -6055345.24247  -4658470.64844  23132552.1644                   23132550.5664
   1284288.72747   1018135.10946  20420933.6094                   20420931.3524
   5989425.44146   4673305.07043  23921287.6954                   23921288.2894
  -1305488.09047  -1057902.09446  21057798.9614                   21057794.9964
   5913044.84447   4612721.65245  21773960.1644                   21773956.7074
  -4459360.52746   -850040.16443  23842214.7034                   23842215.2624
  -3180224.73446   -953294.59843  23935515.8594                   23935516.7544
 11  7 23 18 43 30.0000000  0 11G03G10G16G07G08G13G06G19G23G28G11
   4549858.75447   3528972.24644  22011474.1174                   22011472.5004
   2402060.88746   1902786.39143  24461672.7504                   24461674.5784
   7106926.74646   5538764.88742  24774079.3364                   24774078.5124
  -4751375.82047  -3675087.19145  21335979.7194                   21335977.2274
  -6232800.60247  -4796747.54344  23098783.5864                   23098782.6954
   1222552.28147    970028.74646  20409186.2584                   20409183.6644
   5975066.11346   4662115.92643  23918555.4694                   23918555.4804
  -1398060.69547  -1130036.58245  21040182.8594                   21040179.1764
   5901455.14147   4603690.64845  21771753.9924                   21771751.4844
  -4623755.09846   -978139.69943  23810932.6174                   23810931.9494
  -3365109.94146  -1097360.83643  23900333.3444                   23900334.2624
 11  7 23 18 44  0.0000000  0 11G03G10G16G07G08G13G06G19G23G28G11
   4525166.50447   3509731.50044  22006775.7034                   22006774.4494
   2345080.43046   1858385.98043  24450830.5314                   24450831.4104
   7090704.47745   5526124.10942  24770992.1174                   24770991.7624
  -4905567.55147  -3795236.58245  21306638.2344                   21306635.3444
  -6410387.91047  -4935127.19944  23064990.1644                   23064989.1214
   1161277.96947    922282.49646  20397526.0394                   20397523.6524
   5960867.30946   4651051.95743  23915853.5474                   23915852.0514
  -1490122.97347  -1201773.43045  21022663.8364                   21022660.1524
   5890110.58647   4594850.64545  21769595.2894                   21769592.8674
  -4788043.57046  -1106156.59043  23779668.7424                   23779669.4384
  -3550081.29345  -1241494.23843  23865133.9614                   23865134.9774
 11  7 23 18 44 30.0000000  0 11G03G10G16G07G08G13G06G19G23G28G11
   4500789.00047   3490736.02344  22002136.3754                   22002135.3054
   2288266.61746   1814115.35243  24440019.5084                   24440020.1724
   7074290.94546   5513334.33242  24767869.5554                   24767869.5434
  -5059730.53547  -3915363.56645  21277301.6334                   21277299.6334
  -6588105.93046  -5073608.75844  23031171.5164                   23031170.1094
   1100465.36747    874896.01246  20385954.0784                   20385951.2854
   5946826.66446   4640111.17243  23913181.9064                   23913182.2424
  -1581675.20747  -1273112.83246  21005241.8984                   21005237.9384
   5879009.04747   4586200.00044  21767483.1564                   21767479.8204
  -4952225.69546  -1234090.61743  23748425.2114                   23748426.8524
  -3735135.82846  -1385692.46943  23829918.6174                   23829920.3524
 11  7 23 18 45  0.0000000  0 11G03G10G16G07G08G13G06G19G23G28G11
   4476722.60547   3471982.94144  21997557.0864                   21997556.0354
   2231616.10246   1769972.02043  24429239.0474                   24429239.5704
   7057684.63746   5500394.32443  24764710.6644                   24764710.5554
  -5213864.03547  -4035467.58245  21247971.5554                   21247968.8444
  -6765954.78547  -5212192.26644  22997327.5704                   22997326.9224
   1040111.91447    827867.30946  20374468.9224                   20374466.3524
   5932940.74246   4629290.89543  23910539.7734                   23910540.1134
  -1672718.43747  -1344055.61745  20987917.5004                   20987913.2734
   5868146.60247   4577735.64845  21765415.8834                   21765412.8484
  -5116302.86746  -1361942.83643  23717202.3364                   23717203.6214
  -3920271.69946  -1529954.05943  23794689.4384                   23794690.0514
 11  7 23 18 45 30.0000000  0 11G03G10G16G07G08G13G06G19G23G28G11
   4452961.59847   3453467.85545  21993035.1484                   21993033.5634
   2175123.53546   1725951.71143  24418487.9384                   24418489.6374
   7040881.68446   5487301.12943  24761512.4144                   24761513.4304
  -5367969.50447  -4155549.74645  21218646.3054                   21218643.1884
  -6943936.02046  -5350878.93044  22963459.1724                   22963458.0204
    980213.84448    781193.44946  20363070.7194                   20363067.7154
   5919204.25046   4618587.08643  23907925.2194                   23907925.8484
  -1763255.99647  -1414604.37546  20970688.6724                   20970684.8134
   5857518.15647   4569453.64844  21763393.5784                   21763390.4494
  -5280277.95746  -1489715.54343  23685999.6564                   23685998.8714
  -4105488.46146  -1674278.68743  23759444.0394                   23759444.6054
 11  7 23 18 46  0.0000000  0 11G03G10G16G07G08G13G06G19G23G28G11
   4429504.26247   3435189.39144  21988571.3594                   21988569.6334
   2118786.91446   1682052.94943  24407767.7114                   24407769.1254
   7023881.80945   5474054.41442  24758276.4384                   24758278.1054
  -5522044.71947  -4275608.34445  21189326.4454                   21189323.6994
  -7122048.27346  -5489667.63744  22929565.3284                   22929564.3364
    920770.98847    734874.31346  20351758.7664                   20351756.0744
   5905615.34846   4607998.33243  23905340.9694                   23905339.1374
  -1853287.73447  -1484758.96546  20953555.4384                   20953551.7704
   5847121.89847   4561352.57444  21761415.1094                   21761412.0864
  -5444150.19946  -1617408.09443  23654816.2034                   23654815.2814
  -4290782.77346  -1818663.74643  23724183.2274                   23724184.0204
 11  7 23 18 46 30.0000000  0 11G03G10G16G07G08G13G06G19G23G28G11
   4406344.62947   3417142.88744  21984164.3754                   21984162.0474
   2062600.13746   1638270.92643  24397076.6644                   24397077.8364
   7006681.895 5                  24755004.352
  -5676091.17647  -4395644.53945  21160012.6484                   21160010.0824
  -7300293.86747  -5628560.29744  22895646.4224                   22895645.2544
    861778.88747    688906.39846  20340532.9774                   20340530.9264
   5892168.59046   4597520.28543  23902781.1564                   23902779.7194
  -1942817.34047  -1554522.30145  20936519.7504                   20936514.9184
   5836951.96947   4553427.87544  21759480.0234                   21759476.2894
  -5607923.02746  -1745023.18443  23623651.1094                   23623650.9804
  -4476154.43046  -1963109.08643  23688908.4534                   23688908.5004
 11  7 23 18 47  0.0000000  0 11G03G10G16G07G08G13G06G19G23G28G11
   4383480.53147   3399326.68444  21979813.0634                   21979811.6724
   2006561.75446   1594604.53543  24386412.9454                   24386414.2034
   6989280.371 5                  24751693.234
  -5830106.65247  -4515656.57045  21130704.0634                   21130701.9774
  -7478670.97746  -5767555.39144  22861702.7584                   22861701.6134
    803236.72748    643289.09046  20329392.7894                   20329390.3754
   5878862.10546   4587151.56343  23900248.7274                   23900248.2774
  -2031844.41847  -1623894.05546  20919578.0004                   20919573.5664
   5827006.22747   4545677.83644  21757587.7344                   21757584.9964
  -5771596.18046  -1872560.67243  23592505.3674                   23592504.8634
  -4661600.16046  -2107612.16443  23653619.5554                   23653619.5634
 11  7 23 18 47 30.0000000  0 11G03G10G16G07G08G13G06G19G23G28G11
   4360911.72347   3381740.54744  21975518.7584                   21975517.5274
   1950671.05146   1551053.23043  24375775.9844                   24375778.4384
   6971679.789 5                  24748344.883
  -5984087.43047  -4635641.57846  21101402.6024                   21101400.1564
  -7657176.55547  -5906650.60244  22827733.8754                   22827732.9384
    745145.47348    598023.15646  20318338.6644                   20318336.2814
   5865695.55146   4576891.87943  23897744.0784                   23897743.1994
  -2120367.65647  -1692873.21146  20902732.3284                   20902728.0084
   5817284.53547   4538102.41045  21755738.0944                   21755734.6804
  -5935167.43446  -2000018.71943  23561378.0864                   23561377.9064
  -4847114.88346  -2252169.04742  23618316.6644                   23618316.2074
 11  7 23 18 48  0.0000000  0 11G03G10G16G07G08G13G06G19G23G28G11
   4338634.32847   3364381.50444  21971279.6094                   21971277.7194
   1894924.08646   1507613.99243  24365169.1804                   24365169.9384
   6953878.301 5                  24744956.695
  -6138033.04347  -4755599.18045  21072107.9774                   21072105.0864
  -7835810.75446  -6045846.07844  22793740.5004                   22793739.6604
    687503.14848    553107.01646  20307369.5944                   20307366.7974
   5852665.53146   4566738.57043  23895263.5004                   23895263.4534
  -2208388.45347  -1761460.84446  20885983.0474                   20885978.6524
   5807783.20347   4530698.68045  21753929.7664                   21753926.9344
  -6098637.35246  -2127397.81243  23530271.0394                   23530269.8834
  -5032696.41046  -2396777.90643  23583000.8204                   23583001.7934
 11  7 23 18 48 30.0000000  0 11G03G10G16G07G08G13G06G19G23G28G11
   4316649.89147   3347250.74644  21967096.3364                   21967094.3014
   1839322.75446   1464288.19142  24354588.0084                   24354589.3634
   6935879.301 5                  24741530.688
  -6291937.64847  -4875524.82446  21042820.7344                   21042818.1094
  -8014568.35946  -6185137.64544  22759723.9694                   22759722.9264
    630312.61347    508542.91846  20296486.7114                   20296484.0784
   5839773.62146   4556692.86743  23892811.0314                   23892810.0704
  -2295903.48447  -1829654.37546  20869328.8674                   20869324.9024
   5798503.77347   4523467.85245  21752164.4144                   21752161.6954
  -6262002.74246  -2254695.43442  23499182.7894                   23499182.4734
  -5218337.80146  -2541433.39542  23547674.6564                   23547674.8094
 11  7 23 18 49  0.0000000  0 11G03G10G16G07G08G13G06G19G23G28G11
   4294962.71547   3330351.59844  21962969.0864                   21962967.9184
   1783871.19546   1421079.08242  24344035.6724                   24344038.0004
   6917688.46515                  24738067.516
  -6445793.25847  -4995412.29745  21013542.9614                   21013540.5904
  -8193441.87546  -6324519.58244  22725686.1414                   22725684.0744
    573578.84847    464334.74245  20285690.6254                   20285688.0864
   5827023.94146   4546758.03943  23890385.1724                   23890383.7464
  -2382906.63747  -1897449.04345  20852772.9064                   20852769.0744
   5789450.32447   4516413.12545  21750441.6954                   21750438.1174
  -6425257.05146  -2381906.52043  23468116.5634                   23468117.0554
  -5404029.39546  -2686128.07443  23512339.1484                   23512338.4614
 11  7 23 18 49 30.0000000  0 10G03G10G07G08G13G06G19G23G28G11
   5848991.61747   4541283.18444  22258691.0864                   22258689.1294
   3303989.71946   2605587.00042  24633304.6484                   24633307.1374
  -5024171.57447  -3887655.14845  21284068.7974                   21284066.2384
  -6797002.75847  -5236385.14544  22991419.5944                   22991418.0314
   2092724.16048   1648084.30946  20574774.3984                   20574772.2704
   7389835.89146   5764533.52743  24187777.4144                   24187776.5234
   -893974.25047   -737241.99646  21136107.4454                   21136102.9024
   7356041.87147   5737133.71145  22048553.9064                   22048551.9694
  -5012973.63346  -1281425.89843  23736865.8134                   23736865.3444
  -4014340.63346  -1603253.60543  23776787.7344                   23776787.9104
 11  7 23 18 50  0.0000000  0 10G03G10G07G08G13G06G19G23G28G11
   5827894.69947   4524843.97744  22254677.1954                   22254675.2934
   3248834.71145   2562608.86342  24622809.7114                   24622811.8794
  -5177918.91447  -4007458.25045  21254811.3984                   21254809.0204
  -6976099.75447  -5375941.19944  22957338.7034                   22957336.7304
   2036905.62948   1604589.32446  20564152.6724                   20564149.8984
   7377368.39546   5754818.55543  24185404.8594                   24185404.2234
   -979950.32447   -804236.36346  21119747.3444                   21119742.6884
   7347437.36347   5730428.79745  22046916.4694                   22046914.3284
  -5176001.07846  -1408460.21143  23705842.3984                   23705841.9144
  -4200118.33246  -1748015.32443  23741435.1094                   23741436.3364
 11  7 23 18 50 30.0000000  0 10G03G10G07G08G13G06G19G23G28G11
   5807092.02047   4508634.05944  22250718.2504                   22250716.5234
   3193827.21945   2519745.79742  24612341.1564                   24612345.3244
  -5331606.35247  -4127214.68445  21225565.3674                   21225562.5984
  -7155303.74247  -5515580.60944  22923237.4454                   22923235.6994
   1981546.14548   1561452.01646  20553618.2664                   20553615.5984
   7365041.77046   5745213.34043  24183059.9454                   24183059.4614
  -1065410.46147   -870828.68046  21103484.2504                   21103480.8594
   7339056.74247   5723898.33645  22045321.3594                   22045319.3404
  -5338912.10546  -1535403.80143  23674840.9064                   23674841.1134
  -4385931.29746  -1892804.50843  23706075.9694                   23706076.5864
 11  7 23 18 51  0.0000000  0 10G03G10G07G08G13G06G19G23G28G11
   5786587.27047   4492656.29743  22246815.8834                   22246814.6884
   3138970.57446   2477000.34442  24601903.4144                   24601906.5594
  -5485226.26247  -4246918.49645  21196332.6884                   21196330.1374
  -7334607.06247  -5655297.44944  22889116.4694                   22889115.3984
   1926650.25048   1518675.95346  20543171.6414                   20543169.3364
   7352859.47346   5735720.62143  24180741.5084                   24180741.4884
  -1150349.48447   -937014.94946  21087320.9534                   21087317.3754
   7330903.63347   5717545.16844  22043770.6644                   22043767.5664
  -5501700.44146  -1662251.77743  23643862.7114                   23643863.2544
  -4571770.46546  -2037614.16443  23670712.0864                   23670712.4494
 11  7 23 18 51 30.0000000  0 10G03G10G07G08G13G06G19G23G28G11
   5766379.76247   4476910.15244  22242970.1024                   22242969.5984
   3084264.10246   2434371.84442  24591492.5474                   24591495.8094
  -5638774.91447  -4366566.76645  21167113.5084                   21167110.7934
  -7514007.20347  -5795089.72344  22854978.2974                   22854976.9694
   1872218.67648   1476261.69546  20532813.6024                   20532811.4964
   7340821.37546   5726340.34843  24178450.7664                   24178449.9694
  -1234766.03947  -1002794.07846  21071257.2034                   21071252.7154
   7322977.09047   5711368.53545  22042261.7584                   22042259.2894
  -5664364.88746  -1789003.24643  23612910.0864                   23612909.1214
  -4757630.68746  -2182440.19543  23635344.6484                   23635344.9844
 11  7 23 18 52  0.0000000  0 10G03G10G07G08G13G06G19G23G28G11
   5746465.15247   4461392.24244  22239181.6334                   22239179.8554
   3029703.86345   2391857.23842  24581111.6334                   24581113.7934
  -5792252.55948  -4486159.71946  21137907.8754                   21137904.9964
  -7693504.70747  -5934957.85944  22820820.2274                   22820819.3164
   1818248.31648   1434206.83246  20522543.6954                   20522541.6604
   7328923.17246   5717068.99243  24176186.7504                   24176185.5554
  -1318662.30547  -1068167.80945  21055291.9844                   21055287.4574
   7315273.14547   5705365.34444  22040796.4774                   22040793.9804
  -5826906.67246  -1915659.11743  23581978.6174                   23581978.4774
  -4943510.47746  -2327281.49643  23599972.4384                   23599972.0434
 11  7 23 18 52 30.0000000  0 10G03G10G07G08G13G06G19G23G28G11
   5726841.73047   4446101.20344  22235447.0554                   22235446.0824
   2975287.96945   2349455.18442  24570755.1414                   24570759.3634
  -5945656.32447  -4605695.09445  21108715.7424                   21108712.9184
  -7873097.22347  -6074900.04344  22786645.1174                   22786643.8874
   1764738.44548   1392510.78946  20512360.6094                   20512358.7734
   7317163.20346   5707905.36343  24173949.3134                   24173948.3914
  -1402038.57047  -1133136.32845  21039426.5084                   21039422.1914
   7307789.83247   5699534.09444  22039372.3914                   22039369.5594
  -5989325.59446  -2042219.20343  23551071.3914                   23551070.7774
  -5129406.10946  -2472135.10543  23564597.6414                   23564597.3914
 11  7 23 18 53  0.0000000  0 10G03G10G07G08G13G06G19G23G28G11
   5707506.55547   4431034.82843  22231767.5704                   22231765.4414
   2921013.94545   2307163.57042  24560427.6644                   24560432.7584
  -6098984.50847  -4725171.58645  21079538.3054                   21079535.6024
  -8052783.71147  -6214915.44544  22752451.8834                   22752450.0164
   1711688.07848   1351172.80546  20502265.9844                   20502263.8794
   7305539.35946   5698847.75443  24171736.7814                   24171737.2384
  -1484895.44947  -1197700.14546  21023659.3984                   21023655.2464
   7300524.50847   5693872.70744  22037989.3984                   22037986.7424
  -6151621.52346  -2168683.44943  23520187.9304                   23520185.9614
  -5315314.25446  -2616998.50043  23529219.9924                   23529220.6524
 11  7 23 18 53 30.0000000  0 10G03G10G07G08G13G06G19G23G28G11
   5688457.19146   4416191.10243  22228142.6954                   22228141.1484
   2866879.340 5                  24550125.867
  -6252235.22347  -4844587.71546  21050376.2194                   21050373.1254
  -8232563.06647  -6355003.22344  22718241.1414                   22718238.9264
   1659095.65248   1310191.64846  20492257.7194                   20492255.4884
   7294049.03146   5689894.29343  24169550.5784                   24169549.6524
  -1567233.78147  -1261859.89146  21007990.2034                   21007986.9304
   7293474.99247   5688379.47344  22036648.5634                   22036644.8754
  -6313794.48846  -2295051.88743  23489326.9454                   23489325.6604
  -5501231.88146  -2761869.26243  23493840.6954                   23493841.8954
 11  7 23 18 54  0.0000000  0 10G03G10G07G08G13G06G19G23G28G11
   5669695.51647   4401571.62544  22224572.1564                   22224569.9344
   2812885.879 5                  24539851.828
  -6405402.04347  -4963938.45745  21021229.0084                   21021226.5664
  -8412429.31247  -6495158.70744  22684013.1804                   22684011.5594
   1606964.71547   1269570.09445  20482337.9534                   20482335.3164
   7282695.04746   5681046.97343  24167390.6724                   24167389.1094
  -1649048.96947  -1325611.98845  20992421.8524                   20992417.0664
   7286643.52047   5683056.12544  22035348.9304                   22035345.1094
  -6475839.93446  -2421320.99243  23458490.2344                   23458489.9964
  -5687150.98446  -2906741.18443  23458461.2424                   23458462.1914
 11  7 23 18 54 30.0000000  0 10G03G10G07G08G13G06G19G23G28G11
   5651222.12147   4387176.73444  22221056.5084                   22221055.9774
   2759034.563 5                  24529603.625
  -6558479.97347  -5083219.95345  20992098.8204                   20992096.5274
  -8592378.09047  -6635378.50044  22649770.9224                   22649769.3364
   1555296.89848   1229309.42246  20472505.5864                   20472503.3054
   7271477.82045   5672306.19543  24165253.9304                   24165254.3524
  -1730339.03147  -1388954.90246  20976952.2734                   20976947.8794
   7280030.23047   5677902.79344  22034090.2584                   22034087.0434
  -6637754.91046  -2547488.41443  23427678.6724                   23427678.7504
  -5873065.24646  -3051609.38343  23423083.6414                   23423083.8404
 11  7 23 18 55  0.0000000  0 10G03G10G07G08G13G06G19G23G28G11
   5633033.93447   4373004.12144  22217595.4774                   22217594.6054
   2705322.469 5                  24519382.039
  -6711467.81247  -5202431.25045  20962986.6564                   20962983.6604
  -8772408.19147  -6775661.67244  22615511.9534                   22615509.4494
   1504090.19547   1189408.05546  20462761.1724                   20462758.9414
   7260394.94946   5663670.10943  24163145.5394                   24163145.8094
  -1811104.97347  -1451889.41846  20961583.7734                   20961579.3204
   7273632.30947   5672917.32044  22032872.4224                   22032870.0664
  -6799540.01647  -2673554.62143  23396893.1024                   23396891.7274
  -6058971.81646  -3196471.55543  23387706.2194                   23387707.6724
 11  7 23 18 55 30.0000000  0 10G03G10G07G08G13G06G19G23G28G11
   5615130.44147   4359053.30544  22214189.4924                   22214188.2624
   2651748.938 5                  24509189.094
  -6864361.84447  -5321569.44545  20933892.0474                   20933889.1604
  -8952516.85547  -6916006.05944  22581237.9614                   22581236.5044
   1453345.22348   1149866.46946  20453105.3134                   20453102.6804
   7249445.61746   5655138.13343  24161062.4534                   24161062.3204
  -1891346.38347  -1514415.18746  20946314.3364                   20946310.4654
   7267449.06347   5668099.10544  22031696.4304                   22031693.0944
  -6961193.57446  -2799518.33243  23366130.9774                   23366129.5434
  -6244865.85946  -3341323.96543  23352332.4534                   23352332.4414
 11  7 23 18 56  0.0000000  0 10G03G10G07G08G13G06G19G23G28G11
   5597509.24246   4345322.46143  22210835.3444                   22210834.2734
   2598311.613 6                  24499020.602
  -7017160.08647  -5440632.99645  20904815.6564                   20904812.7034
  -9132702.95747  -7056410.76644  22546949.8054                   22546949.0594
   1403060.43847   1110683.48046  20443536.3364                   20443534.1094
   7238627.89146   5646708.69943  24159003.0784                   24159003.6564
  -1971063.69147  -1576532.57446  20931144.2424                   20931140.4414
   7261478.07047   5663446.28544  22030560.0864                   22030557.2894
  -7122715.66446  -2925379.62543  23335394.2664                   23335393.3244
  -6430743.98046  -3486163.96143  23316961.0314                   23316960.8554
 11  7 23 18 56 30.0000000  0 10G03G10G07G08G13G06G19G23G28G11
   5580165.01647   4331807.52344  22207535.4534                   22207533.5044
   2545005.199 6                  24488875.766
  -7169862.80947  -5559622.12546  20875756.7584                   20875754.3094
  -9312966.70747  -7196875.97344  22512646.8204                   22512645.5514
   1353232.57447   1071856.53146  20434054.6804                   20434051.9804
   7227937.32045   5638378.31643  24156970.1024                   24156968.8674
  -2050259.77747  -1638243.81245  20916073.1024                   20916069.8204
   7255714.43847   5658955.00844  22029463.1884                   22029460.7424
  -7284108.52346  -3051140.19943  23304681.8204                   23304680.8834
  -6616604.94546  -3630990.57443  23281591.8524                   23281592.3834
 11  7 23 18 57  0.0000000  0 10G03G10G07G08G13G06G19G23G28G11
   7138516.80547   5546107.58243  22504080.0394                   22504078.3364
   4067250.430 6                  24778549.711
  -5747041.73847  -4450930.37546  21146510.8594                   21146508.1524
  -7917879.92246  -6109795.30944  22778123.1024                   22778121.4414
   2879282.46947   2260986.27746  20724451.8834                   20724449.8524
   8792792.90246   6857746.24243  24454751.7664                   24454751.2304
   -553511.85947   -471946.72746  21200895.2424                   21200891.1684
   8825577.28547   6882224.63744  22328198.5474                   22328195.7304
  -5869945.73046  -1949195.05943  23573788.0004                   23573787.6564
  -5227018.22346  -2548195.64543  23546021.8984                   23546021.5784
 11  7 23 18 57 30.0000000  0 10G03G10G07G08G13G06G19G23G28G11
   7121720.41447   5533019.48444  22500883.6884                   22500882.4534
   4014200.359 5                  24768454.242
  -5899546.26247  -4569765.06245  21117490.1564                   21117487.5084
  -8098293.93447  -6250377.61744  22743791.8444                   22743790.0394
   2830364.91047   2222868.66446  20715143.7424                   20715141.3094
   8782351.04346   6849609.73042  24452764.0474                   24452764.4184
   -631666.78947   -532846.67246  21186022.9144                   21186018.5824
   8820222.67647   6878052.10544  22327179.3594                   22327176.8244
  -6031078.88746  -2074753.26243  23543125.4844                   23543124.6684
  -5412833.91046  -2692987.02043  23510662.3674                   23510662.1844
 11  7 23 18 58  0.0000000  0 10G03G10G07G08G13G06G19G23G28G11
   7105192.80947   5520140.79344  22497738.8364                   22497737.7304
   3961272.824 5                  24758382.477
  -6051950.55147  -4688521.64846  21088488.9304                   21088485.5864
  -8278782.64547  -6391018.11344  22709445.3674                   22709444.2814
   2781898.67248   2185102.72746  20705920.5314                   20705918.3134
   8772028.53946   6841566.17243  24450801.2424                   24450800.5354
   -709304.15647   -593343.33646  21171249.2664                   21171245.1724
   8815067.17247   6874034.71944  22326197.7664                   22326195.9654
  -6192084.06246  -2200211.74643  23512487.2114                   23512485.8484
  -5598623.84446  -2837758.28943  23475307.7344                   23475307.0784
 11  7 23 18 58 30.0000000  0 10G03G10G07G08G13G06G19G23G28G11
   7088930.60246   5507468.94544  22494643.9144                   22494641.6174
   3908465.457 6                  24748333.430
  -6204252.66447  -4807198.62145  21059506.4844                   21059503.1254
  -8459344.68747  -6531715.76244  22675085.2814                   22675084.4614
   2733881.90648   2147687.03146  20696783.4454                   20696781.3284
   8761823.12946   6833613.87143  24448858.6564                   24448858.7464
   -786425.08647   -653437.57446  21156573.3984                   21156569.4574
   8810108.12947   6870170.41044  22325254.5234                   22325252.6214
  -6352961.46946  -2325570.66843  23481872.6174                   23481872.1054
  -5784384.46946  -2982506.76243  23439958.8284                   23439957.3554
 11  7 23 18 59  0.0000000  0 10G03G10G07G08G13G06G19G23G28G11
   7072929.84047   5495000.76244  22491599.0944                   22491598.5274
   3855773.977 6                  24738307.750
  -6356452.68447  -4925796.03545  21030544.1414                   21030540.9574
  -8639980.50447  -6672470.90244  22640711.3204                   22640710.0204
   2686311.48447   2110619.13346  20687730.7114                   20687728.8364
   8751730.63346   6825749.52043  24446937.2504                   24446938.7154
   -863032.10547   -713131.37146  21141995.9454                   21141991.7234
   8805340.84047   6866455.50444  22324347.7664                   22324345.3954
  -6513713.28546  -2450831.75043  23451282.1644                   23451281.5124
  -5970114.59046  -3127231.44543  23404614.6024                   23404614.4064
 11  7 23 18 59 30.0000000  0 10G03G10G07G08G13G06G19G23G28G11
   7057185.96547   5482732.79744  22488603.1024                   22488601.3014
   3803193.92646   3525168.16453  24728302.7424                   24728300.6374
  -6508550.32847  -5044313.68446  21001600.4844                   21001597.7934
  -8820690.45347  -6813283.83644  22606323.7114                   22606322.7114
   2639184.16847   2073896.50846  20678762.4144                   20678760.9224
   8741747.13746   6817970.15242  24445037.9144                   24445038.4964
   -939128.03147   -772426.88746  21127514.9924                   21127510.9964
   8800761.13347   6862886.77344  22323475.8364                   22323474.3014
  -6674341.17246  -2575996.23043  23420715.0164                   23420715.9844
  -6155812.57046  -3271931.07443  23369277.2194                   23369277.4024
 11  7 23 19  0  0.0000000  0 10G03G10G07G08G13G06G19G23G28G11
   7041692.93447   5470660.27344  22485654.6334                   22485654.0514
   3750719.39846   3484278.89142  24718315.8134                   24718317.6844
  -6660547.23848  -5162752.82446  20972675.8754                   20972673.9884
  -9001476.62147  -6954156.12544  22571921.5944                   22571920.0044
   2592494.84847   2037515.19146  20669877.9614                   20669875.9344
   8731866.57446   6810270.95743  24443158.1334                   24443157.5084
  -1014717.48447   -831327.77746  21113131.0394                   21113127.0204
   8796363.03947   6859459.55544  22322639.3134                   22322637.0124
  -6834849.10546  -2701067.25443  23390172.3284                   23390171.4304
  -6341478.90246  -3416606.07843  23333946.8594                   23333945.9384
 11  7 23 19  0 30.0000000  0 10G03G10G07G08G13G06G19G23G28G11
   7026448.66047   5458781.57444  22482753.7584                   22482753.0004
   3698348.56646   3443470.34042  24708350.4844                   24708352.9104
  -6812440.87947  -5281111.48845  20943772.1174                   20943769.4344
  -9182336.85247  -7095086.13744  22537504.8204                   22537503.2664
   2546242.53947   2001474.37946  20661076.7424                   20661074.8204
   8722087.70746   6802651.06343  24441296.9384                   24441296.9884
  -1089800.75047   -889834.22346  21098843.3674                   21098839.3834
   8792144.69147   6856172.42644  22321836.4534                   22321833.7544
  -6995236.50446  -2826044.32443  23359651.7194                   23359650.8364
  -6527109.52747  -3561253.21943  23298622.4924                   23298622.2934
 11  7 23 19  1  0.0000000  0 10G03G10G07G08G13G06G19G23G28G11
   7011455.32447   5447098.39144  22479900.7274                   22479900.1804
   3646083.12945   3402743.86342  24698404.8284                   24698408.5594
  -6964224.66447  -5399384.56246  20914888.9304                   20914885.6094
  -9363265.33247  -7236069.33644  22503075.1334                   22503073.6844
   2500430.06648   1965776.30946  20652359.0704                   20652356.5554
   8712412.75845   6795112.08643  24439455.6254                   24439455.5634
  -1164374.50847   -947943.64546  21084651.8284                   21084648.1644
   8788107.82047   6853026.66444  22321069.0704                   22321066.9104
  -7155498.66446  -2950923.87143  23329154.9774                   23329154.1334
  -6712696.65646  -3705866.49243  23263305.8594                   23263306.3984
 11  7 23 19  1 30.0000000  0 10G03G10G07G08G13G06G19G23G28G11
   6996710.69547   5435609.06344  22477094.9844                   22477094.2504
   3593921.52345   3362098.26242  24688478.9694                   24688483.4574
  -7115896.21947  -5517570.17645  20886026.1804                   20886023.6454
  -9544260.01647  -7377104.10544  22468633.2274                   22468631.4804
   2455056.31348   1930420.10245  20643724.8364                   20643722.5514
   8702840.05946   6787652.79742  24437634.1334                   24437634.3794
  -1238439.00047  -1005656.24645  21070558.0314                   21070554.1954
   8784250.67647   6850020.95344  22320335.3834                   22320333.1134
  -7315635.53146  -3075705.77743  23298681.5164                   23298680.1804
  -6898236.27346  -3850442.74243  23227998.9844                   23227998.8634
 11  7 23 19  2  0.0000000  0 10G03G10G07G08G13G06G19G23G28G11
   6982215.42646   5424313.98844  22474336.9064                   22474336.4734
   3541864.28145   3321534.06342  24678572.0634                   24678576.9924
  -7267450.10248  -5635664.10946  20857186.7344                   20857184.2114
  -9725316.17647  -7518186.76244  22434178.7034                   22434177.6884
   2410123.16847   1895407.21145  20635174.0554                   20635171.9224
   8693370.62545   6780273.96942  24435832.6094                   24435832.9964
  -1311992.10247  -1062970.35545  21056561.2974                   21056557.2934
   8780574.09047   6847155.96544  22319635.3984                   22319633.1054
  -7475643.83246  -3200387.50843  23268232.8444                   23268231.5124
  -7083721.81646  -3994976.83643  23192702.0944                   23192702.2074
 11  7 23 19  2 30.0000000  0 10G03G10G07G08G13G06G19G23G28G11
   6967966.19546   5413210.68044  22471625.3524                   22471624.4534
   3489907.80545   3281048.39142  24668686.1884                   24668690.5784
  -7418885.48047  -5753665.66845  20828369.1254                   20828367.0594
  -9906432.78547  -7659316.55944  22399714.0394                   22399711.8484
   2365627.62147   1860735.33246  20626707.0234                   20626704.9774
   8684001.39145   6772973.20743  24434049.0704                   24434050.3984
  -1385036.10547  -1119887.76245  21042661.7344                   21042657.8284
   8777074.25447   6844428.70344  22318969.6564                   22318967.3404
  -7635524.76246  -3324969.97743  23237808.4844                   23237807.8754
  -7269150.92646  -4139466.92243  23157415.5784                   23157416.0354
 11  7 23 19  3  0.0000000  0 10G03G10G07G08G13G06G19G23G28G11
   6953959.89146   5402296.65244  22468960.0554                   22468958.9344
   3438049.51246   3240639.24242  24658817.9064                   24658822.0234
  -7570200.53947  -5871573.50046  20799575.6174                   20799572.2934
 -10087609.14847  -7800492.88744  22365236.8834                   22365235.6484
   2321567.98847   1826403.10245  20618323.2194                   20618321.1484
   8674729.85545   6765748.57443  24432285.2424                   24432285.7194
  -1457572.24647  -1176409.43446  21028858.3444                   21028854.7544
   8773748.37147   6841836.97744  22318336.6724                   22318334.8204
  -7795278.91846  -3449453.64843  23207408.1254                   23207407.4414
  -7454520.33646  -4283910.49243  23122140.7424                   23122141.9184
 11  7 23 19  3 30.0000000  0 10G03G10G07G08G13G06G19G23G28G11
   6940199.17246   5391573.98044  22466341.8134                   22466340.6374
   3386292.05146   3200308.71542  24648968.7814                   24648972.3914
  -7721387.94547  -5989381.86346  20770804.6024                   20770802.5864
 -10268838.32047  -7941710.37544  22330750.6254                   22330748.6484
   2277947.83247   1792413.32046  20610022.5864                   20610020.4104
   8665558.77045   6758602.24643  24430540.5394                   24430541.0704
  -1529596.48447  -1232532.21945  21015152.5704                   21015149.1724
   8770599.29347   6839383.01244  22317737.3914                   22317735.0664
  -7954900.83646  -3573834.28943  23177032.7664                   23177032.8054
  -7639821.93046  -4428301.23443  23086879.2344                   23086879.8524
 11  7 23 19  4  0.0000000  0 10G03G10G07G08G13G06G19G23G28G11
   8502098.54746   6608638.41844  22763560.7584                   22763559.6454
   4910050.68846   4387652.91442  24938930.7274                   24938933.6804
  -6297024.62947  -4879488.34846  21041852.6484                   21041849.5124
  -8874696.59847  -6855366.15644  22596046.2114                   22596044.6214
   3810182.77347   2986362.57046  20901596.8444                   20901594.6724
  10231902.93046   7979130.15243  24728605.6724                   24728605.8794
    -25691.15647    -60657.93745  21301336.2194                   21301332.0784
  10343040.43447   8064661.69144  22616963.5704                   22616960.7074
  -6538969.49646  -2470511.08243  23446476.6414                   23446475.3014
  -6249629.68446  -3345034.48043  23351423.8984                   23351424.2274
 11  7 23 19  4 30.0000000  0 10G03G10G07G08G13G06G19G23G28G11
   8488820.14846   6598291.57043  22761033.5704                   22761033.6804
   4858485.23846   4347471.97342  24929118.5554                   24929121.2344
  -6447952.68747  -4997094.60946  21013131.5634                   21013128.4654
  -9056028.15247  -6996663.42644  22561539.9774                   22561538.4224
   3767434.33248   2953052.05546  20893462.3054                   20893459.8204
  10222925.02045   7972134.35243  24726897.3284                   24726897.3754
    -96696.55147   -115986.82045  21287824.2584                   21287819.7934
  10340235.03147   8062475.53544  22616429.4534                   22616427.6134
  -6698329.91046  -2594687.96543  23416150.8054                   23416150.2114
  -6434786.98446  -3489312.78543  23316189.2814                   23316189.5004
 11  7 23 19  5  0.0000000  0 10G03G10G07G08G13G06G19G23G28G11
   8475786.87546   6588135.74243  22758553.6484                   22758552.5314
   4807020.12146   4307369.10542  24919324.4454                   24919328.6914
  -6598740.08248  -5114591.27746  20984438.0784                   20984434.8404
  -9237400.85247  -7137992.76644  22527026.1024                   22527024.8754
   3725127.35947   2920085.54345  20885411.6094                   20885409.1994
  10214048.35946   7965217.39543  24725208.7114                   24725208.3204
   -167186.43447   -170914.00045  21274410.6254                   21274406.7424
  10337606.09047   8060426.85544  22615929.5474                   22615927.2074
  -6857551.81646  -2718756.94143  23385851.8984                   23385851.2424
  -6619859.08246  -3633524.71543  23280971.7114                   23280971.3484
 11  7 23 19  5 30.0000000  0 10G03G10G07G08G13G06G19G23G28G11
   8463005.25046   6578176.00443  22756121.3914                   22756120.9184
   4755662.39545   4267349.98042  24909552.0004                   24909556.1524
  -6749375.34047  -5231969.38746  20955772.4844                   20955770.1604
  -9418803.58647  -7279345.50444  22492506.2344                   22492504.8674
   3683269.35948   2887468.88345  20877446.3054                   20877443.8484
  10205280.12946   7958384.97343  24723539.4064                   24723540.0004
   -237152.51647   -225433.03145  21261096.0554                   21261092.5394
  10335160.07047   8058520.76644  22615463.4064                   22615461.6374
  -7016626.03947  -2842710.83643  23355581.1334                   23355579.9774
  -6804833.02046  -3777660.14143  23245772.5704                   23245772.4224
 11  7 23 19  6  0.0000000  0 10G03G10G07G08G13G06G19G23G28G11
   8450465.84446   6568404.98043  22753735.4384                   22753735.1254
   4704402.35545   4227406.94542  24899797.0554                   24899801.1764
  -6899863.28148  -5349232.70745  20927135.9064                   20927132.9494
  -9600241.37947  -7420725.55944  22457979.5864                   22457977.8324
   3641851.57447   2855195.23446  20869564.7274                   20869562.4964
  10196611.45346   7951630.05543  24721890.8594                   24721890.3954
   -306603.08647   -279550.37545  21247880.8134                   21247876.7344
  10332887.41047   8056749.71144  22615031.7814                   22615030.4384
  -7175559.67247  -2966555.16043  23325336.7114                   23325336.1174
  -6989712.85246  -3921722.24643  23210591.0394                   23210591.2624
 11  7 23 19  6 30.0000000  0 10G03G10G07G08G13G06G19G23G28G11
   8438169.89146   6558823.68843  22751395.6414                   22751395.1414
   4653241.47345   4187541.19942  24890062.2194                   24890066.0594
  -7050198.39847  -5466376.93746  20898528.2194                   20898525.4884
  -9781708.96547  -7562128.84444  22423447.4774                   22423445.3404
   3600876.17247   2823266.30945  20861767.1254                   20861765.1134
  10188043.75846   7944953.89843  24720260.0394                   24720259.7344
   -375535.57847   -333263.99645  21234762.9844                   21234758.8594
  10330789.48047   8055114.79344  22614632.6724                   22614630.4774
  -7334349.06246  -3090287.07044  23295119.6334                   23295119.4614
  -7174491.18746  -4065705.27344  23175428.5784                   23175428.7424
 11  7 23 19  7  0.0000000  0 10G03G10G07G08G13G06G19G23G28G11
   8426116.57846   6549431.49243  22749101.6884                   22749100.8204
   4602178.715 5                  24880345.484
  -7200376.67247  -5583398.97346  20869950.2344                   20869947.4024
  -9963203.39147  -7703553.05144  22388910.4614                   22388908.1994
   3560342.73847   2791681.76245  20854054.7114                   20854051.6914
  10179576.46946   7938355.98843  24718648.8594                   24718648.7424
   -443949.59047   -386573.62545  21221744.0634                   21221740.0634
  10328865.25847   8053615.23044  22614266.5864                   22614264.2464
  -7492992.76246  -3213905.48444  23264931.5004                   23264929.8484
  -7359163.09447  -4209605.35544  23140286.2894                   23140286.5354
 11  7 23 19  7 30.0000000  0 10G03G10G07G08G13G06G19G23G28G11
   8414302.59146   6540225.72543  22746853.9694                   22746853.3284
   4551210.746 5                  24870645.742
  -7350396.42647  -5700297.45746  20841402.2894                   20841399.8014
 -10144723.73847  -7844997.44144  22354367.5554                   22354366.6294
   3520248.75447   2760439.66845  20846424.5554                   20846422.1054
  10171206.96146   7931834.24643  24717056.5164                   24717055.5554
   -511847.39847   -439480.99645  21208823.8834                   21208819.4574
  10327111.53947   8052248.55544  22613933.3134                   22613931.0514
  -7651491.86347  -3337411.22344  23234769.7274                   23234768.2894
  -7543725.71546  -4353420.28543  23105165.2114                   23105164.6134
 11  7 23 19  8  0.0000000  0 10G03G10G07G08G13G06G19G23G28G11
   8402722.87946   6531202.54343  22744650.7734                   22744649.5234
   4500332.633 5                  24860965.180
  -7500258.94947  -5817073.45746  20812884.7194                   20812881.5434
 -10326270.39847  -7986462.33644  22319820.7584                   22319819.0704
   3480590.07847   2729536.76245  20838877.7974                   20838875.3834
  10162930.39546   7925384.97743  24715481.6094                   24715480.2624
   -579232.58647   -491988.94145  21196001.1884                   21195996.8754
  10325523.32447   8051010.83644  22613630.2194                   22613628.8914
  -7809849.12146  -3460806.40644  23204635.4534                   23204634.2424
  -7728178.18046  -4497149.39544  23070064.8674                   23070064.1954
 11  7 23 19  8 30.0000000  0 10G03G10G07G08G13G06G19G23G28G11
   8391370.84846   6522356.77743  22742490.6174                   22742489.2974
   4449537.957 5                  24851299.563
  -7649965.91447  -5933728.21946  20784396.1884                   20784393.6484
 -10507845.72747  -8127949.59444  22285268.3524                   22285266.8054
   3441360.84847   2698968.49245  20831412.5084                   20831409.6804
  10154740.71146   7919003.38743  24713922.8914                   24713921.7584
   -646110.47347   -544101.58645  21183274.5554                   21183270.5044
  10324094.12547   8049897.03944  22613359.0314                   22613356.9064
  -7968068.49646  -3584094.17244  23174526.4844                   23174526.2544
  -7912521.29746  -4640793.28544  23034985.8204                   23034985.5514
 11  7 23 19  9  0.0000000  0 10G03G10G07G08G13G06G19G23G28G11
   8380243.59846   6513686.18043  22740373.2664                   22740372.2424
   4398824.059 5                  24841647.734
  -7799515.32048  -6050260.23446  20755938.3444                   20755934.3914
 -10689448.68447  -8269458.35544  22250709.9534                   22250708.1644
   3402558.73047   2668733.02745  20824028.9614                   20824026.7814
  10146635.33246   7912687.50843  24712380.6024                   24712379.9344
   -712482.97347   -595820.41045  21170644.5474                   21170639.6524
  10322820.71946   8048904.59444  22613117.2114                   22613114.9304
  -8126150.57847  -3707274.96944  23144444.9384                   23144443.8524
  -8096751.99646  -4784349.58643  22999927.4534                   22999927.4694
 11  7 23 19  9 30.0000000  0 10G03G10G07G08G13G06G19G23G28G11
   8369337.27046   6505187.72343  22738297.7814                   22738296.6134
   4348187.25415                  24832010.969
  -7948905.98047  -6166668.53146  20727509.6804                   20727506.9844
 -10871078.13747  -8410987.78144  22216148.0084                   22216145.6054
   3364180.96947   2638828.23045  20816725.5784                   20816723.4454
  10138611.48845   7906435.08242  24710853.3834                   24710854.3204
   -778352.10947   -647147.00445  21158110.0474                   21158105.6994
  10321699.93047   8048031.10544  22612903.8204                   22612901.6524
  -8284096.80946  -3830349.88344  23114389.2034                   23114387.6564
  -8280867.68046  -4927816.24644  22964891.3754                   22964892.5234
 11  7 23 19 10  0.0000000  0  9G03G07G08G13G06G19G23G28G11
   8358653.05546   6496862.28543  22736263.7504                   22736263.3714
  -8098132.44947  -6282948.90246  20699111.9924                   20699110.0984
 -11052729.30547  -8552534.12944  22181580.3984                   22181578.4804
   3326229.09848   2609255.30145  20809504.0084                   20809502.0474
  10130670.34845   7900247.09042  24709343.0864                   24709343.2894
   -843716.05147   -698079.94545  21145671.5474                   21145667.2344
  10320732.26647   8047276.96144  22612719.8054                   22612717.9804
  -8441903.91846  -3953316.40643  23084358.7974                   23084358.4104
  -8464861.71146  -5071188.13343  22929879.4384                   22929878.9414
 11  7 23 19 10 30.0000000  0  9G03G07G08G13G06G19G23G28G11
   8348190.99246   6488709.99643  22734273.7894                   22734272.7814
  -8247190.44947  -6399097.97746  20670748.2894                   20670744.6564
 -11234397.45347  -8694093.69144  22147009.7194                   22147007.9144
   3288703.59447   2580014.60545  20802363.1804                   20802361.1724
  10122812.25445   7894123.83642  24707847.4694                   24707847.4774
   -908573.77047   -748618.41445  21133329.0784                   21133325.1724
  10319917.94946   8046642.26244  22612564.8754                   22612562.2894
  -8599569.43746  -4076172.59843  23054355.7504                   23054354.7854
  -8648728.32046  -5214460.73443  22894889.9694                   22894889.7304
 11  7 23 19 11  0.0000000  0  9G03G07G08G13G06G19G23G28G11
   8337953.44147   6480732.66043  22732326.1724                   22732324.7704
  -8396072.68447  -6515110.10946  20642416.5704                   20642413.9224
 -11416076.75047  -8835661.93045  22112437.5004                   22112435.7464
   3251607.56347   2551108.56645  20795304.2274                   20795301.5474
  10115039.91046   7891463.49252  24706367.4844                   24706368.2114
   -972921.85947   -798759.79345  21121084.5164                   21121079.8984
  10319259.23446   8046128.81644  22612439.0164                   22612437.4844
  -8757088.96546  -4198915.05143  23024381.0864                   23024379.6524
  -8832458.77346  -5357627.25843  22859927.4144                   22859926.2114
 11  7 23 19 11 30.0000000  0  9G03G07G08G13G06G19G23G28G11
   9903363.43446   7700532.59843  23030212.8284                   23030212.2384
  -6969346.84847  -5403375.68746  20913913.1174                   20913910.2464
 -10022333.55547  -7749628.23844  22377657.5704                   22377656.4804
   4790365.37947   3750140.59445  21088119.5314                   21088117.6954
  11682776.87946   9113076.66442  25004698.5164                   25004698.6564
    538665.85947    379100.75845  21408730.2894                   21408726.1764
  11894178.75046   9273338.68043  22912136.8134                   22912133.5904
  -7339032.12546  -3093935.61744  23294229.0474                   23294227.1844
  -7440618.57046  -4273076.36743  23124785.5394                   23124784.0554
 11  7 23 19 12  0.0000000  0  8G03G07G08G13G19G23G28G11
   9893583.43046   7692911.82043  23028350.9774                   23028350.1564
  -7117854.93447  -5519096.27046  20885653.9694                   20885651.1764
 -10204012.43447  -7891196.16044  22343085.9694                   22343083.8754
   4754138.59447   3721911.87145  21081226.0474                   21081224.1804
    475349.53547    329763.36745  21396681.3594                   21396677.2074
  11893839.92246   9273074.52043  22912072.3834                   22912069.7274
  -7496243.58646  -3216437.99243  23264312.3134                   23264311.0864
  -7624050.76246  -4416010.45343  23089879.6484                   23089878.1644
 11  7 23 19 12 30.0000000  0  8G03G07G08G13G19G23G28G11
   9884035.44946   7685471.80543  23026534.5864                   23026533.8284
  -7266165.68447  -5634663.09446  20857430.8754                   20857428.2664
 -10385681.73047  -8032756.62144  22308514.8054                   22308513.4104
   4718350.38747   3694024.89845  21074415.6024                   21074413.8914
    412553.57047    280831.44945  21384731.8754                   21384727.4534
  11893664.23846   9272937.43443  22912037.7114                   22912036.4494
  -7653294.60946  -3338815.34044  23234426.0554                   23234425.3094
  -7807321.84846  -4558818.98443  23055004.0944                   23055003.9264
 11  7 23 19 13  0.0000000  0  8G03G07G08G13G19G23G28G11
   9874721.99246   7678214.50043  23024763.4614                   23024762.8914
  -7414272.07047  -5750070.65246  20829247.1564                   20829244.2304
 -10567334.47347  -8174304.18445  22273947.6804                   22273945.7424
   4683003.85947   3666482.11745  21067689.3594                   21067687.6214
    350281.59847    232307.83245  21372881.1564                   21372877.4734
  11893654.21546   9272929.46144  22912037.9924                   22912035.6414
  -7810180.58246  -3461064.07443  23204571.6884                   23204570.5784
  -7990423.27746  -4701495.34843  23020160.9224                   23020161.0664
 11  7 23 19 13 30.0000000  0  8G03G07G08G13G19G23G28G11
   9865645.64847   7671142.01643  23023037.0784                   23023034.6094
  -7562166.98047  -5865313.43446  20801103.3914                   20801100.8634
 -10748963.79747  -8315833.48845  22239384.6884                   22239383.4924
   4648102.46547   3639286.17645  21061048.1804                   21061045.9344
    288537.25047    184195.35945  21361131.9304                   21361127.8714
  11893812.30546   9273052.50044  22912067.3284                   22912066.0434
  -7966896.16846  -3583180.07843  23174749.8984                   23174748.2194
  -8173346.50446  -4844032.87943  22985350.6644                   22985351.4734
 11  7 23 19 14  0.0000000  0  8G03G07G08G13G19G23G28G11
   9856804.02746   7664252.39143  23021352.3364                   23021353.0164
  -7709847.60247  -5980389.23046  20773001.3674                   20772998.3954
 -10930567.24647  -8457342.64144  22204827.3984                   22204824.8674
   4613644.11347   3612435.47745  21054491.0704                   21054489.4534
    227319.13347    136492.92645  21349482.9224                   21349479.0234
  11894136.44946   9273304.88344  22912128.8674                   22912128.2114
  -8123441.37546  -3705163.28943  23144960.4224                   23144958.9734
  -8356087.53946  -4986428.40243  22950577.0784                   22950576.6914
 11  7 23 19 14 30.0000000  0  8G03G07G08G13G19G23G28G11
   9848193.29346   7657542.67243  23019714.6414                   23019713.1374
  -7857313.63747  -6095297.82446  20744938.8984                   20744936.2854
 -11112144.79747  -8598831.60944  22170273.2344                   22170272.3914
   4579625.07847   3585927.09445  21048017.6174                   21048015.8364
    166624.12947     89198.12945  21337932.8754                   21337928.7154
  11894622.32047   9273683.34044  22912221.9534                   22912220.5434
  -8279818.33646  -3827015.40643  23115202.4924                   23115201.4844
  -8538644.79746  -5128680.74243  22915837.6094                   22915837.0004
 11  7 23 19 15  0.0000000  0  8G03G07G08G13G19G23G28G11
   9839805.53946   7651006.78943  23018119.1334                   23018118.0704
  -8004568.03947  -6210041.51246  20716917.3834                   20716914.5274
 -11293699.78547  -8740303.00444  22135724.6094                   22135723.5944
   4546038.37947   3559755.59845  21041626.2504                   21041624.3754
    106445.93047     42306.03145  21326481.2194                   21326477.2344
  11895262.25046   9274181.78944  22912343.9534                   22912342.1174
  -8436032.59046  -3948740.72344  23085475.8674                   23085474.4144
  -8721020.21946  -5270791.42243  22881133.3444                   22881132.2424
 11  7 23 19 15 30.0000000  0  8G03G07G08G13G19G23G28G11
   9831635.90646   7644640.78143  23016563.8284                   23016564.0824
  -8151610.95747  -6324620.38746  20688936.3054                   20688933.5274
 -11475232.60247  -8881757.07844  22101180.0004                   22101178.5554
   4512879.48447   3533917.44945  21035316.2734                   21035315.0314
     46780.17647     -4186.78145  21315127.8204                   21315123.4804
  11896051.11746   9274796.31344  22912494.3054                   22912492.6524
  -8592086.68047  -4070341.25844  23055779.7584                   23055778.7234
  -8903212.70746  -5412759.53143  22846462.2424                   22846462.1764
 11  7 23 19 16  0.0000000  0  8G03G07G08G13G19G23G28G11
   9823677.97746   7638439.78543  23015049.8134                   23015048.7734
  -8298444.62547  -6439036.21146  20660994.7504                   20660992.4224
 -11656745.97747  -9023196.06244  22066639.2194                   22066636.7234
   4480142.22347   3508407.83245  21029086.8054                   21029085.2424
    -12379.20747    -50285.00445  21303869.6484                   21303865.8134
  11896982.23846   9275521.70744  22912671.0474                   22912669.9694
  -8747985.06646  -4191820.48444  23026113.2664                   23026111.4264
  -9085222.91047  -5554585.60543  22811826.8674                   22811826.8594
 11  7 23 19 16 30.0000000  0  8G03G07G08G13G19G23G28G11
   9815925.70746   7632399.04343  23013575.1174                   23013573.2074
  -8445069.82447  -6553289.59846  20633092.3594                   20633089.8484
 -11838240.30947  -9164620.21144  22032102.1644                   22032100.3484
   4447821.44547   3483222.75845  21022936.0004                   21022934.4264
    -71036.43447    -95991.93045  21292707.5634                   21292703.2074
  11898050.14146   9276353.65244  22912874.7424                   22912873.4454
  -8903730.79347  -4313180.73844  22996475.8834                   22996474.4344
  -9267050.35547  -5696269.22744  22777227.6564                   22777226.3954
 11  7 23 19 17  0.0000000  0  8G03G07G08G13G19G23G28G11
   9808374.64146   7626515.10243  23012138.0944                   23012135.9964
  -8591486.75447  -6667380.69946  20605230.3524                   20605227.6684
 -12019716.55947  -9306030.23844  21997568.7034                   21997566.4574
   4415912.73447   3458358.78945  21016863.9224                   21016862.3874
   -129195.65647   -141310.81245  21281640.0314                   21281636.4184
  11899250.23846   9277288.61744  22913102.1884                   22913102.0314
  -9059326.55147  -4434424.12544  22966867.1644                   22966864.9804
  -9448694.14147  -5837809.75844  22742661.3364                   22742660.7114
 11  7 23 19 17 30.0000000  0  8G03G07G08G13G19G23G28G11
   9801019.42646   7620783.70743  23010738.8984                   23010737.5124
  -8737695.86747  -6781309.85946  20577407.8284                   20577405.3954
 -12201175.20747  -9447426.56244  21963037.5784                   21963035.8914
   4384411.42647   3433812.26645  21010869.5394                   21010867.6884
   -186861.24647   -186245.03545  21270666.7344                   21270662.7854
  11900577.09846   9278322.34443  22913355.8674                   22913354.8674
  -9214775.49247  -4555553.13744  22937285.5234                   22937284.2814
  -9630153.52046  -5979206.59044  22708130.3204                   22708129.7624
 11  7 23 19 18  0.0000000  0  9G03G24G07G08G13G19G23G28G11
   9793856.50846   7615202.17243  23009374.9454                   23009374.1764
  13944625.78955  10906938.56652  24232047.7424                   24232054.7114
  -8883696.12547  -6895076.28946  20549624.6884                   20549622.1374
 -12382615.76647  -9588808.78944  21928510.8754                   21928509.2304
   4353314.14147   3409580.56645  21004952.2974                   21004950.3914
   -244036.00047   -230796.79745  21259786.2504                   21259782.6094
  11902026.52746   9279451.58243  22913632.0314                   22913630.1644
  -9370078.92647  -4676568.74244  22907732.8834                   22907730.8444
  -9811426.26646  -6120457.99644  22673635.1174                   22673634.6024
 11  7 23 19 18 30.0000000  0  9G03G24G07G08G13G19G23G28G11
  11362295.05546   8837362.06343  23307839.2974                   23307837.2234
  15335041.79345  11990379.89842  24496635.6804                   24496642.3594
  -7454069.04747  -5781081.13746  20821673.9304                   20821671.0744
 -10988618.79347  -8502577.34444  22193779.7734                   22193778.1134
   5898031.35247   4613256.26645  21298901.7814                   21298900.4924
   1274691.39147    952627.14545  21548791.1174                   21548786.6134
  13479007.59046  10508267.76243  23213720.9064                   23213720.0234
  -7949821.06647  -3569874.26244  23177998.8054                   23177997.4454
  -8417091.50046  -5033963.27744  22938967.7974                   22938967.8204
 11  7 23 19 19  0.0000000  0  9G03G24G07G08G13G19G23G28G11
  11355484.29346   8832054.95343  23306542.9144                   23306541.9224
  15149920.96946  11846130.08642  24461408.1334                   24461414.9694
  -7599670.24247  -5894536.61346  20793966.6564                   20793964.0554
 -11170042.21947  -8643946.24244  22159255.7974                   22159253.6724
   5867710.42648   4589629.51645  21293132.2894                   21293130.6334
   1218467.77047    908816.52045  21538092.1174                   21538088.1094
  13480670.27346  10509563.14543  23214037.7974                   23214037.0944
  -8104859.87947  -3690683.68744  23148496.1174                   23148494.7344
  -8598005.43046  -5174935.08644  22904541.0864                   22904541.2114
 11  7 23 19 19 30.0000000  0  9G03G24G07G08G13G19G23G28G11
  11348843.25446   8826880.09843  23305278.8134                   23305278.6454
  14964693.69546  11701797.39142  24426161.1414                   24426166.8594
  -7745071.11347  -6007835.96946  20766297.8834                   20766295.5314
 -11351456.66447  -8785308.11344  22124733.9534                   22124732.2544
   5837771.83647   4566300.69945  21287435.4534                   21287433.2424
   1162714.66047    865372.53945  21527482.2734                   21527478.2734
  13482433.54346  10510936.91843  23214373.5944                   23214372.6684
  -8259769.41447  -3811392.35944  23119017.7734                   23119015.3794
  -8778737.68047  -5315765.33244  22870149.0394                   22870148.2234
 11  7 23 19 20  0.0000000  0  9G03G24G07G08G13G19G23G28G11
  11342364.98846   8821832.01643  23304046.5234                   23304046.2934
  14779358.81346  11557380.81642  24390891.9844                   24390897.7034
  -7890273.69947  -6120980.84046  20738666.5944                   20738664.3134
 -11532864.52047  -8926664.86744  22090213.0314                   22090211.3164
   5808209.02347   4543264.68845  21281809.5704                   21281807.3164
   1107426.11347    822290.53545  21516961.6094                   21516957.1844
  13484289.96946  10512383.31343  23214726.8984                   23214725.4734
  -8414553.96547  -3932003.66444  23089562.4454                   23089560.9884
  -8959289.14147  -5456454.67644  22835791.6024                   22835790.6804
 11  7 23 19 20 30.0000000  0  9G03G24G07G08G13G19G23G28G11
  11336048.31346   8816909.90643  23302844.5394                   23302843.9654
  14593920.91446  11412884.00043  24355604.6094                   24355609.9344
  -8035274.95747  -6233968.82046  20711074.1414                   20711070.9844
 -11714262.53147  -9068013.95345  22055694.2664                   22055692.8754
   5779021.12547   4520520.83245  21276255.6804                   21276253.2274
   1052601.55947    779570.09845  21506528.6094                   21506524.7814
  13486238.28547  10513901.32844  23215098.2114                   23215096.7034
  -8569212.99247  -4052517.11344  23060132.2344                   23060130.1764
  -9139655.09446  -5596999.50444  22801467.9924                   22801468.0164
 11  7 23 19 21  0.0000000  0  9G03G24G07G08G13G19G23G28G11
  11329889.82846   8812111.00843  23301672.7194                   23301672.5314
  14408381.85246  11268308.36342  24320297.0944                   24320303.4734
  -8180073.60547  -6346798.92246  20683519.5944                   20683516.5554
 -11895650.07847  -9209354.85944  22021177.5554                   22021175.9304
   5750204.77747   4498066.48445  21270771.7424                   21270770.1604
    998238.07047    737208.93445  21496183.5944                   21496179.4734
  13488275.10246  10515488.24644  23215485.5004                   23215485.0594
  -8723747.75447  -4172933.74244  23030725.1254                   23030724.1684
  -9319833.12946  -5737397.89144  22767181.5784                   22767180.8204
 11  7 23 19 21 30.0000000  0  9G03G24G07G08G13G19G23G28G11
  11323885.59446   8807432.38743  23300529.9614                   23300529.8364
  14222743.05146  11123654.96143  24284971.5084                   24284977.2234
  -8324669.05947  -6459470.70746  20656004.2814                   20656001.3914
 -12077026.33647  -9350686.97745  21986662.5864                   21986661.3014
   5721756.29747   4475898.76645  21265358.3444                   21265356.7274
    944332.02047    695204.19945  21485925.6954                   21485921.5274
  13490396.20346  10517140.85244  23215890.1174                   23215888.2274
  -8878160.43447  -4293255.24244  23001341.2344                   23001340.0704
  -9499821.75847  -5877648.67644  22732931.5784                   22732930.4844
 11  7 23 19 22  0.0000000  0  9G03G24G07G08G13G19G23G28G11
  11318034.02046   8802872.64543  23299416.4924                   23299415.6804
  14037008.96146  10978927.29742  24249626.9224                   24249633.2854
  -8469057.90647  -6571981.50046  20628527.8524                   20628524.8404
 -12258388.53147  -9492008.14544  21952150.0004                   21952148.5354
   5693674.52747   4454016.81345  21260014.5704                   21260012.7704
    890882.66847    653555.33645  21475754.8204                   21475750.6604
  13492600.33646  10518858.15643  23216309.6414                   23216308.1294
  -9032449.80547  -4413480.68444  22971980.8754                   22971979.1994
  -9679615.96547  -6017747.97344  22698716.9924                   22698716.4264
 11  7 23 19 22 30.0000000  0  9G03G24G07G08G13G19G23G28G11
  11312331.86746   8798429.35543  23298331.9224                   23298330.7894
  13851181.82846  10834127.20742  24214265.5944                   24214271.5634
  -8613238.82847  -6684330.27046  20601091.1954                   20601088.4344
 -12439735.65647  -9633317.55545  21917641.3284                   21917639.3714
   5665956.24247   4432418.09845  21254739.6334                   21254738.2234
    837887.67647    612260.52345  21465669.9304                   21465666.2074
  13494883.86346  10520637.30943  23216744.5784                   23216743.4064
  -9186617.14146  -4533611.02744  22942643.4774                   22942643.0124
  -9859213.37546  -6157693.92244  22664541.3284                   22664539.9414
 11  7 23 19 23  0.0000000  0  9G03G24G07G08G13G19G23G28G11
  11306777.94546   8794101.58243  23297274.3364                   23297274.1484
  13665265.93846  10689257.93042  24178886.7344                   24178892.3244
  -8757208.75047  -6796514.62146  20573694.5554                   20573691.6054
 -12621064.35947  -9774612.64545  21883135.6174                   21883133.3484
   5638600.32447   4411101.75445  21249534.4064                   21249532.9104
    785346.11347    571319.03545  21455671.5864                   21455667.6054
  13497245.07846  10522476.98443  23217193.7584                   23217192.4384
  -9340661.91447  -4653645.84844  22913330.0314                   22913329.1334
 -10038609.91846  -6297483.36744  22630402.8204                   22630401.7274
 11  7 23 19 23 30.0000000  0  9G03G24G07G08G13G19G23G28G11
  11301367.32046   8789885.50043  23296244.8524                   23296244.0594
  13479262.01645  10544319.98042  24143490.9454                   24143497.3484
  -8900967.74647  -6908534.62146  20546338.1954                   20546335.0664
 -12802374.57047  -9915893.28145  21848632.8364                   21848631.7624
   5611602.23447   4390064.20745  21244396.5314                   21244395.4884
    733253.64847    530727.50445  21445758.8914                   21445754.6684
  13499679.33646  10524373.57443  23217656.6884                   23217656.2544
  -9494586.76647  -4773587.22344  22884039.1484                   22884037.7504
 -10217804.21946  -6437115.19544  22596303.3984                   22596302.1564
 11  7 23 19 24  0.0000000  0  9G03G24G07G08G13G19G23G28G11
  11296093.60546   8785776.05143  23295241.2034                   23295241.3754
  13293169.57446  10399313.13342  24108079.1884                   24108085.2894
  -9044517.55147  -7020391.59846  20519021.4224                   20519018.8714
 -12983668.05547 -10057160.92245  21814133.9534                   21814132.2814
   5584955.90247   4369300.77745  21239326.0784                   21239324.8754
    681604.66447    490481.53145  21435929.7344                   21435926.5164
  13502180.43446  10526322.22343  23218132.8834                   23218132.2704
  -9648396.07447  -4893438.58244  22854770.2974                   22854768.7034
 -10396796.83646  -6576589.85243  22562241.9384                   22562240.7584
 11  7 23 19 24 30.0000000  0  9G03G24G07G08G13G19G23G28G11
  11290958.86346   8781774.90643  23294264.4064                   23294264.6884
  13106996.24646  10254243.20342  24072651.3204                   24072658.1414
  -9187851.48447  -7132080.35946  20491746.0784                   20491742.8524
 -13164938.76247 -10198410.78545  21779639.2504                   21779637.3674
   5558663.13747   4348812.84845  21234322.8444                   21234321.3054
    630401.60247    450583.03145  21426186.5864                   21426183.3444
  13504750.06646  10528324.28943  23218621.9694                   23218620.8914
  -9802085.52347  -5013196.53544  22825523.2194                   22825521.8324
 -10575579.99646  -6715901.33644  22528220.7894                   22528219.8284
 11  7 23 19 25  0.0000000  0  9G03G24G07G08G13G19G23G28G11
  11285966.91846   8777885.12143  23293315.0164                   23293313.9064
  12920751.230 5                  24037208.008
  -9330961.17247  -7243594.39546  20464512.8284                   20464510.6024
 -13346178.52047 -10339636.53945  21745150.4774                   21745148.7934
   5532727.83647   4328603.47745  21229388.1644                   21229386.3794
    579648.87547    411035.44145  21416528.4304                   21416525.1024
  13507391.81346  10530382.57843  23219124.6094                   23219123.9304
  -9955649.34047  -5132856.60544  22796301.7974                   22796300.3404
 -10754144.03946  -6855042.05544  22494241.2974                   22494240.2544
 11  7 23 19 25 30.0000000  0  9G03G24G07G08G13G19G23G28G11
  11281114.63346   8774104.08643  23292390.9454                   23292390.0004
  12734437.594 6                  24001753.727
  -9473844.73047  -7354932.23846  20437323.4224                   20437320.2344
 -13527385.34047 -10480836.63745  21710667.8834                   21710666.0554
   5507147.46947   4308670.65245  21224519.4614                   21224518.3674
    529343.87947    371836.74645  21406956.2734                   21406951.7704
  13510102.78946  10532494.78143  23219640.7664                   23219640.2344
 -10109088.52047  -5252419.53944  22767103.8054                   22767101.6524
 -10932486.09447  -6994009.81644  22460303.9924                   22460302.6914
 11  7 23 19 26  0.0000000  0  9G03G24G07G08G13G19G23G28G11
  12851824.85946   9998034.04743  23591287.5394                   23591286.7464
  14123489.813 6                  24266082.430
  -8041070.34047  -6238484.65246  20709971.0004                   20709968.1764
 -12133126.42647  -9394401.10245  21975986.7894                   21975984.8324
   7057345.60547   5516617.19145  21519512.9144                   21519511.0354
   2054911.44547   1560590.68845  21697261.8054                   21697257.4574
  15088305.55146  11762262.89843  23519963.2194                   23519962.5314
  -8686973.04747  -4144277.56644  23037723.3444                   23037721.1764
  -9535171.78546  -5905193.38744  22726203.7894                   22726202.1134
 11  7 23 19 26 30.0000000  0  9G03G24G07G08G13G19G23G28G11
  12847255.67246   9994473.68043  23590418.6954                   23590418.7814
  13937059.164 6                  24230605.922
  -8183484.33247  -6349456.58646  20682870.3984                   20682868.0204
 -12314250.75047  -9535536.91445  21941520.4064                   21941517.7934
   7032478.72347   5497240.33645  21514781.0784                   21514779.5824
   2005506.80547   1522093.56645  21687860.5474                   21687855.6604
  15091158.19146  11764485.48443  23520506.3444                   23520505.6684
  -8840152.68747  -4263638.29744  23008574.0234                   23008572.2034
  -9713048.88347  -6043798.81644  22692354.0784                   22692353.6294
 11  7 23 19 27  0.0000000  0  9G03G24G07G08G13G19G23G28G11
  12842826.41046   9991022.23042  23589575.2034                   23589575.3634
  13750576.70346  11361799.26652  24195119.5394                   24195123.8484
  -8325658.71147  -6460241.80946  20655816.1094                   20655812.8874
 -12495328.62947  -9676636.52045  21907062.1414                   21907059.3954
   7007966.80947   5478140.07845  21510116.1484                   21510114.9384
   1956551.26247   1483946.38345  21678544.7034                   21678540.4694
  15094079.91847  11766761.85943  23521062.4844                   23521061.0514
  -8993201.66047  -4382897.18744  22979449.5704                   22979447.6954
  -9890686.78947  -6182217.91444  22658551.7114                   22658549.9774
 11  7 23 19 27 30.0000000  0  9G03G24G07G08G13G19G23G28G11
  12838533.28546   9987676.91843  23588758.3204                   23588757.4144
  13564044.53146  11216449.66443  24159622.8754                   24159628.5234
  -8467592.32847  -6570839.43446  20628806.6564                   20628803.4534
 -12676359.36347  -9817699.40245  21872612.8284                   21872611.0784
   6983806.27747   5459313.62545  21505518.7424                   21505517.5164
   1908041.64547   1446146.66045  21669313.4224                   21669309.6024
  15097066.59847  11769088.94143  23521630.9694                   23521628.9694
  -9146121.32047  -4502055.28544  22950350.1804                   22950347.6334
 -10068083.17247  -6320448.79344  22624794.2584                   22624792.6764
 11  7 23 19 28  0.0000000  0  9G03G24G07G08G13G19G23G28G11
  12834376.27046   9984437.67242  23587966.3054                   23587966.7424
  13377468.38746  11071065.83242  24124118.4304                   24124123.9734
  -8609280.34047  -6681245.66846  20601844.1564                   20601841.3984
 -12857338.35247  -9958721.96945  21838174.1804                   21838171.6564
   6959997.28947   5440761.11345  21500987.9454                   21500986.5664
   1859978.18447   1408694.60945  21660167.5164                   21660163.6764
  15100118.35547  11771466.72343  23522211.7424                   23522209.9774
  -9298909.73447  -4621111.13344  22921275.2894                   22921272.6804
 -10245232.16847  -6458486.90644  22591083.2584                   22591082.5864
 11  7 23 19 28 30.0000000  0  9G03G24G07G08G13G19G23G28G11
  12830351.53146   9981301.37143  23587202.4614                   23587200.8524
  13190849.55546  10925648.71943  24088606.0704                   24088611.6844
  -8750722.48047  -6791460.30946  20574928.9384                   20574926.1724
 -13038265.25847 -10099703.94145  21803744.1954                   21803742.6054
   6936535.43047   5422479.08245  21496524.0164                   21496521.7344
   1812357.55147   1371587.62545  21651105.2114                   21651101.5984
  15103230.66046  11773891.66843  23522804.2424                   23522802.2504
  -9451569.16047  -4740066.48444  22892225.3134                   22892222.7424
 -10422132.60547  -6596331.28944  22557420.1804                   22557419.0124
 11  7 23 19 29  0.0000000  0  9G03G24G07G08G13G19G23G28G11
  12826457.69946   9978267.20743  23586461.2584                   23586459.7234
  13004192.75046  10780202.03543  24053086.4144                   24053092.4654
  -8891915.34847  -6901480.71146  20548060.7424                   20548057.7664
 -13219136.30947 -10240642.39845  21769325.8594                   21769323.6604
   6913419.82847   5404466.85545  21492124.4534                   21492123.1134
   1765178.89547   1334825.03145  21642127.8134                   21642124.0164
  15106402.60546  11776363.06643  23523407.5944                   23523407.6294
  -9604098.35247  -4858920.35544  22863199.3054                   22863196.6884
 -10598779.69147  -6733978.31244  22523805.0234                   22523803.7734
 11  7 23 19 29 30.0000000  0  9G03G24G07G08G13G19G23G28G11
  12822690.73446   9975331.85543  23585743.8134                   23585742.7974
  12817499.57846  10634726.99643  24017560.4064                   24017565.4534
  -9032858.35247  -7011306.42646  20521240.3524                   20521237.1884
 -13399951.21547 -10381537.10245  21734918.0004                   21734915.9844
   6890646.41847   5386721.29345  21487791.2584                   21487789.6994
   1718438.13747   1298403.64545  21633232.9774                   21633228.8404
  15109629.96946  11778877.60943  23524022.8054                   23524022.2544
  -9756499.81647  -4977674.69144  22834198.4844                   22834196.6684
 -10775171.83647  -6871426.65644  22490239.2424                   22490238.1724
 11  7 23 19 30  0.0000000  0  9G03G24G07G08G13G19G23G28G11
  12819041.24646   9972488.03943  23585050.6334                   23585048.3794
  12630766.31346  10489220.73843  23982025.0704                   23982030.3794
  -9173556.18447  -7120941.09046  20494466.2664                   20494463.2734
 -13580715.01247 -10522392.00045  21700519.6724                   21700517.3364
   6868205.59847   5369234.89145  21483520.8674                   21483519.7424
   1672126.16447   1262316.37945  21624420.1954                   21624416.4884
  15112903.04746  11781427.76643  23524645.3674                   23524646.3794
  -9908780.64147  -5096335.03144  22805220.7274                   22805217.8554
 -10951312.32847  -7008678.89144  22456721.0084                   22456719.6564
 11  7 23 19 30 30.0000000  0  9G03G24G07G08G13G19G23G28G11
  12815508.21946   9969735.02043  23584377.0164                   23584376.3984
  12443997.14846  10343686.50443  23946484.0704                   23946488.6914
  -9314005.77347  -7230382.32046  20467740.0164                   20467736.8954
 -13761424.39147 -10663204.46545  21666131.5394                   21666129.2234
   6846095.98447   5352006.56645  21479313.8524                   21479312.6024
   1626242.25047   1226562.67645  21615689.1724                   21615684.6884
  15116220.45746  11784012.46543  23525276.6644                   23525278.3714
 -10060940.17647  -5214900.87144  22776265.0394                   22776263.6054
 -11127197.13747  -7145731.92244  22423250.7114                   22423249.5314
 11  7 23 19 31  0.0000000  0  9G03G24G07G08G13G19G23G28G11
  12812080.92646   9967064.37943  23583725.5864                   23583723.8554
  12257186.92646  10198120.25843  23910935.9064                   23910939.7344
  -9454213.10947  -7339634.77346  20441058.5234                   20441055.8674
 -13942085.30547 -10803979.18745  21631753.1484                   21631751.3714
   6824306.88747   5335027.97345  21475167.3204                   21475166.1454
   1580776.24247   1191134.61745  21607037.3914                   21607032.7464
  15119571.32046  11786623.25043  23525914.4614                   23525916.8524
 -10212987.25047  -5333379.04744  22747331.0944                   22747330.2074
 -11302831.28547  -7282589.60944  22389828.2034                   22389827.8714
 11  7 23 19 31 30.0000000  0  9G03G24G07G08G13G19G23G28G11
  12808759.04746   9964475.89843  23583093.2194                   23583091.9224
  12070341.28946  10052526.44543  23875379.4144                   23875384.6024
  -9594173.94547  -7448695.16046  20414425.7034                   20414422.5394
 -14122693.57047 -10944712.87145  21597383.8674                   21597382.1294
   6802838.17247   5318299.04345  21471082.0164                   21471080.5784
   1535727.39847   1156031.62145  21598464.2274                   21598459.7624
  15122955.49646  11789259.91043  23526559.3134                   23526561.2704
 -10364920.14547  -5451768.25844  22718419.3674                   22718418.0354
 -11478209.14847  -7419247.62144  22356454.9614                   22356453.6054
 11  7 23 19 32  0.0000000  0  9G03G24G07G08G13G19G23G28G11
  12805536.58246   9961964.85943  23582479.3984                   23582479.1644
  11883460.58646   9906905.27343  23839817.9534                   23839822.3554
  -9733889.36347  -7557564.31246  20387838.2894                   20387835.3754
 -14303249.98447 -11085406.16045  21563025.2814                   21563023.2424
   6781683.90647   5301815.13345  21467056.6804                   21467055.1604
   1491090.98447   1121250.00045  21589970.4844                   21589966.2504
  15126367.02746  11791917.95343  23527208.1484                   23527210.1414
 -10516742.20347  -5570071.10544  22689528.1644                   22689526.3094
 -11653330.69147  -7555705.89144  22323130.2814                   22323129.3134
 11  7 23 19 32 30.0000000  0  9G03G24G07G08G13G19G23G28G11
  12802408.16446   9959527.05543  23581884.8984                   23581884.2734
  11696544.45746   9761256.52343  23804247.9304                   23804253.4694
  -9873360.54747  -7666243.14846  20361297.8914                   20361294.5784
 -14483755.67647 -11226059.93045  21528676.5634                   21528674.5704
   6760838.05547   5285571.55945  21463090.0474                   21463088.5354
   1446861.24647   1086785.26645  21581553.7734                   21581549.8324
  15129799.92646  11794592.66443  23527862.8364                   23527863.6644
 -10668457.70347  -5688290.94544  22660657.8054                   22660656.0514
 -11828196.13347  -7691964.59444  22289855.6334                   22289854.0314
 11  7 23 19 33  0.0000000  0  9G03G24G07G08G13G19G23G28G11
  14374791.05946  11184760.48843  23881097.8754                   23881098.2074
  13085022.25446  10843187.44943  24068466.6804                   24068471.6994
  -8437160.84847  -6547126.49246  20634597.5864                   20634594.5044
 -13088782.87947 -10139068.11345  21794130.7974                   21794129.4104
   8315718.90247   6497166.94945  21758973.9304                   21758972.3874
   2978457.23847   2280236.68045  21873007.0474                   21873003.3754
  16708671.65246  13024882.02743  23828311.8754                   23828312.7974
  -9244642.06247  -4578824.16444  22931601.4384                   22931599.3834
 -10427376.46147  -6600416.69144  22556421.4534                   22556419.6914
 11  7 23 19 33 30.0000000  0  9G03G24G07G08G13G19G23G28G11
  14371842.54346  11182462.93443  23880537.1644                   23880537.4964
  12898043.98446  10697490.26643  24032885.7194                   24032890.1844
  -8576138.18047  -6655420.51646  20608151.3984                   20608148.4654
 -13269181.90647 -10279638.74245  21759802.5004                   21759800.0004
   8295481.64547   6481397.59445  21755122.7814                   21755121.4774
   2935032.81647   2246399.44545  21864743.4534                   21864739.6994
  16712138.78546  13027583.38743  23828971.5164                   23828972.8874
  -9396146.54347  -4696879.57844  22902770.1334                   22902768.6134
 -10601720.93747  -6736269.43444  22523244.6804                   22523243.3954
 11  7 23 19 34  0.0000000  0  9G03G24G07G08G13G19G23G28G11
  14368980.58246  11180232.73842  23879992.6954                   23879993.7384
  12711039.89146  10551773.02043  23997300.3674                   23997304.4574
  -8714865.09447  -6763519.39546  20581751.8524                   20581749.6484
 -13449524.03547 -10420165.05545  21725484.5164                   21725481.8444
   8275545.14147   6465862.59445  21751329.0394                   21751327.7814
   2892008.59447   2212874.06345  21856556.4844                   21856552.3094
  16715619.30146  13030295.20343  23829633.4144                   23829636.1684
  -9547546.14147  -4814853.23444  22873959.9384                   22873958.4884
 -10775799.72347  -6871915.15644  22490118.2814                   22490117.5044
 11  7 23 19 34 30.0000000  0  9G03G24G07G08G13G19G23G28G11
  14366205.34446  11178070.25442  23879464.9454                   23879465.2154
  12524015.59846  10406039.97343  23961709.5164                   23961714.9924
  -8853337.00847  -6871419.60246  20555401.9844                   20555398.6414
 -13629804.58247 -10560643.35945  21691177.5944                   21691175.9414
   8255909.17247   6450561.77745  21747592.9384                   21747591.3014
   2849384.63347   2179660.58645  21848445.2034                   21848440.8204
  16719113.46946  13033017.66443  23830298.9924                   23830300.9024
  -9698838.74647  -4932743.52744  22845170.0784                   22845168.8284
 -10949607.29747  -7007349.55544  22457044.2274                   22457043.2934
 11  7 23 19 35  0.0000000  0  9G03G24G07G08G13G19G23G28G11
  14363513.54346  11175972.71942  23878953.3284                   23878952.8014
  12336973.42246  10260293.00843  23926116.5784                   23926121.6884
  -8991553.02347  -6979120.38346  20529100.3444                   20529097.0664
 -13810022.57047 -10701072.93045  21656883.4304                   21656881.3284
   8236570.38747   6435492.51244  21743912.9064                   21743911.6564
   2807157.39547   2146756.23445  21840409.9924                   21840405.8594
  16722617.62546  13035747.82443  23830966.0314                   23830968.9844
  -9850025.85247  -5050551.60944  22816400.9844                   22816398.9344
 -11123141.47347  -7142570.88344  22424021.6884                   22424020.6994
 11  7 23 19 35 30.0000000  0  9G03G24G07G08G13G19G23G28G11
  14360906.03145  11173940.82842  23878456.5704                   23878456.2624
  12149920.44146  10114537.62943  23890521.7894                   23890527.0434
  -9129507.13747  -7086617.09046  20502848.6024                   20502845.2504
 -13990172.18047 -10841449.19945  21622602.1564                   21622600.5824
   8217529.50447   6420655.39145  21740289.0394                   21740288.2194
   2765328.19547   2114162.05145  21832449.6254                   21832445.6094
  16726132.67646  13038486.57043  23831635.3204                   23831637.9804
 -10001104.19147  -5168274.94544  22787651.0784                   22787649.1844
 -11296395.31247  -7277573.83244  22391052.2664                   22391051.4104
 11  7 23 19 36  0.0000000  0  9G03G24G07G08G13G19G23G28G11
  14358378.73445  11171971.43842  23877975.3984                   23877976.3524
  11962857.43046   9968774.46542  23854924.8444                   23854930.0084
  -9267199.73047  -7193910.01246  20476646.1564                   20476643.1214
 -14170253.04347 -10981771.92645  21588334.6024                   21588332.7034
   8198781.72747   6406046.66445  21736722.3364                   21736720.6024
   2723892.56647   2081874.53545  21824565.0704                   21824561.2424
  16729653.81346  13041229.98442  23832304.5704                   23832308.6684
 -10152076.70747  -5285915.81244  22758921.6484                   22758919.6374
 -11469368.03147  -7412357.65644  22358136.6024                   22358136.0004
 11  7 23 19 36 30.0000000  0  9G03G24G07G08G13G19G23G28G11
  14355931.72345  11170064.60942  23877510.7974                   23877510.5274
  11775790.45646   9823008.18642  23819327.2584                   23819331.9024
  -9404625.84847  -7300995.28946  20450495.2274                   20450492.2154
 -14350260.21947 -11122037.22745  21554079.7424                   21554077.6484
   8180327.82047   6391666.92245  21733210.3984                   21733208.5314
   2682850.98447   2049894.06645  21816755.1024                   21816750.9384
  16733181.52746  13043978.52342  23832976.8134                   23832980.5204
 -10302941.19547  -5403472.51244  22730213.2344                   22730212.0824
 -11642053.56647  -7546917.73444  22325275.6414                   22325274.3134
 11  7 23 19 37  0.0000000  0  9G03G24G07G08G13G19G23G28G11
  14353561.62546  11168217.73843  23877059.4694                   23877059.0354
  11588721.85946   9677240.66842  23783729.4534                   23783733.1564
  -9541784.31247  -7407872.00446  20424394.1954                   20424391.5744
 -14530192.50847 -11262244.19145  21519839.6334                   21519837.8134
   8162163.29347   6377512.67245  21729754.1024                   21729752.4534
   2642200.27047   2018218.16445  21809019.0634                   21809015.4494
  16736711.61346  13046728.93442  23833648.9454                   23833652.5314
 -10453699.07047  -5520946.10944  22701525.3984                   22701523.1134
 -11814449.81247  -7681252.37144  22292469.8984                   22292469.2304
 11  7 23 19 37 30.0000000  0  9G03G24G07G08G13G19G23G28G11
  14351265.97346  11166428.93843  23876622.3914                   23876621.3594
  11401654.67246   9531474.28942  23748131.0704                   23748134.8834
  -9678672.75847  -7514538.30946  20398345.2664                   20398342.3594
 -14710048.43747 -11402391.65645  21485614.0704                   21485612.4924
   8144285.43447   6363581.78944  21726351.0704                   21726350.8094
   2601937.37947   1986844.47745  21801357.6094                   21801353.6764
  16740241.81646  13049479.41042  23834320.0234                   23834325.1954
 -10604351.24647  -5638337.36744  22672856.9144                   22672855.0634
 -11986554.25847  -7815359.66844  22259719.5554                   22259717.7544
 11  7 23 19 38  0.0000000  0  9G03G24G07G08G13G19G23G28G11
  14349041.89546  11164695.85543  23876199.5314                   23876198.6454
  11214591.83246   9385711.21942  23712533.1724                   23712538.3014
  -9815290.68447  -7620993.83246  20372347.9534                   20372344.8594
 -14889825.88747 -11542477.94545  21451404.0394                   21451401.9304
   8126691.19547   6349871.92645  21723004.0554                   21723002.5594
   2562059.98447   1955771.17645  21793769.2034                   21793765.2854
  16743769.22746  13052227.71143  23834992.8134                   23834996.2344
 -10754898.68747  -5755647.02044  22644208.6334                   22644206.9304
 -12158363.72347  -7949237.09044  22227025.3284                   22227023.8874
 11  7 23 19 38 30.0000000  0  9G03G24G07G08G13G19G23G28G11
  14346889.57846  11163018.68443  23875789.7344                   23875789.8484
  11027538.77346   9239955.84042  23676938.3204                   23676943.6524
  -9951632.98047  -7727234.57046  20346403.2344                   20346400.2584
 -15069519.82847 -11682499.18045  21417209.3284                   21417207.0904
   8109380.64847   6336383.11345  21719710.2664                   21719708.5004
   2522567.91047   1924998.11745  21786253.9774                   21786250.2304
  16747293.49246  13054973.53543  23835662.7584                   23835666.8984
 -10905339.53547  -5872873.62544  22615580.4924                   22615579.2664
 -12329872.63747  -8082880.29344  22194387.9534                   22194386.7034
 11  7 23 19 39  0.0000000  0  9G03G24G07G08G13G19G23G28G11
  14344803.33246  11161393.00443  23875392.9224                   23875392.2734
  10840495.91846   9094208.30543  23641346.5004                   23641349.8164
 -10087700.77747  -7833261.40646  20320510.1564                   20320507.4384
 -15249131.44547 -11822456.25445  21383030.1024                   21383028.9574
   8092347.34447   6323110.34045  21716468.5394                   21716467.4224
   2483455.92647   1894521.24245  21778810.8984                   21778807.1134
  16750808.83246  13057712.43043  23836332.8054                   23836336.7584
 -11055677.47747  -5990020.01244  22586972.0234                   22586970.6954
 -12501081.28947  -8216289.58244  22161808.6644                   22161806.8444
 11  7 23 19 39 30.0000000  0  9G03G24G07G08G13G19G23G28G11
  14342786.00546  11159821.03743  23875008.0704                   23875007.6134
  10653471.55546   8948475.20743  23605756.4534                   23605759.3714
 -10223486.64547  -7939068.56646  20294670.4694                   20294668.2504
 -15428653.37147 -11962343.44145  21348867.9534                   21348865.9264
   8075594.25447   6310055.91844  21713280.9064                   21713279.2664
   2444727.02747   1864342.89145  21771441.5864                   21771437.5274
  16754318.06346  13060446.54343  23837000.7974                   23837004.0084
 -11205907.49247  -6107082.32444  22558384.6094                   22558382.1604
 -12671981.20747  -8349458.25844  22129286.9384                   22129285.3714
 11  7 23 19 40  0.0000000  0  9G03G24G07G08G13G19G23G28G11
  15916255.52746  12385901.16443  24174429.8054   24174429.2344   12041895.58246
  10030364.20743                  23869963.9924                   23869967.6954
  -8783564.09447  -6817050.99646  20568678.9924                   20568675.9064
 -14032656.87147 -10874553.93745  21614518.1804                   21614515.7974
   9634539.46147   7524818.32845  22009938.1884                   22009936.3014
   3981799.99647   3062062.07045  22063936.3674                   22063932.6254
  18333238.84046  14290774.06343  24137459.7504                   24137463.5664
  -9780605.35247  -4996457.25044  22829610.9384                   22829608.6884
 -11267143.66047  -7254779.58244  22396618.8524                   22396616.7934
 11  7 23 19 40 30.0000000  0  9G03G24G07G08G13G19G23G28G11
  15914368.85946  12384430.98842  24174071.0394   24174070.8754   11854917.56646
   9884667.24243                  23834383.2344                   23834387.6334
  -8918781.25847  -6922415.01246  20542947.8364                   20542944.8754
 -14211992.77347 -11014296.15245  21580390.8754                   21580388.9024
   9618337.93847   7512193.68845  22006854.9924                   22006853.7304
   3943828.80547   3032474.12145  22056710.6334                   22056707.2194
  18336727.57846  14293492.23843  24138124.1884                   24138126.8204
  -9930622.52347  -5113353.69544  22801062.5474                   22801061.6294
 -11437417.97347  -7387460.80544  22364216.4844                   22364214.2304
 11  7 23 19 41  0.0000000  0  9G03G24G07G08G13G19G23G28G11
  15912546.87145  12383011.19542  24173724.0004   24173724.1134   11667970.41046
   9738994.37143                  23798808.3204                   23798812.9654
  -9053707.62147  -7027552.43046  20517272.4694                   20517269.4614
 -14391229.06247 -11153960.76645  21546283.5634                   21546281.3284
   9602411.35947   7499783.30145  22003824.1174                   22003823.3834
   3906235.76247   3003180.84045  22049557.2584                   22049553.2344
  18340205.16046  14296201.73043  24138786.6174                   24138788.3634
 -10080531.12947  -5230165.55144  22772536.4144                   22772534.9454
 -11607371.65247  -7519892.16844  22331875.6804                   22331873.2894
 11  7 23 19 41 30.0000000  0  9G03G24G07G08G13G19G23G28G11
  15910787.77745  12381640.42642  24173390.4384   24173389.9144   11481058.19946
   9593348.68843                  23763240.2114                   23763244.4414
  -9188340.87147  -7132461.44146  20491652.4224                   20491649.6524
 -14570363.42247 -11293545.96945  21512195.6484                   21512193.2934
   9586757.27747   7487585.22344  22000845.3914                   22000844.5474
   3869019.16847   2974180.89145  22042475.3134                   22042470.9064
  18343669.82046  14298901.14543  24139446.5084                   24139447.4694
 -10230330.96547  -5346892.66844  22744030.4224                   22744028.2154
 -11777000.98847  -7652070.79344  22299595.6564                   22299593.7274
 11  7 23 19 42  0.0000000  0  9G03G24G07G08G13G19G23G28G11
  15909096.17645  12380322.24242  24173067.2584   24173068.1724   11294190.72746
   9447737.86343                  23727680.4384                   23727683.9454
  -9322672.35547  -7237135.32446  20466089.9064                   20466087.3324
 -14749386.86347 -11433044.71145  21478128.1724                   21478126.2384
   9571379.41847   7475602.37144  21997919.4614                   21997918.1334
   3832183.17247   2945477.51245  22035465.9844                   22035461.1564
  18347125.28946  14301593.37543  24140103.4534                   24140105.7704
 -10380016.06247  -5463530.34044  22715546.1414                   22715544.1024
 -11946296.65247  -7783989.43044  22267379.6334                   22267378.1414
 11  7 23 19 42 30.0000000  0  9G03G24G07G08G13G19G23G28G11
  15907469.80145  12379054.96942  24172758.0554   24172759.6604   11107371.26246
   9302164.43843                  23692129.0004                   23692133.5394
  -9456699.71147  -7341572.21146  20440585.5784                   20440582.6764
 -14928296.60247 -11572454.86345  21444083.0394                   21444080.7544
   9556275.20747   7463832.77744  21995044.9844                   21995043.5514
   3795725.37947   2917068.84045  22028527.8054                   22028523.1334
  18350568.84445  14304276.32043  24140758.1804                   24140761.2384
 -10529587.48047  -5580079.44144  22687083.3984                   22687081.5354
 -12115255.87947  -7915645.90244  22235228.1804                   22235225.9734
 11  7 23 19 43  0.0000000  0  9G03G24G07G08G13G19G23G28G11
  15905916.32845  12377844.36742  24172462.6954   24172463.9964   10920613.45746
   9156639.05143                  23656590.7734                   23656594.2154
  -9590411.35947  -7445763.10546  20415140.9844                   20415138.3834
 -15107080.28547 -11711766.81245  21410061.0234                   21410059.1134
   9541452.37147   7452282.43044  21992224.2664                   21992223.6094
   3759653.76247   2888961.06645  22021663.9614                   22021660.0204
  18354008.80145  14306956.35542  24141412.9064                   24141416.2774
 -10679035.06647  -5696532.07044  22658644.8914                   22658642.4064
 -12283864.73447  -8047029.34044  22203143.0554                   22203140.5864
 11  7 23 19 43 30.0000000  0  8G24G07G08G13G19G23G28G11
  10733927.75446   9011169.89543  23621064.9384                   23621068.8244
  -9723797.44947  -7549700.30146  20389758.7114                   20389755.7504
 -15285728.67647 -11850973.32445  21376065.9774                   21376063.3134
   9526915.03147   7440954.55944  21989458.3594                   21989456.9264
   3723972.91447   2861157.80545  22014873.6094                   22014869.6804
  18357449.65245  14309637.20342  24142068.0314                   24142071.4384
 -10828351.87947  -5812882.79744  22630230.3054                   22630227.8954
 -12452113.55147  -8178132.25444  22171125.4144                   22171124.1454
 11  7 23 19 44  0.0000000  0  8G24G07G08G13G19G23G28G11
  10547319.27746   8865760.87143  23585553.4774                   23585557.8634
  -9856854.58647  -7653381.18446  20364438.2734                   20364436.2114
 -15464237.77047 -11990071.29345  21342096.6174                   21342094.1764
   9512662.43447   7429848.54744  21986746.1884                   21986745.3444
   3688681.99247   2833658.35945  22008158.2504                   22008154.7734
  18360890.28145  14312317.94942  24142722.9614                   24142727.2344
 -10977537.63347  -5929131.40644  22601841.6564                   22601839.2304
 -12619997.47347  -8308950.84444  22139178.5314                   22139176.5434
 11  7 23 19 44 30.0000000  0  8G24G07G08G13G19G23G28G11
  10360803.37946   8720424.05143  23550061.6884                   23550065.0784
  -9989568.51247  -7756794.62146  20339183.8834                   20339181.3364
 -15642593.02747 -12129049.39545  21308156.8284                   21308154.7114
   9498703.45747   7418971.32444  21984089.7734                   21984089.1054
   3653790.41847   2806470.11745  22001517.9384                   22001514.6524
  18364340.47745  14315006.04742  24143379.5704                   24143384.0944
 -11126580.40247  -6045268.53944  22573478.7974                   22573477.4264
 -12787501.35547  -8439473.26644  22107303.8204                   22107302.0124
 11  7 23 19 45  0.0000000  0  8G24G07G08G13G19G23G28G11
  10174398.96946   8575174.07043  23514590.2114                   23514593.4884
 -10121921.65648  -7859926.92646  20313997.8204                   20313995.2934
 -15820776.25447 -12267893.42645  21274249.7974                   21274247.7814
   9485051.46147   7408333.33244  21981492.0004                   21981490.8674
   3619311.59047   2779603.48045  21994957.8594                   21994953.4534
  18367813.28545  14317711.85242  24144041.5474                   24144045.6884
 -11275465.19147  -6161282.60544  22545147.4694                   22545144.8714
 -12954606.59047  -8569685.06244  22075504.2734                   22075502.7034
 11  7 23 19 45 30.0000000  0  8G24G07G08G13G19G23G28G11
   9988115.27346   8430018.13343  23479141.2344                   23479144.9344
 -10253906.21948  -7962772.02346  20288882.2344                   20288878.8714
 -15998779.54347 -12406597.27345  21240376.7034                   21240374.1134
   9471709.29747   7397936.75444  21978952.9064                   21978952.0904
   3585248.83247   2753061.04745  21988475.4534                   21988472.4144
  18371311.92646  14320437.69542  24144707.7664                   24144712.1414
 -11424186.60947  -6277169.39844  22516846.8754                   22516844.9264
 -13121304.51247  -8699579.48044  22043782.9064                   22043780.9454
 11  7 23 19 46  0.0000000  0  8G24G07G08G13G19G23G28G11
   9801960.57046   8284962.74243  23443716.5314                   23443720.4344
 -10385515.32847  -8065324.56646  20263837.5784                   20263834.7584
 -16176595.28947 -12545154.96145  21206539.0864                   21206536.7194
   9458679.16047   7387783.29744  21976473.8984                   21976472.7074
   3551604.83247   2726844.91845  21982073.5084                   21982069.7074
  18374839.24646  14323185.94542  24145379.5004                   24145382.9344
 -11572740.40647  -6392925.57044  22488578.8204                   22488575.8134
 -13287587.10547  -8829150.25844  22012139.5864                   22012138.3204
 11  7 23 19 46 30.0000000  0  8G24G07G08G13G19G23G28G11
   9615941.97346   8140013.38743  23408318.8914                   23408322.1414
 -10516743.18447  -8167580.02746  20238865.7974                   20238863.1334
 -16354217.24247 -12683561.64845  21172738.5864                   21172737.3244
   9445962.03147   7377873.75044  21974054.1024                   21974052.8524
   3518380.64147   2700955.94545  21975750.8054                   21975747.1094
  18378396.31346  14325957.31642  24146056.3914                   24146060.1954
 -11721123.59047  -6508548.76644  22460341.3674                   22460339.6884
 -13453447.71547  -8958392.18444  21980577.8284                   21980575.8444
 11  7 23 19 47  0.0000000  0  8G24G07G08G13G19G23G28G11
  11005493.52746   9222781.01243  23672741.3364                   23672743.9534
  -9072158.83247  -7041929.87546  20513761.0314                   20513758.2624
 -14956212.80947 -11594207.52345  21438770.5234                   21438767.6334
  11008979.99247   8595809.74644  22271486.6644                   22271485.6884
   5060999.26247   3902996.42645  22269301.7664                   22269297.3094
  19957404.73046  15556353.14543  24446532.1724                   24446534.8714
 -10293906.96147  -5396431.85244  22731931.7194                   22731929.5744
 -12043453.16047  -7859695.04744  22248890.9694                   22248888.8634
 11  7 23 19 47 30.0000000  0  9G17G24G07G08G13G19G23G28G11
  21776704.14856  17065812.41452  24746200.5234                   24746204.7854
  10819768.07846   9078060.08243  23637398.5004                   23637401.9344
  -9202606.89847  -7143577.71546  20488937.6254                   20488934.5784
 -15133429.36347 -11732298.31645  21405046.8834                   21405044.3714
  10996891.91847   8586390.36344  22269186.2504                   22269185.2584
   5028618.52347   3877764.64845  22263139.6254                   22263136.4884
  19961024.89146  15559173.69943  24447220.6484                   24447223.7114
 -10441938.89847  -5511781.37944  22703762.4144                   22703760.8014
 -12208449.54747  -7988263.57844  22217493.0164                   22217491.6604
 11  7 23 19 48  0.0000000  0  9G17G24G07G08G13G19G23G28G11
  21559889.08245  16896865.98042  24704942.4454                   24704947.5944
  10634199.02346   8933461.04343  23602085.8674                   23602089.3794
  -9332657.21147  -7244915.61746  20464189.8444                   20464187.2304
 -15310434.71147 -11870224.53545  21371364.1174                   21371361.4574
  10985118.88347   8577216.48444  22266945.4224                   22266944.4734
   4996660.59447   3852862.34845  22257057.7814                   22257054.9104
  19964677.72346  15562019.70743  24447916.8674                   24447919.3324
 -10589791.13347  -5626990.85244  22675626.8134                   22675624.6724
 -12373004.76247  -8116488.32844  22186178.9454                   22186177.2504
 11  7 23 19 48 30.0000000  0  9G17G24G07G08G13G19G23G28G11
  21343210.06645  16728025.42242  24663709.2894                   24663715.0234
  10448785.28946   8788983.02343  23566802.6884                   23566805.7734
  -9462312.26647  -7345945.52746  20439517.1174                   20439514.3554
 -15487231.05947 -12007987.90645  21337720.7814                   21337718.6254
  10973653.36347   8568282.21544  22264763.9384                   22264762.3754
   4965118.18847   3828283.83645  22251056.2974                   22251052.2384
  19968356.10246  15564885.60543  24448616.3444                   24448620.0864
 -10737469.07447  -5742064.50844  22647524.7424                   22647522.4414
 -12537120.68747  -8244370.80544  22154948.7034                   22154947.3554
 11  7 23 19 49  0.0000000  0  9G17G24G07G08G13G19G23G28G11
  21126672.90245  16559295.51242  24622504.0164                   24622509.2854
  10263533.44546   8644631.14542  23531550.2504                   23531552.6724
  -9591567.01647  -7446663.51646  20414921.1254                   20414918.3524
 -15663812.51247 -12145583.81245  21304118.2814                   21304116.2584
  10962496.62947   8559588.53944  22262640.8834                   22262639.9184
   4933992.39147   3804029.97745  22245132.7584                   22245129.4264
  19972061.10246  15567772.27043  24449321.3594                   24449325.4344
 -10884969.96547  -5857000.22344  22619456.4144                   22619453.1954
 -12700790.89547  -8371905.94944  22123802.8914                   22123801.5274
 11  7 23 19 49 30.0000000  0  9G17G24G07G08G13G19G23G28G11
  20910285.85545  16390682.52042  24581326.0234                   24581331.3364
  10078452.58246   8500412.47743  23496330.7114                   23496333.4454
  -9720413.48448  -7547063.35546  20390402.5944                   20390399.7464
 -15840171.07047 -12283006.05145  21270558.8914                   21270555.8754
  10951651.08647   8551137.37144  22260577.8204                   22260576.6994
   4903286.55147   3780103.32845  22239290.0084                   22239286.1054
  19975796.02346  15570682.23843  24450032.0004                   24450036.7934
 -11032288.57047  -5971793.89144  22591421.9454                   22591420.0864
 -12864006.54747  -8499086.89844  22092744.0554                   22092742.7344
 11  7 23 19 50  0.0000000  0  9G17G24G07G08G13G19G23G28G11
  20694056.20345  16222192.20342  24540180.3524                   24540184.3484
   9893551.49246   8356333.89143  23461144.7274                   23461147.9494
  -9848844.50847  -7647139.47746  20365962.6174                   20365959.8164
 -16016298.78147 -12420248.39845  21237043.0704                   21237040.1764
  10941119.50847   8542930.85944  22258573.3444                   22258571.9224
   4873003.14847   3756505.86745  22233526.8984                   22233523.5004
  19979563.82045  15573617.71942  24450749.0084                   24450754.0944
 -11179420.08647  -6086441.75844  22563424.5784                   22563422.0744
 -13026759.50447  -8625907.30945  22061773.4384                   22061771.6134
 11  7 23 19 50 30.0000000  0  8G17G24G07G08G13G19G28G11
  20477988.28545  16053827.87942  24499062.9384                   24499067.2194
   9708835.27746   8212399.38343  23425994.3594                   23425996.8914
  -9976856.48847  -7746889.06646  20341603.0164                   20341600.0124
 -16192191.45747 -12557307.59445  21203571.3524                   21203569.3794
  10930900.48447   8534967.87544  22256628.7034                   22256628.1994
   4843142.05147   3733237.47345  22227845.0704                   22227841.0394
 -11326363.35547  -6200942.96144  22535461.3754                   22535459.2814
 -13189045.26247  -8752363.68044  22030891.2584                   22030889.7154
 11  7 23 19 51  0.0000000  0  8G17G24G07G08G13G19G28G11
  20262087.78145  15885594.06643  24457976.7974                   24457982.3244
   9524310.46946   8068614.00043  23390879.9924                   23390882.6914
 -10104443.73447  -7846307.69546  20317323.9144                   20317321.2704
 -16367842.91847 -12694178.85245  21170145.6414                   21170143.5554
  10920995.02047   8527249.24244  22254743.9064                   22254742.4694
   4813703.69947   3710298.48845  22222242.9224                   22222238.7274
 -11473115.51247  -6315295.22344  22507535.5004                   22507533.6764
 -13350857.49647  -8878451.05544  22000099.1954                   22000097.4104
 11  7 23 19 51 30.0000000  0  8G17G24G07G08G13G19G28G11
  20046356.32045  15717491.93442  24416924.6254                   24416930.5004
   9339979.89146   7924979.95743  23355803.5784                   23355805.5704
 -10231604.92248  -7945394.32446  20293125.7664                   20293123.0664
 -16543251.88347 -12830861.13345  21136766.2114                   21136764.3134
  10911399.69547   8519772.27744  22252917.7894                   22252916.3284
   4784684.77347   3687686.33245  22216721.1174                   22216717.0784
 -11619677.77347  -6429499.52344  22479645.6564                   22479643.3524
 -13512194.00847  -9004167.77044  21969398.5634                   21969396.4414
 11  7 23 19 52  0.0000000  0  8G17G24G07G08G13G19G28G11
  19830798.62145  15549525.20343  24375905.0864                   24375910.4264
   9155849.40646   7781501.89143  23320763.9844                   23320766.2814
 -10358336.08247  -8044145.85946  20269009.5394                   20269007.2194
 -16718413.45347 -12967350.66045  21103434.2114                   21103432.4454
  10902113.60247   8512536.26644  22251151.0784                   22251150.2624
   4756085.10947   3665400.89145  22211278.5004                   22211274.2504
 -11766048.31247  -6543554.42644  22451792.5004                   22451789.6804
 -13673049.64847  -9129509.76244  21938788.4844                   21938786.2974
 11  7 23 19 52 30.0000000  0  8G17G24G07G08G13G19G28G11
  19615415.48046  15381694.51243  24334920.4064                   24334923.3404
   8971920.67246   7638180.96943  23285764.1024                   23285766.3594
 -10484636.80947  -8142562.01646  20244975.1804                   20244972.5084
 -16893326.43747 -13103646.48045  21070149.9144                   21070147.4144
  10893132.83647   8505538.18044  22249442.6644                   22249441.6954
   4727900.90247   3643439.16845  22205915.3594                   22205911.3754
 -11912229.19147  -6657461.56244  22423975.1334                   22423972.6374
 -13833423.33647  -9254476.19144  21908270.3984                   21908268.9264
 11  7 23 19 53  0.0000000  0  8G17G24G07G08G13G19G28G11
  19400205.33246  15213998.55143  24293966.0474                   24293969.4024
   8788193.51246   7495017.12143  23250801.7344                   23250803.6724
 -10610508.56647  -8240643.89546  20221022.9694                   20221020.2304
 -17067991.92248 -13239749.44146  21036912.2664                   21036909.7814
  10884450.84447   8498772.91444  22247789.6724                   22247789.6254
   4700125.89847   3621796.29745  22200630.1884                   22200626.2384
 -12058224.93447  -6771224.41444  22396192.9844                   22396190.5474
 -13993315.62947  -9379067.53944  21877843.9064                   21877841.7974
 11  7 23 19 53 30.0000000  0  8G17G24G07G08G13G19G28G11
  19185165.48446  15046435.30543  24253045.9144                   24253048.8524
   8604666.29846   7352009.10543  23215876.5704                   23215880.3754
 -10735954.86347  -8338394.25046  20197151.2974                   20197148.5554
 -17242412.95347 -13375661.91045  21003720.5164                   21003718.7814
  10876059.87147   8492234.39844  22246193.3054                   22246192.8014
   4672752.18847   3600466.12145  22195421.4454                   22195417.2154
 -12204041.14147  -6884847.38744  22368444.4144                   22368442.6604
 -14152729.07047  -9503285.74244  21847508.2974                   21847506.2894
 11  7 23 19 54  0.0000000  0  8G17G24G07G08G13G19G28G11
  20545723.02345  16106610.21143  24511949.3054                   24511954.1644
   9996765.97746   8436762.24643  23480784.3834                   23480787.7464
  -9285551.83647  -7208210.07446  20473153.8594                   20473150.9774
 -15841163.35547 -12283779.08645  21270369.6094                   21270367.5044
  12443374.69547   9713518.57844  22544443.0164                   22544442.8284
   6221196.07447   4807045.78545  22490079.9614                   22490076.3244
 -10774255.80147  -5770728.91044  22640524.0634                   22640521.9024
 -12736237.82447  -8399526.27344  22117057.6644                   22117055.4184
 11  7 23 19 54 30.0000000  0  8G17G24G07G08G13G19G28G11
  20331016.37945  15939306.56342  24471091.7664                   24471096.6844
   9813633.94546   8294062.12943  23445935.8754                   23445937.8984
  -9410155.52347  -7305303.84046  20449442.4774                   20449439.3014
 -16015101.75047 -12419315.48045  21237270.3674                   21237268.3164
  12435542.19147   9707415.23044  22542952.5164                   22542952.4144
   6194603.35547   4786324.21545  22485019.7034                   22485015.3244
 -10919728.84447  -5884084.46944  22612840.9844                   22612839.3674
 -12894699.36347  -8523002.73044  22086903.4064                   22086901.2504
 11  7 23 19 55  0.0000000  0  8G17G24G07G08G13G19G28G11
  20116476.11745  15772132.60242  24430266.1334                   24430271.1254
   9630701.04746   8151517.24243  23411124.3754                   23411126.5554
  -9534338.53547  -7402069.81246  20425811.0554                   20425808.6724
 -16188798.59047 -12554663.64545  21204216.7894                   21204214.7934
  12427981.30147   9701523.52744  22541514.2424                   22541513.8284
   6168393.93847   4765901.26245  22480032.1564                   22480028.4064
 -11065034.61347  -5997309.68044  22585190.5554                   22585188.2854
 -13052684.76247  -8646108.18045  22056840.1954                   22056837.4694
 11  7 23 19 55 30.0000000  0  9G17G24G26G07G08G13G19G28G11
  19902096.04345  15605083.35943  24389471.3364                   24389474.7934
   9447961.98846   8009123.42243  23376350.6804                   23376352.9534
  23372825.90656  18260626.30552  24307242.2974                   24307242.8834
  -9658107.81247  -7498513.40246  20402258.8524                   20402255.9964
 -16362260.25047 -12689828.55945  21171208.7814                   21171205.7274
  12420680.58647   9695834.53944  22540125.3524                   22540124.9654
   6142556.39547   4745768.10945  22475114.9224                   22475111.0234
 -11210182.59847  -6110411.96545  22557569.6954                   22557567.0164
 -13210200.02747  -8768847.29344  22026865.5314                   22026863.4224
 11  7 23 19 56  0.0000000  0  9G17G24G26G07G08G13G19G28G11
  19687874.27345  15438157.52742  24348705.8594                   24348709.7424
   9265415.42246   7866879.54743  23341613.0634                   23341615.8754
  23172498.38745  18104526.99642  24269121.1094                   24269122.1564
  -9781466.14847  -7594636.78146  20378784.7814                   20378781.4774
 -16535488.70747 -12824811.73445  21138244.0864                   21138241.7344
  12413632.46147   9690342.38344  22538783.7194                   22538783.6724
   6117083.48847   4725919.09845  22470268.1804                   22470263.6564
 -11355178.00447  -6223395.35944  22529978.6254                   22529975.5664
 -13367246.49647  -8891221.11744  21996980.0474                   21996978.0634
 11  7 23 19 56 30.0000000  0  9G17G24G26G07G08G13G19G28G11
  19473796.96945  15271344.28942  24307967.8204                   24307972.0004
   9083049.64546   7724776.53543  23306909.2114                   23306912.6414
  22972559.59045  17948730.57842  24231075.9454                   24231074.8594
  -9904426.76247  -7690450.23846  20355385.8754                   20355382.6724
 -16708496.89847 -12959623.27745  21105321.2894                   21105319.2664
  12406819.02347   9685033.09044  22537487.6334                   22537487.5634
   6091957.45747   4706340.35245  22465485.9454                   22465482.5744
 -11500036.57847  -6336272.13344  22502411.8914                   22502409.7894
 -13523837.11747  -9013239.73044  21967182.4924                   21967179.6374
 11  7 23 19 57  0.0000000  0  9G17G24G26G07G08G13G19G28G11
  19259862.29746  15104642.19142  24267257.9694                   24267261.6414
   8900863.19946   7582813.25443  23272240.7504                   23272242.6954
  22773008.26646  17793236.09442  24193100.8054                   24193101.4534
 -10026992.43748  -7785955.95746  20332061.7344                   20332059.5904
 -16881286.50047 -13094264.48445  21072440.2894                   21072438.5044
  12400232.81347   9679900.87144  22536234.1094                   22536233.7814
   6067171.22747   4687026.37945  22460769.6564                   22460766.1564
 -11644763.52747  -6449046.33244  22474871.0004                   22474868.8094
 -13679973.85247  -9134904.64544  21937470.5784                   21937467.6884
 11  7 23 19 57 30.0000000  0  9G17G24G26G07G08G13G19G28G11
  19046064.46945  14938046.79742  24226573.2034                   24226577.0824
   8718851.76946   7440986.34943  23237604.3594                   23237607.2704
  22573839.65645  17638039.81342  24155200.7814                   24155201.3364
 -10149168.91847  -7881158.39846  20308812.4454                   20308810.0824
 -17053862.75047 -13228739.46145  21039600.5084                   21039597.9494
  12393863.23847   9674937.47744  22535022.0864                   22535021.7704
   6042714.34447   4667969.03945  22456116.0554                   22456111.9534
 -11789367.02047  -6561724.33644  22447354.3524                   22447352.2034
 -13835661.62147  -9256219.72744  21907843.3134                   21907841.6914
 11  7 23 19 58  0.0000000  0  9G17G24G26G07G08G13G19G28G11
  18832405.83245  14771559.76243  24185914.0634                   24185919.0434
   8537018.71146   7299298.42243  23203002.6174                   23203005.0314
  22375056.63345  17483144.02042  24117374.1884                   24117374.0704
 -10270954.67247  -7976056.39146  20285637.2814                   20285634.9494
 -17226223.48047 -13363046.50445  21006801.5164                   21006798.9144
  12387707.26247   9670140.49244  22533850.3054                   22533850.5634
   6018583.88347   4649166.07445  22451524.3754                   22451520.6484
 -11933847.91047  -6674306.80544  22419860.7274                   22419858.1134
 -13990897.80947  -9377182.95744  21878303.1644                   21878301.4224
 11  7 23 19 58 30.0000000  0  9G17G24G26G07G08G13G19G28G11
  18618882.51246  14605178.20343  24145283.6484                   24145286.2934
   8355360.76646   7157746.94543  23168434.3284                   23168437.1844
  22176655.65246  17328545.92642  24079618.8284                   24079619.8714
 -10392354.37948  -8070653.55546  20262535.6644                   20262533.6024
 -17398372.25847 -13497188.38745  20974042.4144                   20974039.9654
  12381755.84047   9665502.89144  22532718.8834                   22532717.3554
   5994771.43447   4630610.88345  22446992.2734                   22446989.0354
 -12078213.13347  -6786799.13745  22392388.8054                   22392386.4774
 -14145686.34047  -9497797.36344  21848848.0554                   21848845.5634
 11  7 23 19 59  0.0000000  0  9G17G24G26G07G08G13G19G28G11
  18405496.93446  14438903.93443  24104676.8914                   24104680.1374
   8173881.64846   7016334.81343  23133899.7344                   23133902.4734
  21978640.43445  17174248.39843  24041937.4774                   24041938.8364
 -10513365.69147  -8164948.09046  20239507.9224                   20239506.0044
 -17570306.21547 -13631162.87146  20941324.9384                   20941322.0904
  12376006.27347   9661022.61744  22531624.8594                   22531623.4924
   5971274.53947   4612301.58244  22442521.4534                   22442518.3134
 -12222462.88747  -6899201.51244  22364939.0314                   22364936.0514
 -14300024.41447  -9618060.73844  21819478.2894                   21819476.0004
 11  7 23 19 59 30.0000000  0  9G17G24G26G07G08G13G19G28G11
  18192250.16846  14272737.81643  24064096.8674                   24064100.0864
   7992583.91846   6875064.03143  23099400.5634                   23099402.3754
  21781012.99646  17020253.07042  24004330.2344                   24004331.0704
 -10633987.85547  -8258939.37546  20216554.9224                   20216551.7274
 -17742023.80947 -13764968.75845  20908647.6484                   20908645.1644
  12370454.59447   9656696.50044  22530568.6644                   22530568.3954
   5948089.56347   4594235.34445  22438109.1724                   22438105.9304
 -12366598.65247  -7011515.05944  22337510.4844                   22337507.9414
 -14453910.16847  -9737971.66044  21790195.1724                   21790192.5704
 11  7 23 20  0  0.0000000  0  9G17G24G26G07G08G13G19G28G11
  17979144.21546  14106681.49644  24023544.1564                   24023547.1214
   7811470.53846   6733936.91143  23064935.4144                   23064937.5634
  21583776.10546  16866561.99642  23966798.0314                   23966797.5514
 -10754219.36748  -8352626.26646  20193675.8134                   20193672.5944
 -17913523.12547 -13898604.57446  20876012.1724                   20876009.8954
  12365097.96547   9652522.37944  22529548.8444                   22529548.5824
   5925213.63346   4576409.90244  22433756.4694                   22433752.7114
 -12510621.52047  -7123740.60544  22310103.6954                   22310101.1214
 -14607341.50447  -9857528.48044  21760997.6884                   21760995.0864
 11  7 23 20  0 30.0000000  0  9G17G24G26G07G08G13G19G28G11
  17766177.97746  13940734.01244  23983018.4224                   23983020.8874
   7630541.61746   6592953.52743  23030505.1254                   23030507.9804
  21386929.15246  16713174.76642  23929339.6414                   23929338.6254
 -10874061.81647  -8446009.99246  20170870.2894                   20170867.5164
 -18084804.81247 -14032070.81246  20843418.9304                   20843416.5274
  12359930.17247   9648495.43043  22528565.6564                   22528565.3054
   5902640.93846   4558820.77344  22429460.8364                   22429457.2034
 -12654535.42247  -7235881.26644  22282717.7034                   22282715.7814
 -14760319.16047  -9976731.81644  21731887.2424                   21731884.8914
 11  7 23 20  1  0.0000000  0  9G17G24G26G07G08G13G19G28G11
  19128780.46546  15002502.39143  24242312.2344                   24242315.4264
   9025225.91046   7679720.65243  23295905.8054   23295906.7114   22765901.21945
  17787698.52042                  24191747.9304                   24191748.1564
  -9418089.98447  -7311486.48446  20447932.1884                   20447929.7274
 -16680441.13347 -12937761.44546  21110660.4384                   21110657.8594
  13930367.85547  10872212.96543  22827409.9454                   22827409.6884
   7455788.84446   5769065.87144  22725015.3754                   22725011.6484
 -11222916.56247  -6120334.05144  22555146.0554                   22555143.2974
 -13337416.31247  -8867976.30544  22002656.7584                   22002654.4654
 11  7 23 20  1 30.0000000  0  9G17G24G26G07G08G13G19G28G11
  18916096.21946  14836774.65643  24201840.2664                   24201843.0744
   8844671.48446   7539029.05143  23261547.1804   23261547.8284   22569839.32846
  17634923.03142                  24154439.6024                   24154439.6214
  -9537153.02347  -7404262.87946  20425275.6644                   20425273.0514
 -16851283.74647 -13070885.55145  21078149.7504                   21078147.5084
  13925564.98847  10868470.34844  22826496.4774                   22826496.3634
   7433810.27746   5751939.68845  22720833.0004                   22720829.0514
 -11366618.22747  -6232309.34844  22527800.3204                   22527797.5394
 -13489483.74247  -8986470.35245  21973718.5944                   21973716.4694
 11  7 23 20  2  0.0000000  0  9G17G24G26G07G08G13G19G28G11
  18703554.10946  14671157.62143  24161394.4694                   24161397.4144
   8664306.86347   7398485.39143  23227224.9064   23227225.2154   22374172.00846
  17482455.03142                  24117204.9534                   24117205.3364
  -9655826.19547  -7496735.48046  20402692.7344                   20402690.0084
 -17021905.35547 -13203837.42645  21045682.1094                   21045679.3094
  13920937.53147  10864864.41444  22825615.7424                   22825615.6764
   7412122.52046   5735040.09844  22716706.1414                   22716701.3634
 -11510217.00447  -6344204.48844  22500474.8674                   22500471.6054
 -13641094.23847  -9104608.36345  21944868.5234                   21944866.6134
 11  7 23 20  2 30.0000000  0  9G17G24G26G07G08G13G19G28G11
  18491154.87546  14505652.00443  24120975.3834                   24120978.7154
   8484134.10546   7258091.17243  23192937.8984   23192939.0084   22178900.71546
  17330295.60542                  24080045.2504                   24080046.1684
  -9774108.94947  -7588903.85546  20380183.9534                   20380181.3324
 -17192304.71947 -13336616.13746  21013255.8834                   21013253.6174
  13916481.57047  10861392.10543  22824767.8914                   22824767.8914
   7390721.57046   5718364.03544  22712633.0394                   22712628.8954
 -11653715.09447  -6456021.15244  22473168.3594                   22473164.8014
 -13792247.01647  -9222389.69944  21916105.4774                   21916103.1484
 11  7 23 20  3  0.0000000  0  9G17G24G26G07G08G13G19G28G11
  18278891.50046  14340252.21143  24080583.5084                   24080585.6804
   8304147.52346   7117842.05143  23158688.1484   23158689.5314   21984019.56346
  17178440.21142                  24042962.1804                   24042962.8324
  -9892008.73447  -7680773.81646  20357748.9774                   20357745.8714
 -17362488.46147 -13469226.82446  20980870.8054                   20980868.9264
  13912185.25047  10858044.18843  22823949.8204                   22823950.7424
   7369595.89146   5701902.44144  22708613.3754                   22708609.5514
 -11797121.78947  -6567766.59444  22445878.6954                   22445875.8244
 -13942948.63347  -9339819.48044  21887428.0784                   21887425.3094
 11  7 23 20  3 30.0000000  0  9G17G24G26G07G08G13G19G28G11
  18066764.52346  14174958.71543  24040216.2814                   24040219.1414
   8124348.54746   6977739.10943  23124472.4454   23124474.7704   21789529.73446
  17026889.71142                  24005951.1414                   24005953.0274
 -10009525.59047  -7772345.39846  20335386.3364                   20335383.4144
 -17532455.54747 -13601668.69946  20948527.1644                   20948524.9144
  13908043.79747  10854816.94943  22823161.8444                   22823162.7774
   7348740.84046   5685651.73044  22704644.5784                   22704641.1764
 -11940439.86747  -6679442.98844  22418605.8914                   22418603.9024
 -14093198.50047  -9456897.25044  21858835.9614                   21858833.5904
 11  7 23 20  4  0.0000000  0  9G17G24G26G07G08G13G19G28G11
  17854771.53146  14009769.62943  23999875.3444                   23999878.2504
   7944735.91846   6837781.40243  23090293.3364   23090295.0514   21595429.42246
  16875642.81342                  23969014.6024                   23969015.9694
 -10126662.65247  -7863621.03946  20313095.5944                   20313092.8364
 -17702208.13747 -13733943.43446  20916224.3284                   20916222.0394
  13904049.88747  10851704.66444  22822402.9844                   22822402.2814
   7328149.54747   5669606.57044  22700726.4774                   22700722.5784
 -12083674.21947  -6791054.11345  22391348.3594                   22391346.7664
 -14242998.70747  -9573624.62144  21830330.3594                   21830327.1724
 11  7 23 20  4 30.0000000  0  9G17G24G26G07G08G13G19G28G11
  17642910.00846  13844682.94143  23959559.6174                   23959561.1644
   7765308.13746   6697967.70743  23056149.1644   23056150.5004   21401717.00046
  16724698.10542                  23932152.0704                   23932152.8484
 -10243422.74247  -7954602.93746  20290877.0314                   20290873.8524
 -17871748.42248 -13866052.71546  20883961.7894                   20883959.8914
  13900195.85247  10848701.37944  22821669.3444                   22821669.1524
   7307814.74646   5653761.23844  22696856.3134                   22696853.0824
 -12226830.32047  -6902604.28944  22364107.7814                   22364105.2544
 -14392351.81247  -9690003.60244  21801908.7344                   21801905.8914
 11  7 23 20  5  0.0000000  0  9G17G24G26G07G08G13G19G28G11
  17431178.46146  13679697.50043  23919268.4064                   23919269.6604
   7586065.16846   6558298.03143  23022040.2504   23022041.7894   21208391.40246
  16574054.83643                  23895364.1804                   23895364.1094
 -10359807.80947  -8045292.59046  20268729.6724                   20268727.1024
 -18041077.22347 -13997997.19546  20851739.4144                   20851737.6644
  13896475.18047  10845802.00044  22820961.5944                   22820961.5514
   7287730.05147   5638110.82844  22693035.1024                   22693031.1524
 -12369912.16447  -7014096.61345  22336880.1804                   22336877.4064
 -14541258.85947  -9806035.00844  21773572.5784                   21773569.5904
 11  7 23 20  5 30.0000000  0  9G17G24G26G07G08G13G19G28G11
  17219575.68047  13514812.42643  23879001.6414                   23879003.4184
   7407006.87946   6418772.24243  22987966.6254   22987968.0664   21015452.57446
  16423712.94543                  23858650.0004                   23858648.1454
 -10475819.46947  -8135691.28946  20246653.4144                   20246650.5434
 -18210195.48047 -14129777.65246  20819557.7274                   20819554.9264
  13892881.60547  10843001.66843  22820277.3284                   22820278.1564
   7267889.35947   5622650.52344  22689259.3204                   22689255.1994
 -12512923.78147  -7125534.19545  22309665.9144                   22309662.7234
 -14689720.84847  -9921719.62545  21745321.3594                   21745319.0664
 11  7 23 20  6  0.0000000  0  9G17G24G26G07G08G13G19G28G11
  17008099.84047  13350026.27344  23838758.8444                   23838761.1524
   7228132.41446   6279389.67643  22953929.4144   22953929.7544   20822899.05946
  16273671.28542                  23822007.2504                   23822006.4104
 -10591460.06247  -8225800.84046  20224647.7974                   20224644.5234
 -18379104.61747 -14261395.14846  20787415.3444                   20787413.0434
  13889408.13347  10840294.91444  22819616.8594                   22819617.5664
   7248285.83247   5607375.02344  22685529.1804                   22685524.8014
 -12655869.79747  -7236920.66844  22282463.9224                   22282460.8714
 -14837739.82447 -10037059.02745  21717154.0704                   21717152.4494
 11  7 23 20  6 30.0000000  0  9G17G24G26G07G08G13G19G28G11
  16796749.73846  13185338.09443  23798540.1804                   23798541.6684
   7049441.63346   6140150.28543  22919925.1564   22919925.5744   20630730.66846
  16123929.71943                  23785438.1804                   23785438.9534
 -10706731.63747  -8315622.84046  20202711.7814                   20202709.2854
 -18547805.20347 -14392850.14846  20755312.6174                   20755310.1724
  13886048.67647  10837676.99644  22818977.6564                   22818978.7664
   7228913.94146   5592280.04344  22681842.0634                   22681838.6684
 -12798754.39847  -7348259.27744  22255273.6954                   22255270.8874
 -14985316.61347 -10152053.87545  21689071.2194                   21689069.1644
 11  7 23 20  7  0.0000000  0  9G17G24G26G07G08G13G19G28G11
  16585527.73046  13020749.72344  23758345.2424                   23758347.2074
   6870937.97747   6001056.69543  22885956.6954   22885957.1564   20438950.12145
  15974490.36343                  23748943.9144                   23748944.1724
 -10821632.39847  -8405155.90246  20180847.5634                   20180844.4414
 -18716294.83648 -14524140.74646  20723249.7974                   20723247.5434
  13882800.71947  10835145.99644  22818359.1174                   22818359.9184
   7209771.11346   5577363.52344  22678200.4924                   22678195.3324
 -12941577.73047  -7459550.14144  22228094.9534                   22228092.7154
 -15132448.60947 -10266702.13745  21661073.0234                   21661071.0904
 11  7 23 20  7 30.0000000  0  9G17G24G26G07G08G13G19G28G11
  16374434.08246  12856261.34443  23718174.8364                   23718177.5864
   6692623.37546   5862110.36743  22852024.4384   22852024.6954   20247558.54745
  15825354.18042                  23712523.1954                   23712524.1254
 -10936162.25047  -8494399.93046  20159053.1024                   20159050.1604
 -18884572.43748 -14655266.13346  20691227.4144                   20691225.5904
  13879659.51647  10832698.15643  22817761.9614                   22817762.3134
   7190852.96547   5562622.07844  22674599.9534                   22674596.0554
 -13084342.18747  -7570795.12945  22200928.9384                   22200926.1764
 -15279135.57047 -10381003.60945  21633159.0084                   21633156.1884
 11  7 23 20  8  0.0000000  0  9G17G24G26G07G08G13G19G28G11
  16163468.09046  12691872.46943  23678030.5944                   23678031.9104
   6514498.04747   5723311.56343  22818127.9304   22818128.8094   20056556.05945
  15676521.16042                  23676176.3754                   23676176.6294
 -11050322.31248  -8583355.82046  20137329.7424                   20137325.9574
 -19052638.31248 -14786226.53546  20659246.1334                   20659243.7234
  13876619.35247  10830329.02044  22817183.9384                   22817184.5234
   7172154.07446   5548051.47744  22671041.3674                   22671038.0634
 -13227051.11347  -7681996.84845  22173771.7664                   22173769.8554
 -15425377.79747 -10494958.53945  21605329.6884                   21605327.8284
 11  7 23 20  8 30.0000000  0  9G17G24G26G07G08G13G19G28G11
  17528056.44946  13755188.29343  23937701.4534                   23937704.2074
   7911988.66446   6812265.44143  23084060.0004   23084062.0084   21441369.35946
  16755596.56342                  23939697.8364                   23939697.5704
  -9588689.90247  -7444421.47746  20415468.8284                   20415465.8364
 -17645066.54748 -13689417.35246  20927097.8054                   20927095.7304
  15449094.97347  12055634.50443  23116416.1884                   23116417.0554
   8729089.86346   6761248.18444  22967316.9534                   22967312.4454
 -11794283.01647  -6565554.13344  22446419.0164                   22446415.5864
 -13995750.78947  -9380963.40645  21877379.2274                   21877376.2504
 11  7 23 20  9  0.0000000  0  9G17G24G26G07G08G13G19G28G11
  17317347.49646  13590999.69943  23897605.2034                   23897607.7194
   7734246.89846   6673765.52043  23050238.2344   23050239.2894   21251148.87946
  16607372.84843                  23903499.9534                   23903500.1134
  -9702110.67247  -7532801.28946  20393885.2194                   20393882.3524
 -17812705.80148 -13820045.31646  20895196.8594                   20895194.8954
  15446243.23047  12053412.22343  23115873.3674                   23115873.4024
   8710816.77047   6747009.39544  22963839.4224                   22963835.4804
 -11936887.89847  -6676674.77744  22419280.7974                   22419278.8164
 -14141102.10247  -9494224.12945  21849719.4144                   21849717.6684
 11  7 23 20  9 30.0000000  0  9G17G24G26G07G08G13G19G28G11
  17106768.40646  13426912.29343  23857533.9304                   23857536.1214
   7556699.84046   6535417.28944  23016451.5234   23016452.8634   21061321.25446
  16459455.28943                  23867377.1414                   23867376.9924
  -9815161.48447  -7620892.83246  20372372.2114                   20372369.5044
 -17980129.73448 -13950505.50846  20863337.3134                   20863335.3834
  15443479.61747  12051258.59843  23115347.5314                   23115347.1954
   8692750.90247   6732932.05144  22960401.9224                   22960398.2504
 -12079443.39847  -6787756.93444  22392153.8054                   22392151.1134
 -14286006.48447  -9607136.59045  21822145.6094                   21822143.2234
 11  7 23 20 10  0.0000000  0  9G17G24G26G07G08G13G19G28G11
  16896316.54746  13262924.00843  23817485.4844                   23817486.9304
   7379346.34846   6397219.90244  22982702.6334   22982703.5004   20871885.12146
  16311842.77743                  23831329.3444                   23831328.3634
  -9927845.44947  -7708698.50846  20350929.1644                   20350925.8794
 -18147340.64548 -14080799.72346  20831518.4384                   20831516.4224
  15440796.67647  12049167.82443  23114837.1094                   23114837.5634
   8674884.79347   6719010.39144  22957001.6254                   22956997.5434
 -12221954.69147  -6898804.66844  22365034.7034                   22365031.5824
 -14430466.38347  -9719702.69545  21794655.2814                   21794653.6024
 11  7 23 20 10 30.0000000  0  9G17G24G26G07G08G13G19G28G11
  16685992.93846  13099035.68843  23777462.6024                   23777463.9774
   7202188.55546   6259175.02344  22948990.6024   22948991.5164   20682841.87946
  16164536.39143                  23795354.8674                   23795354.6604
 -10040161.61347  -7796217.60546  20329556.2664                   20329553.1524
 -18314336.58647 -14210926.41046  20799739.7974                   20799737.8164
  15438190.59046  12047136.94543  23114341.3984                   23114342.1764
   8657214.94947   6705241.60944  22953639.5554                   22953635.6844
 -12364423.23447  -7009819.10245  22337924.4774                   22337921.6214
 -14574480.81247  -9831921.69145  21767250.3054                   21767248.2274
 11  7 23 20 11  0.0000000  0  9G17G24G26G07G08G13G19G28G11
  16475799.39147  12935248.69543  23737463.9774                   23737464.8524
   7025229.23846   6121284.80544  22915315.5634   22915317.2584   20494194.15646
  16017538.21543                  23759456.1804                   23759455.7194
 -10152109.18047  -7883449.47746  20308253.0004                   20308250.5164
 -18481115.35548 -14340883.88746  20768003.0164                   20768000.7704
  15435657.87947  12045163.22343  23113859.6884                   23113859.3524
   8639738.18047   6691623.36344  22950313.4694                   22950309.0084
 -12506850.28947  -7120801.17645  22310820.8914                   22310818.6134
 -14718048.10247  -9943792.24645  21739930.5394                   21739928.2854
 11  7 23 20 11 30.0000000  0  9G17G24G26G07G08G13G19G28G11
  16265736.27746  12771563.35544  23697489.8364                   23697491.2704
   6848469.73847   5983550.26644  22881680.5234   22881681.1094   20305942.63346
  15870848.73043                  23723634.1954                   23723633.0394
 -10263688.73847  -7970394.59046  20287020.3754                   20287017.5354
 -18647676.21948 -14470671.56246  20736307.7894                   20736305.7424
  15433193.66047  12043242.90643  23113391.0784                   23113391.3524
   8622450.11747   6678152.09044  22947023.8284                   22947019.8674
 -12649238.39847  -7231752.93745  22283726.1954                   22283723.2774
 -14861167.82847 -10055314.05945  21712695.7894                   21712692.7114
 11  7 23 20 12  0.0000000  0  9G17G24G26G07G08G13G19G28G11
  16055808.23046  12607983.22743  23657541.8914                   23657543.2114
   6671916.07847   5845976.12144  22848082.3054   22848083.7194   20118092.72346
  15724472.14842                  23687887.0704                   23687886.5864
 -10374895.87947  -8057049.50046  20265858.2894                   20265855.1764
 -18814013.92648 -14600285.32846  20704654.5164                   20704652.6764
  15430798.07047  12041376.04343  23112934.9614                   23112935.4654
   8605350.93447   6664828.05544  22943770.3054                   22943765.5354
 -12791585.33647  -7342672.57845  22256637.1724                   22256635.7114
 -15003835.28547 -10166483.45345  21685546.9924                   21685544.6524
 11  7 23 20 12 30.0000000  0  9G17G24G26G07G08G13G19G28G11
  15846016.05146  12444508.96943  23617619.5704                   23617621.3284
   6495570.39147   5708564.01243  22814525.3284   22814525.6884   19930646.00846
  15578409.86742                  23652216.5394                   23652215.8754
 -10485730.14847  -8143413.87546  20244767.3204                   20244764.8164
 -18980126.81248 -14729723.89846  20673044.0704                   20673042.0704
  15428467.21947  12039559.57443  23112491.9224                   23112492.2034
   8588436.65247   6651648.05544  22940551.2504                   22940547.2034
 -12933892.59447  -7453561.30145  22229557.6564                   22229555.3324
 -15146049.74647 -10277299.86345  21658484.3594                   21658481.8714
 11  7 23 20 13  0.0000000  0  9G17G24G26G07G08G13G19G28G11
  15636363.05546  12281143.12944  23577723.2344                   23577725.2344
   6319436.89547   5571317.26644  22781007.5704   22781008.5234   19743606.34846
  15432664.69943                  23616625.0634                   23616622.5234
 -10596188.91047  -8229485.63346  20223747.9384                   20223745.0984
 -19146011.48448 -14858984.66846  20641477.4144                   20641474.9264
  15426199.12146  12037792.07443  23112059.7274                   23112060.9694
   8571705.85947   6638611.07844  22937367.8134                   22937364.5234
 -13076159.83647  -7564418.86344  22202484.7344                   22202482.3714
 -15287808.02747 -10387760.80945  21631508.2344                   21631506.3754
 11  7 23 20 13 30.0000000  0  9G17G24G26G07G08G13G19G28G11
  15426850.23446  12117886.55943  23537854.1804                   23537856.3794
   6143517.70347   5434237.50444  22747531.8284   22747532.2384   19556975.40646
  15287237.98843                  23581108.5314                   23581108.3014
 -10706272.20347  -8315264.82446  20202799.3984                   20202796.7504
 -19311666.49648 -14988066.47746  20609954.5784                   20609952.0664
  15423989.84047  12036070.37143  23111640.5944                   23111640.3594
   8555155.00047   6625714.24244  22934218.2664                   22934214.3984
 -13218388.62547  -7675246.44945  22175419.9304                   22175416.8914
 -15429109.03147 -10497865.43045  21604619.5944                   21604617.5434
 11  7 23 20 14  0.0000000  0  9G17G24G26G07G08G13G19G28G11
  15217482.34446  11954742.89543  23498012.5234                   23498014.1884
   5967818.96947   5297329.52344  22714097.6884   22714097.2234   19370758.36346
  15142133.85242                  23545672.4304                   23545672.7504
 -10815975.47347  -8400747.88746  20181923.2584                   20181920.6524
 -19477086.11747 -15116964.86346  20578475.5944                   20578473.4264
  15421839.37146  12034394.50443  23111230.5474                   23111231.7974
   8538784.25847   6612957.81344  22931102.6334                   22931099.3324
 -13360576.68047  -7786042.33645  22148362.4774                   22148359.1764
 -15569947.86747 -10607609.91845  21577818.4534                   21577815.7584
 11  7 23 20 14 30.0000000  0  9G17G24G26G07G08G13G19G28G11
  15008261.80946  11791714.07843  23458199.5394                   23458200.6884
   5792343.90247   5160595.87143  22680704.8134   22680705.5634   19184958.13746
  14997354.50443                  23510317.1484                   23510316.4104
 -10925296.78547  -8485933.33246  20161120.5164                   20161117.6334
 -19642267.78147 -15245677.84446  20547042.9304                   20547040.6914
  15419745.06646  12032762.39543  23110832.1254                   23110833.2894
   8522592.05546   6600340.49644  22928022.1724                   22928016.9184
 -13502724.39547  -7896806.75845  22121312.2974                   22121310.2854
 -15710322.68047 -10716992.84445  21551106.7894                   21551103.5554
 11  7 23 20 15  0.0000000  0  9G17G24G26G07G08G13G19G28G11
  14799189.09046  11628800.44543  23418414.3834                   23418415.5904
   5617094.62146   5024038.07443  22647355.2344   22647356.7544   18999576.15246
  14852901.05143                  23475039.4144                   23475039.7504
 -11034236.53947  -8570821.45346  20140390.2034                   20140387.1684
 -19807209.84448 -15374204.11746  20515655.0634                   20515653.2034
  15417702.75846  12031170.79343  23110443.3674                   23110444.4064
   8506573.13347   6587858.17644  22924973.5554                   22924970.2034
 -13644833.74647  -8007541.25845  22094269.3754                   22094266.9884
 -15850232.82047 -10826013.69145  21524481.9224                   21524479.1994
 11  7 23 20 15 30.0000000  0  9G17G24G26G07G08G13G19G28G11
  16165690.68846  12693607.11743  23678450.1564                   23678451.5554
   7017497.42246   6115261.14143  22913843.8914   22913843.8284   20390038.71546
  15936378.39843                  23739635.6724                   23739635.4064
  -9567372.34047  -7427810.39546  20419524.9454                   20419521.7704
 -18396486.77748 -14274939.35946  20784106.9924                   20784104.9884
  16991126.93846  13257215.37543  23409856.8204                   23409857.4384
  10066142.88746   7803107.31344  23221749.4224                   23221745.6254
 -12211483.10947  -6890644.62945  22367026.8284                   22367024.9184
 -14414253.96547  -9707069.10245  21797739.9924                   21797737.2894
 11  7 23 20 16  0.0000000  0  9G17G24G26G07G08G13G19G28G11
  15956915.48846  12530925.35244  23638721.2114                   23638723.0904
   6842704.52046   5979058.98443  22880582.0084   22880582.4804   20205496.44146
  15792579.31343                  23704518.6254                   23704518.0234
  -9675549.00847  -7512103.90246  20398939.9534                   20398936.6954
 -18560946.41047 -14403089.70746  20752811.1024                   20752809.1724
  16989175.09046  13255694.25043  23409485.5004                   23409486.2344
  10050459.33646   7790886.28944  23218765.3204                   23218761.8134
 -12353521.41047  -7001323.77045  22339998.1884                   22339996.0704
 -14553232.85947  -9815364.29745  21771293.2424                   21771291.0004
 11  7 23 20 16 30.0000000  0  9G17G24G26G07G08G13G19G28G11
  15748290.50847  12368360.61744  23599022.1254                   23599022.4064
   6668143.08246   5843037.19943  22847363.5944   22847363.4884   20021376.42246
  15649109.22343                  23669481.3674                   23669480.8284
  -9783343.66047  -7596099.74246  20378426.8674                   20378424.2814
 -18725162.94148 -14531050.62946  20721562.2344                   20721560.0044
  16987263.03146  13254204.14843  23409121.6724                   23409122.2584
  10034938.02046   7778791.73444  23215810.9534                   23215807.6804
 -12495527.12547  -7111977.55945  22312975.8444                   22312972.5784
 -14691745.48847  -9923296.18045  21744935.0784                   21744932.7274
 11  7 23 20 17  0.0000000  0  9G17G24G26G07G08G13G19G28G11
  15539815.57446  12205912.82844  23559350.6804                   23559351.6524
   6493813.93046   5707196.40243  22814189.0944   22814190.1054   19837678.76246
  15505968.25443                  23634524.8134                   23634524.4264
  -9890757.35247  -7679798.73446  20357987.0234                   20357983.9964
 -18889135.41048 -14658821.36746  20690359.4144                   20690357.0704
  16985385.46546  13252740.95343  23408764.5084                   23408765.1914
  10019573.81646   7766819.58644  23212887.5004                   23212884.6994
 -12637502.71147  -7222607.86345  22285958.6024                   22285955.5744
 -14829791.78547 -10030864.69145  21718665.2114                   21718663.4024
 11  7 23 20 17 30.0000000  0  9G17G24G26G07G08G13G19G28G11
  15331492.09847  12043583.06644  23519707.3914                   23519708.5634
   6319719.89846   5571538.82843  22781060.6024   22781061.1644   19654405.73846
  15363158.19943                  23599649.2504                   23599649.0664
  -9997789.28947  -7763200.24646  20337619.3204                   20337616.8554
 -19052861.53148 -14786400.14546  20659203.5394                   20659200.7074
  16983538.97746  13251301.90643  23408413.3364                   23408414.0164
  10004364.07447   7754967.79344  23209993.4774                   23209989.9264
 -12779449.37547  -7333215.61745  22258946.6644                   22258944.0784
 -14967370.44147 -10138068.79745  21692485.2664                   21692482.5984
 11  7 23 20 18  0.0000000  0  9G17G24G26G07G08G13G19G28G11
  15123322.10546  11881372.91044  23480093.6484                   23480095.0474
   6145864.43046   5436067.13743  22747976.7424   22747977.7344   19471559.94146
  15220680.99643                  23564855.4694                   23564854.9024
 -10104437.72747  -7846302.93046  20317324.8054                   20317321.8244
 -19216339.05948 -14913785.19546  20628094.3364                   20628092.1454
  16981720.84846  13249884.99243  23408068.3914                   23408068.6844
   9989306.20346   7743234.36744  23207128.1644                   23207124.5664
 -12921367.46947  -7443801.10245  22231940.7734                   22231938.2894
 -15104479.52747 -10244906.99645  21666393.8754                   21666391.4024
 11  7 23 20 18 30.0000000  0  9G17G24G26G07G08G13G19G28G11
  14915305.48447  11719282.23444  23440509.4924                   23440510.8594
   5972248.15647   5300781.87943  22714939.1564   22714939.3634   19289141.51646
  15078536.86343                  23530141.5554                   23530141.5904
 -10210703.71947  -7929107.60546  20297103.0784                   20297099.9804
 -19379567.57448 -15040976.23846  20597032.7664                   20597030.6174
  16979926.00446  13248486.21543  23407726.3594                   23407727.2304
   9974395.25047   7731615.41444  23204290.7344                   23204287.0274
 -13063259.73847  -7554366.47745  22204939.3524                   22204937.3484
 -15241119.79347 -10351379.91045  21640392.2504                   21640389.9344
 11  7 23 20 19  0.0000000  0  9G17G24G26G07G08G13G19G28G11
  14707444.30946  11557312.73043  23400954.4454                   23400955.8524
   5798874.65646   5165685.75843  22681946.7814   22681947.4534   19107153.42646
  14936727.98443                  23495510.6334                   23495510.0044
 -10316585.55147  -8011612.92646  20276954.8914                   20276951.8874
 -19542544.27748 -15167971.05546  20566019.5554                   20566016.9774
  16978152.06346  13247103.70343  23407388.9144                   23407389.8984
   9959628.89146   7720109.10944  23201480.3524                   23201477.0124
 -13205126.27347  -7664911.79345  22177943.6954                   22177940.3244
 -15377289.09047 -10457485.81245  21614480.0784                   21614477.1374
 11  7 23 20 19 30.0000000  0  9G17G24G26G07G08G13G19G28G11
  14499741.91846  11395466.88344  23361429.9304                   23361430.8914
   5625748.32046   5030782.21143  22649001.6804   22649002.4654   18925599.21546
  14795257.25843                  23460962.0004                   23460961.6094
 -10422080.77047  -8093817.00446  20256879.5864                   20256876.8524
 -19705265.00048 -15294766.41846  20535054.8594                   20535052.6484
  16976397.25847  13245736.09843  23407055.3914                   23407055.9774
   9945005.76246   7708714.41044  23198698.8364                   23198695.0164
 -13346966.73847  -7775436.80945  22150952.4144                   22150948.8134
 -15512984.30547 -10563222.32045  21588658.1724                   21588655.9884
 11  7 23 20 20  0.0000000  0  9G17G24G26G07G08G13G19G28G11
  14292201.69547  11233747.45743  23321936.4064                   23321936.8444
   5452873.65647   4896074.81344  22616105.1724   22616105.3484   18744482.96146
  14654127.75443                  23426496.6884                   23426495.7304
 -10527186.71947  -8175717.75046  20236878.7114                   20236875.3404
 -19867725.43747 -15421358.95346  20504139.5474                   20504137.3364
  16974660.64547  13244382.71143  23406724.8054                   23406726.4304
   9930525.47346   7697431.02044  23195942.4924                   23195939.0984
 -13488779.70347  -7885940.36745  22123965.6644                   22123962.4024
 -15648201.91847 -10668586.68045  21562927.0864                   21562924.6604
 11  7 23 20 20 30.0000000  0  9G17G24G26G07G08G13G19G28G11
  14084827.33246  11072157.24243  23282474.2504                   23282474.1684
   5280255.38746   4761567.18844  22583256.4844   22583256.8014   18563808.44946
  14513342.44143                  23392116.1174                   23392114.8094
 -10631900.57847  -8257312.97346  20216952.5084                   20216949.2464
 -20029921.59447 -15547745.53946  20473274.7504                   20473272.6174
  16972940.55947  13243042.14143  23406397.6954                   23406399.2384
   9916186.48046   7686257.73444  23193214.6024                   23193211.3134
 -13630564.30147  -7996421.84445  22096984.4924                   22096981.9104
 -15782939.15247 -10773576.69145  21537287.6254                   21537284.9804
 11  7 23 20 21  0.0000000  0  9G17G24G26G07G08G13G19G28G11
  13877618.79346  10910696.25443  23243043.4774                   23243044.1684
   5107894.62947   4627260.22744  22550457.8524   22550457.4844   18383576.35946
  14372901.90243                  23357819.6094                   23357817.4384
 -10736223.07047  -8338603.21946  20197100.2664                   20197097.2074
 -20191853.25847 -15673926.06246  20442460.0314                   20442457.5634
  16971232.13746  13241710.65643  23406072.6884                   23406074.4734
   9901984.10246   7675190.91843  23190511.4924                   23190507.2304
 -13772323.21947  -8106883.30545  22070008.7734                   22070006.2344
 -15917196.30947 -10878192.63345  21511739.0864                   21511736.1214
 11  7 23 20 21 30.0000000  0  9G17G24G26G07G08G13G19G28G11
  13670578.09846  10749366.05543  23203643.8444                   23203644.8914
   4935795.07847   4493156.76644  22517707.1954   22517708.3914   18203789.49246
  14232808.28543                  23323607.1484                   23323605.3364
 -10840152.36747  -8419587.08646  20177323.1954                   20177320.0664
 -20353516.89547 -15799897.71546  20411696.4924                   20411694.6024
  16969533.14546  13240386.52343  23405749.8284                   23405751.0084
   9887916.77046   7664229.35244  23187834.6484                   23187830.9844
 -13914056.26647  -8217324.60945  22043038.4304                   22043035.0204
 -16050970.94547 -10982432.58645  21486283.1254                   21486279.9574
 11  7 23 20 22  0.0000000  0  9G17G24G26G07G08G13G19G28G11
  13463707.04746  10588168.04744  23164278.1564                   23164278.9384
   4763959.48447   4359259.03543  22485007.7194   22485008.7774   18024450.01246
  14093063.25443                  23289479.4534                   23289478.0314
 -10943687.64147  -8500263.92246  20157621.2344                   20157618.0204
 -20514910.46547 -15925658.93746  20380984.7034                   20380982.0704
  16967840.53146  13239067.33243  23405427.0234                   23405429.3364
   9873981.27746   7653370.46943  23185182.0704                   23185178.8244
 -14055764.53147  -8327746.60945  22016072.2664                   22016069.0904
 -16184262.01247 -11086295.73044  21460918.0394                   21460915.2734
 11  7 23 20 22 30.0000000  0  9G17G24G26G07G08G13G19G28G11
  14832430.88747  11654706.27744  23424737.5394                   23424738.2194
   6167812.67647   5453170.74644  22752152.9774   22752153.1054   19420982.30546
  15181270.19543                  23555230.1884                   23555229.5984
  -9471408.19147  -7353033.19146  20437786.2274                   20437783.3094
 -19100609.50447 -14823606.22346  20650117.0474                   20650114.3634
  18541567.70746  14465347.96943  23704897.8914                   23704899.6334
  11435591.75046   8870209.76243  23482346.6804                   23482343.9224
 -12622027.48047  -7210548.87545  22288902.8834                   22288900.5434
 -14741647.34847  -9962180.39145  21735438.7814                   21735436.2624
 11  7 23 20 23  0.0000000  0  9G17G24G26G07G08G13G19G28G11
  14625899.03146  11493772.53144  23385435.6334                   23385436.1134
   5996507.87147   5319686.61344  22719554.8054   22719554.8954   19242538.22346
  15042222.89142                  23521273.2814                   23521271.5784
  -9574158.10547  -7433098.05146  20418233.7504                   20418230.8244
 -19261460.80547 -14948944.88746  20619508.1724                   20619505.0634
  18539873.34446  14464027.48843  23704575.7894                   23704577.7074
  11421906.22746   8859545.68843  23479743.4924                   23479739.0004
 -12763693.63347  -7320938.03945  22261944.8284                   22261942.1604
 -14873972.52747 -10065290.89145  21710258.4534                   21710255.3404
 11  7 23 20 23 30.0000000  0  9G17G24G26G07G08G13G19G28G11
  14419539.01247  11332972.69544  23346166.7034                   23346166.7734
   5825472.57047   5186412.45744  22687007.6174   22687008.0274   19064544.82046
  14903526.78142                  23487402.0474                   23487401.6174
  -9676514.11747  -7512856.00046  20398755.8834                   20398753.1604
 -19422037.79747 -15074069.80946  20588951.1884                   20588948.2974
  18538173.32046  14462702.50843  23704252.0004                   23704254.5634
  11408341.30546   8848975.58644  23477161.8834                   23477157.8324
 -12905340.10547  -7431311.89845  22234990.1724                   22234987.2034
 -15005813.17647 -10168023.83245  21685169.4694                   21685167.2114
 11  7 23 20 24  0.0000000  0  9G17G24G26G07G08G13G19G28G11
  14213353.59847  11172308.92644  23306930.3834                   23306931.4494
   5654710.67647   5053351.35944  22654512.5634   22654513.0044   18887005.40646
  14765184.44142                  23453616.7344                   23453616.7664
  -9778474.29347  -7592305.48846  20379353.5864                   20379350.8714
 -19582336.78148 -15198978.09846  20558447.3674                   20558444.3204
  18536465.49246  14461371.47743  23703927.1564                   23703929.8284
  11394895.60246   8838498.37144  23474603.2974                   23474599.8404
 -13046966.21547  -7541669.85945  22208039.6804                   22208036.5204
 -15137166.48847 -10270377.02745  21660173.3674                   21660171.2034
 11  7 23 20 24 30.0000000  0  9G17G24G26G07G08G13G19G28G11
  14007342.60547  11011781.03144  23267728.1884                   23267728.1564
   5484223.49247   4920504.30144  22622069.6564   22622070.0784   18709920.40246
  14627196.14143                  23419919.5164                   23419918.7384
  -9880039.23447  -7671447.01246  20360026.8284                   20360023.9494
 -19742356.67648 -15323668.91046  20527996.7584                   20527994.2504
  18534745.50846  14460030.99643  23703600.6094                   23703602.2114
  11381564.66046   8828110.60544  23472067.0784                   23472062.7734
 -13188574.57047  -7652014.01645  22181092.7974                   22181089.7424
 -15268033.07047 -10372350.96145  21635270.9064                   21635267.5944
 11  7 23 20 25  0.0000000  0  9G17G24G26G07G08G13G19G28G11
  13801506.69547  10851389.58644  23228558.6414                   23228559.2974
   5314012.74247   4787872.66444  22589680.1414   22589679.8524   18533290.46946
  14489562.50843                  23386307.1254                   23386307.0594
  -9981209.25447  -7750280.80546  20340774.1884                   20340771.6454
 -19902096.35248 -15448141.37546  20497598.9774                   20497596.3954
  18533009.25046  14458677.82843  23703270.2734                   23703272.1764
  11368344.43846   8817809.07044  23469551.0784                   23469547.7274
 -13330167.20347  -7762345.91845  22154148.5234                   22154145.4774
 -15398412.86747 -10473945.57445  21610460.3284                   21610457.7734
 11  7 23 20 25 30.0000000  0  9G17G24G26G07G08G13G19G28G11
  13595846.02047  10691134.68044  23189423.1804                   23189423.2774
   5144079.35947   4655457.16844  22557342.2114   22557342.4144   18357116.25046
  14352283.93043                  23352783.2274                   23352782.2464
 -10081985.43047  -7828807.69946  20321597.6024                   20321594.6134
 -20061555.51648 -15572395.26246  20467254.6334                   20467252.4384
  18531251.76646  14457308.09043  23702936.3834                   23702937.7074
  11355230.55946   8807590.39144  23467055.2114                   23467052.3444
 -13471746.37147  -7872667.32045  22127206.3284                   22127203.8244
 -15528306.25847 -10575161.19145  21585742.1484                   21585739.8484
 11  7 23 20 26  0.0000000  0  9G17G24G26G07G08G13G19G28G11
  13390361.27046  10531016.85544  23150320.1174                   23150320.1994
   4974425.50447   4523259.48444  22525057.5004   22525057.7034   18181398.80146
  14215361.33243                  23319343.9454                   23319344.4774
 -10182367.26647  -7907027.31646  20302494.9224                   20302492.2974
 -20220732.51248 -15696429.28146  20436964.4614                   20436962.4414
  18529469.28946  14455918.90243  23702597.1884                   23702598.5124
  11342219.23846   8797451.69544  23464579.8914                   23464576.2734
 -13613313.48047  -7982979.31645  22100267.2504                   22100264.5204
 -15657712.76647 -10675997.41445  21561116.9304                   21561114.7384
 11  7 23 20 26 30.0000000  0  9G17G24G26G07G08G13G19G28G11
  13185057.72346  10371040.23444  23111251.9774                   23111252.2814
   4805057.53147   4391284.50844  22492828.5394   22492828.8554   18006143.86346
  14078799.06643                  23285994.5084                   23285994.5634
 -10282350.33647  -7984936.21546  20283469.0944                   20283466.4614
 -20379621.40648 -15820238.79346  20406728.9064                   20406726.7464
  18527662.62946  14454510.88343  23702253.4614                   23702255.5434
  11329311.94946   8787394.01644  23462123.1884                   23462119.9344
 -13754865.62547  -8093279.66045  22073331.2894                   22073328.1764
 -15786627.55947 -10776450.46545  21536585.0944                   21536582.9024
 11  7 23 20 27  0.0000000  0  9G17G24G26G07G08G13G19G28G11
  12979936.31647  10211205.55144  23072218.6564                   23072218.8204
   4635977.39147   4259533.82444  22460653.7734   22460653.3754   17831352.41446
  13942597.97343                  23252733.0864                   23252733.0474
 -10381934.84847  -8062534.53946  20264519.4304                   20264516.2814
 -20538220.52748 -15943822.52346  20376548.4304                   20376545.9064
  18525827.96946  14453081.03943  23701903.9774                   23701906.8714
  11316504.94146   8777414.46944  23459687.0474                   23459683.8164
 -13896404.34847  -8203569.53945  22046397.1644                   22046394.2734
 -15915050.25447 -10876520.06645  21512147.1564                   21512145.2774
 11  7 23 20 27 30.0000000  0  9G17G24G26G07G08G13G19G28G11
  12775000.49647  10051515.51644  23033220.4694                   23033220.7274
   4467189.97747   4128011.27044  22428534.9064   22428534.2234   17657028.62146
  13806761.30943                  23219560.1174                   23219560.0594
 -10481117.92647  -8139820.06646  20245645.2504                   20245642.1254
 -20696525.47748 -16067177.02046  20346423.8524                   20346421.4694
  18523964.22746  14451628.44943  23701550.4534                   23701553.2664
  11303797.61746   8767512.59844  23457267.2584                   23457265.3554
 -14037928.30147  -8313847.90645  22019465.6484                   22019462.8834
 -16042978.26647 -10976204.19145  21487803.4384                   21487800.5474
 11  7 23 20 28  0.0000000  0  9G17G24G26G07G08G13G19G28G11
  12570253.18446   9891972.31644  22994258.1724                   22994258.0234
   4298699.36747   3996719.97744  22396471.5634   22396471.6134   17483175.86746
  13671291.65643                  23186477.4454                   23186476.4804
 -10579897.23847  -8216790.96546  20226848.0394                   20226845.1914
 -20854532.38348 -16190299.27746  20316356.3204                   20316353.9264
  18522069.72346  14450151.97743  23701189.7814                   23701192.2814
  11291188.71146   8757687.42244  23454869.6414                   23454865.3404
 -14179436.70347  -8424114.18745  21992537.8364                   21992534.3874
 -16170408.40247 -11075500.37145  21463554.8364                   21463551.2894
 11  7 23 20 28 30.0000000  0  9G17G24G26G07G08G13G19G28G11
  12365701.49646   9732581.59044  22955333.6484                   22955333.7544
   4130513.77046   3865666.35244  22364466.3524   22364465.9384   17309801.36346
  13536194.64143                  23153485.4614                   23153484.3594
 -10678267.09847  -8293442.82046  20208128.5864                   20208125.8444
 -21012233.48848 -16313183.25846  20286347.0634                   20286344.8404
  18520147.15246  14448653.57443  23700824.3204                   23700826.7194
  11278680.49646   8747940.73444  23452488.7974                   23452485.0664
 -14320925.10247  -8534364.87545  21965613.0004                   21965610.8554
 -16297334.50047 -11174403.80545  21439401.1414                   21439398.4224
 11  7 23 20 29  0.0000000  0  9G17G24G26G07G08G13G19G28G11
  13736772.66847  10800948.92244  23216239.6254                   23216239.1994
   5538060.05147   4962455.74244  22632313.6724   22632313.9734   18712331.22346
  14629075.10243                  23420377.5784                   23420376.8984
  -9200804.32847  -7142173.13746  20489280.6254                   20489277.8794
 -19594202.70348 -15208224.18446  20556189.0004                   20556186.7704
  20093612.04746  15674729.79743  24000245.3284                   24000247.4614
  12841689.60546   9965869.87144  23749919.3054                   23749915.6094
 -12886970.57047  -7416997.68045  22238485.6954                   22238483.0474
 -14848332.51647 -10045311.32045  21715137.1884                   21715133.8874
 11  7 23 20 29 30.0000000  0  9G17G24G26G07G08G13G19G28G11
  13532614.03147  10641864.46144  23177388.9774                   23177389.2074
   5370489.38747   4831881.28144  22600426.6644   22600426.5664   18539915.83646
  14494725.51243                  23387567.7424                   23387567.2074
  -9298355.15247  -7218186.76246  20470717.1564                   20470714.7624
 -19751288.24648 -15330628.49246  20526296.7894                   20526294.4574
  20091621.12946  15673178.08643  23999865.8134                   23999868.3404
  12829372.16446   9956271.80143  23747575.6094                   23747572.3524
 -13028423.70347  -7527220.86345  22211568.4144                   22211564.7814
 -14974250.38747 -10143429.11745  21691175.7974                   21691173.0314
 11  7 23 20 30  0.0000000  0  9G17G24G26G07G08G13G19G28G11
  13328655.47747  10482935.88744  23138576.4844                   23138576.3134
   5203231.40647   4701550.45344  22568597.8284   22568597.9574   18367983.71146
  14360752.43843                  23354850.4774                   23354849.4184
  -9395494.16847  -7293879.51246  20452232.6484                   20452229.5664
 -19908061.41448 -15452789.38746  20496463.7974                   20496460.9264
  20089592.52046  15671597.07443  23999479.7114                   23999482.5784
  12817147.39847   9946745.98444  23745250.1024                   23745246.3284
 -13169859.16447  -7637430.27345  22184654.2734                   22184650.5164
 -15099661.28547 -10241151.85945  21667310.9534                   21667307.7734
 11  7 23 20 30 30.0000000  0  9G17G24G26G07G08G13G19G28G11
  13124900.96147  10324166.29344  23099803.6564                   23099802.9104
   5036291.32847   4571467.34444  22536830.2194   22536829.8984   18196539.61346
  14227159.65643                  23322225.8284                   23322225.1294
  -9492218.66848  -7369249.25846  20433826.3984                   20433823.0864
 -20064517.17248 -15574702.95346  20466691.0864                   20466688.8484
  20087526.11346  15669986.59043  23999087.0554                   23999089.6564
  12805015.00046   9937292.07843  23742940.3754                   23742937.6914
 -13311275.03947  -7747624.44545  22157743.3054                   22157740.7424
 -15224562.12147 -10338477.13345  21643542.8204                   21643540.2034
 11  7 23 20 31  0.0000000  0  9G17G24G26G07G08G13G19G28G11
  12921349.73447  10165555.07444  23061069.4614                   23061068.3444
   4869669.88747   4441632.51244  22505124.0634   22505122.7624   18025582.66846
  14093946.47343                  23289694.3444                   23289692.6884
  -9588529.70347  -7444296.82046  20415498.6644                   20415496.3054
 -20220655.49648 -15696369.16446  20436978.8204                   20436977.0634
  20085416.60946  15668342.52343  23998686.5784                   23998688.9414
  12792970.07446   9927906.41043  23740648.4844                   23740644.8284
 -13452674.14547  -7857805.52045  22130835.8914                   22130833.1374
 -15348953.88347 -10435405.75045  21619871.9844                   21619869.1564
 11  7 23 20 31 30.0000000  0  9G17G24G26G07G08G13G19G28G11
  12718007.70347  10007106.88344  23022374.1644                   23022373.3134
   4703373.87947   4312051.28944  22473478.8364   22473478.2154   17855119.57846
  13961118.12143                  23257255.9144                   23257254.5634
  -9684422.42247  -7519018.42646  20397251.0394                   20397248.3244
 -20376469.59848 -15817782.74646  20407328.6254                   20407325.9454
  20083265.12146  15666665.71143  23998277.2664                   23998279.4654
  12781014.34846   9918590.21543  23738373.8524                   23738369.9024
 -13594052.80147  -7967970.68045  22103932.7034                   22103929.4304
 -15472831.21547 -10531933.51645  21596298.3524                   21596296.3444
 11  7 23 20 32  0.0000000  0  9G17G24G26G07G08G13G19G28G11
  12514874.87947   9848821.69544  22983719.1414                   22983718.8054
   4537404.26647   4182724.38744  22441894.8444   22441894.4384   17685149.93846
  13828674.26243                  23224911.9384                   23224910.8984
  -9779898.05948  -7593415.02346  20379083.0004                   20379079.6414
 -20531958.80947 -15938943.16046  20377739.8204                   20377737.5904
  20081067.27046  15664952.78543  23997858.9774                   23997861.3134
  12769143.60946   9909340.25443  23736115.1484                   23736111.0824
 -13735413.46147  -8078121.81645  22077032.9534                   22077029.8524
 -15596195.00047 -10628061.14145  21572823.5474                   21572820.2464
 11  7 23 20 32 30.0000000  0  9G17G24G26G07G08G13G19G28G11
  12311957.21547   9690704.18044  22945105.9304                   22945105.0434
   4371768.38347   4053657.51644  22410375.3284   22410375.5664   17515680.25046
  13696620.00843                  23192662.6174                   23192661.1604
  -9874951.21947  -7667482.42646  20360994.9384                   20360991.9144
 -20687116.30148 -16059845.08646  20348214.3674                   20348211.7704
  20078824.89145  15663205.10942  23997431.9774                   23997434.8134
  12757359.75446   9900157.98043  23733872.0784                   23733869.2934
 -13876752.13347  -8188255.80945  22050136.2734                   22050133.5434
 -15719040.04347 -10723784.52745  21549446.4454                   21549444.0124
 11  7 23 20 33  0.0000000  0  9G17G24G26G07G08G13G19G28G11
  12109260.36347   9532758.74244  22906532.8444                   22906532.7304
   4206472.76647   3924855.82444  22378920.7734   22378921.1844   17346716.52046
  13564960.01643                  23160509.7814                   23160508.9774
  -9969576.98447  -7741216.79346  20342987.8834                   20342985.0744
 -20841936.06648 -16180483.85546  20318753.4534                   20318751.2274
  20076539.07446  15661423.63342  23996997.4534                   23997000.4614
  12745663.97346   9891044.36344  23731646.8364                   23731643.9024
 -14018065.14147  -8298369.82045  22023245.3364                   22023242.0234
 -15841361.15247 -10819099.65645  21526169.9304                   21526166.4654
 11  7 23 20 33 30.0000000  0  9G17G24G26G07G08G13G19G28G11
  11906785.42247   9374986.18845  22868003.1024                   22868002.6174
   4041519.76647   3796321.04744  22347531.2894   22347531.3554   17178259.67246
  13433694.95743                  23128452.9844                   23128453.1724
 -10063775.27748  -7814618.06646  20325062.7194                   20325060.0044
 -20996415.65248 -16300857.55546  20289356.8754                   20289354.5634
  20074206.18446  15659605.50442  23996554.3134                   23996556.9144
  12734053.45346   9881997.12543  23729437.1564                   23729434.2894
 -14159353.82047  -8408464.87145  21996359.0234                   21996356.2584
 -15963158.05947 -10914006.30945  21502992.3754                   21502989.4774
 11  7 23 20 34  0.0000000  0  9G17G24G26G07G08G13G19G28G11
  11704535.02047   9217388.63344  22829516.0084                   22829515.4414
   3876913.51647   3668056.47744  22316207.6254   22316207.6994   17010312.79346
  13302827.32043                  23096493.3134                   23096493.0474
 -10157544.37947  -7887684.91446  20307219.5234                   20307216.4774
 -21150551.42648 -16420963.35546  20260025.8134                   20260023.6134
  20071824.73046  15657749.51642  23996101.2034                   23996105.2344
  12722526.86346   9873015.31343  23727243.8204                   23727240.5944
 -14300617.45347  -8518540.39545  21969477.2814                   21969474.0664
 -16084428.53947 -11008502.78944  21479915.3674                   21479912.4064
 11  7 23 20 34 30.0000000  0  9G17G24G26G07G08G13G19G28G11
  11502514.43047   9059970.12544  22791072.5474                   22791072.4574
   3712660.04347   3540066.82444  22284951.4924   22284950.6024   16842881.18046
  13172361.11343                  23064632.5314                   23064632.6994
 -10250879.91847  -7960413.91446  20289458.2344                   20289455.3524
 -21304337.66048 -16540796.77346  20230761.0164                   20230758.6724
  20069395.43446  15655856.27342  23995638.6804                   23995643.6914
  12711085.16046   9864099.62944  23725066.6954                   23725063.3554
 -14441853.34047  -8628594.30145  21942601.3834                   21942598.3674
 -16205168.03147 -11102585.48445  21456939.1174                   21456937.0864
 11  7 23 20 35  0.0000000  0  9G17G24G26G07G08G13G19G28G11
  11300720.43047   8902728.16844  22752672.6024                   22752671.7624
   3548757.34047   3412350.50044  22253761.0394   22253761.4064   16675961.77346
  13042294.07443                  23032868.9304                   23032869.1214
 -10343786.37947  -8032808.57446  20271778.1884                   20271775.4694
 -21457776.80148 -16660359.73446  20201562.7584                   20201559.9924
  20066910.80146  15653919.83642  23995166.5944                   23995171.0124
  12699720.98846   9855244.39544  23722904.6884                   23722900.7034
 -14583066.46147  -8738630.46545  21915729.2114                   21915726.2234
 -16325380.69947 -11196257.69945  21434063.6804                   21434061.1054
 11  7 23 20 35 30.0000000  0  9G17G24G26G07G08G13G19G28G11
  11099159.32047   8745667.69944  22714316.2814                   22714316.2624
   3385212.93447   3284913.35244  22222639.9694   22222640.3714   16509561.18846
  12912631.30543                  23001203.5554                   23001203.0744
 -10436257.86347  -8104864.28546  20254181.3204                   20254178.8984
 -21610861.35548 -16779646.39846  20172431.3444                   20172428.7424
  20064373.03546  15651941.93043  23994684.6884                   23994687.8204
  12688436.67646   9846451.37543  23720755.9614                   23720753.3244
 -14724252.21947  -8848645.31645  21888862.4144                   21888859.4574
 -16445060.93047 -11289514.98845  21411289.7814                   21411286.5474
 11  7 23 20 36  0.0000000  0  9G17G24G26G07G08G13G19G28G11
  12473263.10947   9816398.03144  22975799.1094                   22975798.6564
   4797458.51247   4385364.50844  22491381.4534   22491381.6484   17919110.32046
  14010981.35943                  23269432.4304                   23269431.2194
  -8952867.25447  -6948975.50446  20536461.6564                   20536458.6454
 -20188160.23448 -15671048.11346  20443162.3984                   20443160.0274
  21637203.03146  16877523.44142  24293984.0634                   24293988.0554
  14252653.85546  11065321.82043  24018417.4144                   24018414.3244
 -13289982.96547  -7731032.89145  22161794.5634                   22161791.7154
 -14988780.14547 -10154750.73045  21688410.4224                   21688407.2814
 11  7 23 20 36 30.0000000  0  9G17G24G26G07G08G13G19G28G11
  12272173.10947   9659704.64544  22937533.2974                   22937533.0824
   4634639.06647   4258492.30144  22460397.9534   22460397.7734   17753752.98046
  13882131.47343                  23237965.3754                   23237964.1844
  -9044466.87547  -7020351.85246  20519031.2114                   20519027.7504
 -20340528.22348 -15789776.40246  20414168.0234                   20414165.5904
  21634550.73446  16875456.33242  24293479.2274                   24293483.4414
  14241522.71146  11056648.16843  24016299.8834                   24016296.7584
 -13431115.59847  -7841006.36345  22134938.1094                   22134934.6724
 -15107392.35247 -10247175.80145  21665839.3204                   21665836.4844
 11  7 23 20 37  0.0000000  0  9G17G24G26G07G08G13G19G28G11
  12071317.17247   9503193.62944  22899312.0474                   22899311.2234
   4472182.05947   4131902.49644  22429483.2344   22429483.1764   17588915.70346
  13753686.87543                  23206598.8054                   23206596.7074
  -9135633.44547  -7091390.74646  20501682.6484                   20501678.9804
 -20492538.21948 -15908225.74646  20385241.5084                   20385239.2384
  21631833.19946  16873338.43843  24292962.9694                   24292965.9304
  14230460.60946  11048028.27743  24014194.5234                   24014191.0354
 -13572226.44147  -7950962.84845  22108085.6174                   22108082.1524
 -15225473.28947 -10339186.91845  21643368.8284                   21643366.4104
 11  7 23 20 37 30.0000000  0  9G17G24G26G07G08G13G19G28G11
  11870700.70347   9346869.21544  22861135.8054                   22861135.0744
   4310094.35547   4005600.45344  22398638.9924   22398638.8284   17424604.28546
  13625652.03143                  23175330.6484                   23175330.3324
  -9226362.71147  -7162088.88346  20484417.4144                   20484414.2074
 -20644184.07047 -16026391.34046  20356383.6484                   20356381.6804
  21629051.25446  16871170.35243  24292434.0084                   24292435.7074
  14219468.72746  11039463.15243  24012101.8674                   24012099.5904
 -13713311.89547  -8060899.52745  22081237.7114                   22081234.4734
 -15343018.43747 -10430780.51645  21621001.3204                   21620998.0474
 11  7 23 20 38  0.0000000  0  9G17G24G26G07G08G13G19G28G11
  11670320.17247   9190728.65244  22823004.3204                   22823003.6884
   4148373.70347   3879584.43044  22367864.8524   22367864.1914   17260815.22746
  13498024.23843                  23144162.8834                   23144161.3594
  -9316658.63747  -7232449.34846  20467234.3524                   20467231.4574
 -20795468.11348 -16144275.01246  20327595.9844                   20327593.7194
  21626197.58646  16868946.34843  24291890.7664                   24291894.2664
  14208540.03546  11030947.23043  24010022.0234                   24010019.7384
 -13854377.07047  -8170820.43445  22054393.8984                   22054390.7734
 -15460032.04347 -10521959.93745  21598734.4454                   21598731.0904
 11  7 23 20 38 30.0000000  0  9G17G24G26G07G08G13G19G28G11
  11470175.77747   9034772.08244  22784918.9534                   22784917.6334
   3987021.10547   3753855.22344  22337160.2114   22337159.7344   17097548.82446
  13370803.71543                  23113094.2344                   23113093.0234
  -9406522.41447  -7302473.08646  20450133.9064                   20450131.3554
 -20946389.73448 -16261876.27046  20298876.2424                   20298873.8244
  21623267.87946  16866663.05943  24291334.0784                   24291336.8484
  14197670.46146  11022477.39543  24007954.7814                   24007951.3444
 -13995424.17647  -8280727.24245  22027553.0784                   22027550.9614
 -15576514.69147 -10612725.62145  21576567.7424                   21576565.3484
 11  7 23 20 39  0.0000000  0  9G17G24G26G07G08G13G19G28G11
  11270266.63747   8878998.84044  22746876.7664                   22746876.1884
   3826036.73047   3628412.90644  22306526.6414   22306525.1764   16934803.98847
  13243989.59843                  23082125.2584                   23082123.7544
  -9495956.06647  -7372161.65646  20433115.1954                   20433112.1024
 -21096948.57047 -16379194.83246  20270225.9844                   20270223.5354
  21620257.03146  16864316.54743  24290761.3594                   24290765.3134
  14186855.09046  11014049.78943  24005895.6564                   24005893.7304
 -14136455.85947  -8390622.05145  22000716.3984                   22000713.6374
 -15692468.22747 -10703079.00045  21554502.6254                   21554500.0314
 11  7 23 20 39 30.0000000  0  9G17G24G26G07G08G13G19G28G11
  11070592.73047   8723408.91044  22708879.4384                   22708879.2424
   3665421.41447   3503258.21544  22275961.2814   22275961.1414   16772581.09846
  13117582.14843                  23051255.2734                   23051254.5434
  -9584960.28147  -7441515.61346  20416178.9534                   20416175.3484
 -21247143.64148 -16496229.94946  20241644.6334                   20241642.5984
  21617160.84446  16861903.54743  24290171.8204                   24290176.4654
  14176090.02046  11005661.39143  24003848.6334                   24003844.9264
 -14277474.10247  -8500506.38745  21973881.6484                   21973878.7854
 -15807893.30947 -10793020.60545  21532538.1484                   21532535.3054
 11  7 23 20 40  0.0000000  0  9G17G24G26G07G08G13G19G28G11
  10871154.32047   8568002.46144  22670927.7894                   22670926.9964
   3505176.39846   3378392.02044  22245467.3134   22245467.1914   16610879.78547
  12991581.17243                  23020484.7894                   23020483.4414
  -9673536.52747  -7510536.07846  20399323.0164                   20399319.9654
 -21396974.37148 -16612981.17246  20213132.6804                   20213130.6024
  21613974.83646  16859420.53143  24289567.1414                   24289571.1414
  14165371.21146  10997309.03143  24001808.4534                   24001804.4534
 -14418481.28147  -8610382.09845  21947048.3914                   21947045.5314
 -15922791.18447 -10882551.40244  21510673.7584                   21510670.4774
 11  7 23 20 40 30.0000000  0  9G17G24G26G07G08G13G19G28G11
  10671949.81347   8412778.28144  22633020.0394                   22633019.4454
   3345302.00447   3253814.65644  22215044.3524   22215044.3054   16449699.25046
  12865985.95743                  22989812.4614                   22989811.5164
  -9761686.11347  -7579224.08646  20382548.3674                   20382545.8914
 -21546441.12947 -16729448.77346  20184690.1094                   20184688.2704
  21610693.97346  16856863.62942  24288941.7194                   24288947.3754
  14154693.84046  10988988.95743  23999776.2424                   23999772.9734
 -14559480.02347  -8720251.21945  21920216.9614                   21920213.5204
 -16037163.82047 -10971672.92245  21488909.7734                   21488905.9384
 11  7 23 20 41  0.0000000  0  9G17G24G26G07G08G13G19G28G11
  10472974.87547   8257733.00844  22595156.2734                   22595155.8834
   3185794.62947   3129523.26244  22184691.6024   22184690.9144   16289034.67646
  12740792.83643                  22959239.4774                   22959238.3754
  -9849415.27047  -7647584.46946  20365854.5474                   20365851.3164
 -21695547.31648 -16845635.40646  20156316.3834                   20156313.9304
  21607309.71946  16854226.09442  24288299.2424                   24288303.8554
  14144049.78946  10980694.85543  23997751.0704                   23997747.1334
 -14700476.78147  -8830118.80145  21893386.0944                   21893383.3674
 -16151016.33247 -11060389.14145  21467244.4224                   21467241.3714
 11  7 23 20 41 30.0000000  0  9G17G24G26G07G08G13G19G28G11
  10274233.34047   8102869.55544  22557337.2424                   22557335.8984
   3026659.02347   3005521.57044  22154409.1564   22154408.9144   16128890.29747
  12616005.02344                  22928765.0084                   22928763.8364
  -9936721.21147  -7715615.08646  20349240.8054                   20349237.6054
 -21844288.07047 -16961537.28546  20128011.8594                   20128008.7274
  21603821.80546  16851507.84042  24287635.8054                   24287640.9184
  14133438.90246  10972426.57843  23995731.3674                   23995728.7074
 -14841469.61747  -8939983.32845  21866556.2894                   21866553.5354
 -16264345.91447 -11148697.89145  21445678.3984                   21445675.4614
 11  7 23 20 42  0.0000000  0  9G17G24G26G07G08G13G19G28G11
  10075726.28147   7948188.85244  22519562.3364                   22519561.3834
   2867897.54347   2881811.39144  22124197.6254   22124196.7664   15969266.93846
  12491623.18844                  22898389.7114                   22898388.7194
 -10023603.61747  -7783315.68046  20332707.2894                   20332704.3324
 -21992661.32448 -17077152.79746  20099776.9534                   20099775.2074
  21600226.660 6                  24286951.625
  14122858.41046  10964181.96543  23993718.8984                   23993714.9614
 -14982459.51647  -9049845.57845  21839726.7814                   21839723.1884
 -16377152.60547 -11236599.18045  21424211.9774                   21424208.8714
 11  7 23 20 42 30.0000000  0  9G17G24G26G07G08G13G19G28G11
   9877454.02747   7793691.09444  22481831.7974                   22481831.2154
   2709511.28147   2758393.60944  22094056.9534   22094056.6524   15810164.78946
  12367647.46144                  22868113.2974                   22868112.8874
 -10110063.43447  -7850686.97746  20316254.7814                   20316251.6724
 -22140666.43748 -17192481.45746  20071612.9534                   20071610.6954
  21596520.875 6                  24286246.578
  14112304.68446  10955958.21543  23991711.4774                   23991706.6414
 -15123447.71147  -9159706.48845  21812897.6954                   21812894.9774
 -16489437.07447 -11324093.55145  21402845.1884                   21402841.9774
 11  7 23 20 43  0.0000000  0  9G17G24G26G07G08G13G19G28G11
  11254843.47347   8866981.66844  22743940.4384                   22743940.2734
   4126926.76647   3862873.27044  22363782.6174   22363782.0824   17227009.41046
  13471682.26243                  23137729.7344                   23137729.0204
  -8620678.10247  -6690126.98846  20599675.4384                   20599672.1484
 -20712876.81648 -16079918.10946  20343311.8054                   20343309.9304
                                  23168120.355 6                  24585311.539
  15677194.74246  12175353.00443  24289500.1804                   24289495.3134
 -13689011.13347  -8041963.68445  22085861.9384                   22085858.5394
 -15025776.04747 -10183578.45345  21681370.2584                   21681366.6054
 11  7 23 20 43 30.0000000  0  9G17G24G26G07G08G13G19G28G11
  11057044.35947   8712852.60944  22706301.6174                   22706299.8914
   3969297.79347   3740045.55944  22333786.7424   22333785.9964   17068953.25046
  13348521.65243                  23107652.1804                   23107651.5434
  -8706291.79747  -6756838.97746  20583384.0004                   20583380.3714
 -20860139.02748 -16194667.87946  20315289.1724                   20315286.5234
                                  23164184.051 6                  24584562.945
  15666686.94146  12167165.02043  24287499.7034                   24287495.8364
 -13829998.07047  -8151823.62145  22059033.4384                   22059029.6454
 -15137015.23047 -10270258.32445  21660201.7814                   21660198.2544
 11  7 23 20 44  0.0000000  0  9G17G24G26G07G08G13G19G28G11
  10859485.90247   8558911.06345  22668707.0554                   22668706.0354
   3812053.32847   3617517.46544  22303864.0234   22303864.0864   16911424.19946
  13225771.77743                  23077675.8914                   23077674.5664
  -8791480.16847  -6823219.54746  20567172.9304                   20567169.6174
 -21007024.28147 -16309123.91846  20287337.7974                   20287335.3834
                                  23160130.520 5                  24583791.813
  15656200.75846  12158993.88343  24285503.4384                   24285501.4224
 -13970982.97347  -8261681.96545  22032204.7424                   22032201.4574
 -15247729.24647 -10356528.97745  21639133.7194                   21639130.8984
 11  7 23 20 44 30.0000000  0  9G17G24G26G07G08G13G19G28G11
  10662168.50047   8405157.35945  22631158.3984                   22631157.3244
   3655194.53947   3495289.87544  22274014.7894   22274014.1724   16754422.20747
  13103432.60244                  23047799.6334                   23047798.3914
  -8876244.04747  -6889269.34446  20551042.7584                   20551039.8674
 -21153531.11747 -16423285.08246  20259458.3444                   20259455.9304
                                  23155956.117 6                  24582997.602
  15645732.59846  12150836.84443  24283512.6954                   24283509.5984
 -14111967.35247  -8371539.91445  22005375.9774                   22005372.2814
 -15357918.72347 -10442390.90245  21618165.7584                   21618162.7114
 11  7 23 20 45  0.0000000  0  9G17G24G26G07G08G13G19G28G11
  10465096.66047   8251594.98844  22593656.5314                   22593656.1804
   3498726.91047   3373367.10544  22244240.6254   22244239.4774   16597951.70347
  12981507.54744                  23018023.6484                   23018023.8554
  -8960579.64547  -6954985.40246  20534994.3444                   20534991.6684
 -21299654.69547 -16537147.59846  20231652.2734                   20231649.5744
  23151661.16046  18075703.76652  24582180.4614                   24582187.8094
  15635283.37146  12142694.51643  24281523.4774                   24281520.6454
 -14252948.59047  -8481395.40245  21978548.0474                   21978544.9734
 -15467580.12947 -10527841.32045  21597297.6644                   21597294.4694
 11  7 23 20 45 30.0000000  0  9G17G24G26G07G08G13G19G28G11
  10268272.39547   8098225.54345  22556201.8984                   22556201.5084
   3342653.68847   3251751.66844  22214540.3834   22214539.3164   16442014.85546
  12859998.32043                  22988349.9064                   22988349.6524
  -9044486.06647  -7020367.04346  20519027.3594                   20519024.7034
 -21445391.78947 -16650708.95746  20203919.4144                   20203916.3634
  23147244.03146  18072261.45742  24581340.8984                   24581347.9574
  15624851.16846  12134565.39543  24279539.0234                   24279535.8324
 -14393926.05547  -8591247.95345  21951720.8444                   21951717.5434
 -15576712.21947 -10612879.30945  21576530.5864                   21576527.2234
 11  7 23 20 46  0.0000000  0  9G17G24G26G07G08G13G19G28G11
  10071696.81347   7945049.86745  22518795.5004                   22518794.3984
   3186976.85247   3130445.09844  22184915.9844   22184915.0944   16286612.62947
  12738905.70743                  22958778.6884                   22958776.7774
  -9127963.62147  -7085414.51646  20503142.1254                   20503139.0354
 -21590740.12947 -16763967.39146  20176260.4614                   20176257.7814
  23142701.60946  18068721.46142  24580477.9304                   24580483.3954
  15614433.72346  12126447.86343  24277556.0164                   24277553.7584
 -14534900.56247  -8701098.22745  21924894.3914                   21924891.2344
 -15685315.47347 -10697505.21945  21555863.6644                   21555860.8914
 11  7 23 20 46 30.0000000  0  9G17G24G26G07G08G13G19G28G11
   9875371.86747   7792069.49645  22481435.7814                   22481434.2544
   3031699.48047   3009449.79344  22155367.6644   22155366.7814   16131746.68046
  12618230.95743                  22929308.2194                   22929307.0124
  -9211011.13347  -7150126.86346  20487338.8524                   20487335.6764
 -21735697.09447 -16876920.85946  20148675.7114                   20148673.3164
  23138031.79746  18065082.18842  24579587.9304                   24579594.7624
  15604029.31346  12118340.43443  24275576.7734                   24275573.6334
 -14675871.49647  -8810945.68445  21898068.4924                   21898065.7544
 -15793389.18747 -10781718.48044  21535298.2114                   21535295.4804
 11  7 23 20 47  0.0000000  0  9G17G24G26G07G08G13G19G28G11
   9679302.06647   7639287.94544  22444124.3054                   22444123.3524
   2876827.21147   2888770.15644  22125895.4384   22125895.3594   15977421.46546
  12497977.56643                  22899940.8754                   22899940.0434
  -9293625.25447  -7214501.52346  20471617.6564                   20471615.0594
 -21880257.60247 -16989565.40646  20121166.8524                   20121164.2974
  23133235.14146  18061344.15642  24578676.2974                   24578682.5554
  15593638.66446  12110243.77043  24273598.8594                   24273596.8714
 -14816836.39847  -8920788.44145  21871243.9774                   21871240.6094
 -15900929.48047 -10865516.09045  21514833.8594                   21514831.3014
 11  7 23 20 47 30.0000000  0  9G17G24G26G07G08G13G19G28G11
   9483489.07447   7486706.48044  22406862.9064                   22406861.1724
   2722362.38747   2768407.97744  22096502.6564   22096502.0274   15823637.87946
  12378146.24643                  22870676.7424                   22870675.5314
  -9375805.76247  -7278538.30146  20455979.3284                   20455976.4104
 -22024418.85248 -17101898.84046  20093734.1414                   20093731.6054
  23128309.27346  18057505.38343  24577739.4694                   24577744.6564
  15583259.85946  12102156.30543  24271624.2734                   24271621.4694
 -14957795.49647  -9030626.68745  21844419.6804                   21844417.1804
 -16007936.14147 -10948897.89845  21494470.8914                   21494468.2814
 11  7 23 20 48  0.0000000  0  9G17G24G26G07G08G13G19G28G11
   9287937.82047   7334328.97745  22369650.1094                   22369648.7464
   2568311.12947   2648368.08644  22067187.9614   22067186.7854   15670401.12546
  12258741.01243                  22841516.7194                   22841515.4694
  -9457548.58247  -7342234.03146  20440424.1644                   20440421.6844
 -22168175.12147 -17213916.70746  20066378.0704                   20066376.0704
  23123255.50846  18053566.96142  24576777.6334                   24576783.1684
  15572894.57046  12094079.43443  24269652.4774                   24269648.5004
 -15098745.19547  -9140457.59845  21817598.3204                   21817594.3404
 -16114405.17247 -11031860.75845  21474210.7584                   21474207.8554
 11  7 23 20 48 30.0000000  0  8G17G24G26G07G08G19G28G11
   9092650.56647   7182157.20744  22332488.1174                   22332487.5824
   2414676.86747   2528653.12944  22037951.8834   22037950.4774   15517713.46146
  12139763.60943                  22812460.8204                   22812460.3874
  -9538852.67247  -7405587.88746  20424952.6484                   20424949.3244
 -22311523.10247 -17325616.43446  20039099.9304                   20039097.5274
  15562541.28546  12086011.90643  24267681.7814                   24267678.5234
 -15239684.64847  -9250280.54345  21790778.4454                   21790775.0744
 -16220334.96147 -11114403.43745  21454052.9064                   21454050.0164
 11  7 23 20 49  0.0000000  0  8G17G24G26G07G08G19G28G11
   8897626.87947   7030190.78145  22295376.9614                   22295374.9184
   2261459.76247   2409263.22344  22008795.5784   22008794.8164   15365573.89846
  12021213.34843                  22783509.1564                   22783508.8834
  -9619719.66047  -7468601.13346  20409564.4694                   20409561.0594
 -22454462.23847 -17436997.58646  20011899.7424                   20011897.3054
  15552195.67246  12077950.32843  24265712.9064                   24265710.6024
 -15380616.36347  -9360097.43045  21763960.0084                   21763957.1524
 -16325727.86747 -11196527.77345  21433997.7114                   21433994.7734
 11  7 23 20 49 30.0000000  0  8G17G24G26G07G08G19G28G11
   8702872.62947   6878434.32845  22258315.6564                   22258315.3284
   2108666.87147   2290203.88344  21979720.1804   21979719.0274   15213988.25446
  11903094.67643                  22754664.4454                   22754662.9844
  -9700144.59047  -7531269.93046  20394260.1884                   20394256.7704
 -22596985.66847 -17548054.80546  19984777.8444                   19984775.9844
  15541860.63346  12069896.95743  24263746.1024                   24263743.9614
 -15521535.66847  -9469904.65245  21737143.2114                   21737140.3404
 -16430579.04747 -11278229.98044  21414044.4384                   21414041.5314
 11  7 23 20 50  0.0000000  0  8G17G24G26G07G08G19G28G11
  10083823.79747   7954500.27045  22521101.9844                   22521101.0514
   3531733.53147   3399087.03544  22250520.7734   22250520.4224   16638390.22746
  13013018.30543                  23025718.9454                   23025717.6994
  -8204696.77347  -6365985.92646  20678834.0554                   20678831.2814
 -21163658.80947 -16431176.73446  20257530.8524                   20257528.3674
  17106962.30946  13289456.65642  24561576.1564                   24561572.4414
 -14087010.00847  -8352092.43045  22010124.9774                   22010121.9304
 -14959456.71947 -10131900.87944  21693989.8524                   21693986.5634
 11  7 23 20 50 30.0000000  0  8G17G24G26G07G08G19G28G11
   9889634.39847   7803183.95745  22484148.7974                   22484147.8014
   3379817.85947   3280711.21544  22221611.8984   22221611.2194   16487937.17646
  12895782.19543                  22997087.6804                   22997087.3094
  -8284215.46947  -6427948.56646  20663702.2194                   20663699.4924
 -21305322.67647 -16541564.15646  20230573.6174                   20230570.9494
  17096663.35246  13281431.45343  24559615.2344                   24559612.4454
 -14227883.60547  -8461864.04345  21983317.6724                   21983314.7074
 -15063201.80547 -10212741.18445  21674248.8134                   21674244.8364
 11  7 23 20 51  0.0000000  0  8G17G24G26G07G08G19G28G11
   9695732.09847   7652091.35545  22447251.0004                   22447249.2194
   3228347.00847   3162682.04344  22192788.1334   22192786.8874   16338054.84446
  12778990.79343                  22968566.1254                   22968565.8554
  -8363278.14147  -6489555.85946  20648656.9304                   20648654.3484
 -21446550.78947 -16651612.03546  20203698.9534                   20203696.2934
  17086382.29346  13273420.12143  24557659.7274                   24557656.2114
 -14368731.89147  -8571615.93045  21956514.8364                   21956512.0434
 -15166390.78147 -10293148.18045  21654612.2274                   21654609.0514
 11  7 23 20 51 30.0000000  0  8G17G24G26G07G08G19G28G11
   9502118.18847   7501223.44945  22410407.2734                   22410405.7664
   3077323.31647   3045001.25844  22164049.6564   22164048.0634   16188744.23946
  12662644.85743                  22940154.2584                   22940153.9104
  -8441884.60547  -6550807.66846  20633698.8204                   20633696.0554
 -21587340.76647 -16761318.50046  20176907.0394                   20176904.6134
  17076116.60246  13265420.84443  24555705.0004                   24555702.8674
 -14509555.22747  -8681348.37145  21929717.7194                   21929714.4654
 -15269024.05947 -10373122.14545  21635080.7664                   21635078.4884
 11  7 23 20 52  0.0000000  0  8G17G24G26G07G08G19G28G11
   9308796.06647   7350582.90245  22373619.0474                   22373618.2154
   2926750.71947   2927672.00044  22135396.6644   22135395.7034   16040008.12146
  12546746.57443                  22911851.1724                   22911849.8484
  -8520032.90247  -6611702.46146  20618827.9534                   20618824.3364
 -21727688.80547 -16870680.61346  20150199.5784                   20150197.7154
  17065866.39846  13257433.62143  24553755.6254                   24553751.9964
 -14650351.76247  -8791059.92645  21902924.3594                   21902921.5354
 -15371099.23847 -10452661.25044  21615656.5084                   21615654.6094
 11  7 23 20 52 30.0000000  0  8G17G24G26G07G08G19G28G11
   9115763.82047   7200168.23845  22336885.8834                   22336884.4064
   2776628.40247   2810693.63344  22106828.9614   22106828.6024   15891844.48046
  12431294.42643                  22883656.0474                   22883654.4104
  -8597725.92247  -6672242.49246  20604043.1094                   20604040.2464
 -21867595.46147 -16979698.78146  20123576.4304                   20123574.2074
  17055626.27746  13249454.23443  24551806.7274                   24551803.7304
 -14791124.97347  -8900753.31245  21876136.2344                   21876132.8674
 -15472619.58647 -10531768.01645  21596338.1334                   21596334.9734
 11  7 23 20 53  0.0000000  0  8G17G24G26G07G08G19G28G11
   8923024.68447   7049981.95345  22300208.8134                   22300207.3914
   2626960.97747   2694069.70744  22078347.5944   22078347.1454   15744256.47746
  12316290.78543                  22855571.4304                   22855569.5274
  -8674961.04347  -6732425.72346  20589345.8054                   20589343.1884
 -22007056.37547 -17088369.62146  20097038.2734                   20097035.5594
  17045395.96546  13241482.46143  24549860.7424                   24549857.8874
 -14931872.39847  -9010426.61345  21849353.4614                   21849349.8284
 -15573582.86747 -10610440.69145  21577125.7194                   21577122.4064
 11  7 23 20 53 30.0000000  0  8G17G24G26G07G08G19G28G11
   8730576.34847   6900022.27345  22263587.4924                   22263585.9454
   2477746.57047   2577798.79744  22049952.8444   22049952.7424   15597240.93046
  12201733.21943                  22827594.8754                   22827593.2974
  -8751742.85547  -6792255.71546  20574734.7664                   20574732.0864
 -22146073.55148 -17196694.68746  20070583.9064                   20070581.6954
  17035169.92246  13233514.05144  24547914.3674                   24547912.0234
 -15072598.43747  -9120083.25445  21822573.5944                   21822570.5474
 -15673992.84047 -10688682.20745  21558018.2584                   21558015.7074
 11  7 23 20 54  0.0000000  0  8G17G24G26G07G08G19G28G11
   8538419.32047   6750289.60245  22227020.9614                   22227019.3674
   2328986.62547   2461881.98444  22021645.4064   22021644.2624   15450797.99246
  12087621.87144                  22799727.6414                   22799726.7544
  -8828071.88347  -6851732.90646  20560209.9384                   20560206.9144
 -22284645.31247 -17304672.67246  20044214.6484                   20044212.3094
  17024945.44146  13225546.88743  24545968.7894                   24545966.3634
 -15213303.86347  -9229723.83245  21795798.7584                   21795795.5204
 -15773850.50047 -10766493.36745  21539016.1024                   21539013.2624
 11  7 23 20 54 30.0000000  0  8G17G24G26G07G08G19G28G11
   8346554.62947   6600784.71945  22190510.0394                   22190508.9414
   2180683.36747   2346321.05944  21993424.7034   21993423.7504   15304928.48046
  11973957.34843                  22771969.5084                   22771968.5984
  -8903948.16447  -6910857.29746  20545770.6954                   20545767.7624
 -22422769.73048 -17412302.09446  20017930.4454                   20017928.1724
  17014720.32846  13217579.17643  24544022.1724                   24544019.6454
 -15353989.25447  -9339348.79345  21769026.8284                   21769023.5514
 -15873156.18047 -10843874.40245  21520118.7814                   21520115.5594
 11  7 23 20 55  0.0000000  0  8G17G24G26G07G08G19G28G11
   8154981.74647   6451507.25045  22154055.1174                   22154054.0314
   2032836.82447   2231116.02044  21965289.5004   21965288.7704   15159631.26246
  11860738.77744                  22744320.5864                   22744319.4774
  -8979373.62147  -6969630.39846  20531418.0394                   20531415.3594
 -22560446.66847 -17519582.81246  19991731.3444                   19991728.4694
  17004490.25046  13209607.66843  24542076.8284                   24542073.4024
 -15494656.57847  -9448959.68445  21742259.0554                   21742255.2774
 -15971911.74647 -10920826.78945  21501326.7274                   21501322.8674
 11  7 23 20 55 30.0000000  0  8G17G24G26G07G08G19G28G11
   7963701.64147   6302457.88345  22117655.1884                   22117654.2074
   1885449.22347   2116268.55144  21937242.8134   21937242.4264   15014907.02046
  11747966.67643                  22716780.8204                   22716779.0824
  -9054348.06647  -7028052.06246  20517151.1724                   20517148.3834
 -22697673.64848 -17626512.93046  19965618.3754                   19965615.4184
  16994253.32446  13201630.78543  24540128.1564                   24540125.9614
 -15635305.79747  -9558556.45745  21715493.5474                   21715490.5394
 -16070117.35547 -10997350.62544  21482638.3754                   21482635.1764
 11  7 23 20 56  0.0000000  0  8G17G24G26G07G08G19G28G11
   7772715.40647   6153637.53145  22081311.9224                   22081310.7034
   1738522.15247   2001779.98444  21909283.3444   21909282.2034   14870756.35946
  11635641.50443                  22689349.4064                   22689347.1804
  -9128871.98047  -7086122.66446  20502969.8054                   20502967.1884
 -22834449.27747 -17733091.33246  19939590.3444                   19939587.7584
  16984007.44946  13193646.92243  24538178.2194                   24538176.2074
 -15775937.35547  -9668139.47345  21688732.7194                   21688729.6524
 -16167773.51647 -11073446.33245  21464054.4774                   21464052.2814
 11  7 23 20 56 30.0000000  0  8G17G24G26G07G08G19G28G11
   9157450.33647   7232651.82845  22344818.3134                   22344816.5164
   3167482.43447   3115255.60544  22181205.0084   22181204.8164   16302604.59047
  12751367.42643                  22961821.2114                   22961820.0474
  -7627522.96547  -5916240.32846  20788666.8364                   20788663.8014
 -21395347.24647 -16611713.12546  20213442.4224                   20213439.9104
  18549170.89545  14413254.72742  24836019.5004                   24836016.4774
 -14341127.00447  -8550105.43045  21961768.2344                   21961764.3554
 -14689456.97747  -9921511.34845  21745368.9454                   21745366.3794
 11  7 23 20 57  0.0000000  0  8G17G24G26G07G08G19G28G11
   8967054.11347   7084291.19545  22308586.9144                   22308585.5004
   3021481.48847   3001488.68044  22153422.3834   22153421.3554   16159602.03546
  12639936.89843                  22934608.2814                   22934607.9844
  -7701146.85947  -5973609.60546  20774656.7344                   20774653.5744
 -21531215.09447 -16717584.18046  20187587.3284
  20187585.3054   18538899.74645  14405251.12942  24834065.0474   24834062.5044
 -14481724.89547  -8659662.21945  21935013.2734                   21935009.8364
 -14786015.52347  -9996751.78945  21726994.8914                   21726991.5234
 11  7 23 20 57 30.0000000  0  8G17G24G26G07G08G19G28G11
   8776952.46147   6936160.10545  22272411.9064                   22272410.3794
   2875944.68447   2888083.41444  22125727.5314   22125726.9304   16017172.68846
  12528952.98443                  22907504.6484                   22907503.6804
  -7774323.53147  -6030630.41046  20760731.1884                   20760728.6604
 -21666627.64548 -16823100.45746  20161819.2344                   20161817.0084
  18528610.69546                  14397233.62942  24832106.9224   24832104.4614
 -14622308.16047  -8769207.58645  21908261.4304                   21908258.0124
 -14882027.84047 -10071566.59845  21708724.4224                   21708721.3714
 11  7 23 20 58  0.0000000  0  8G17G24G26G07G08G19G28G11
   8587146.97347   6788259.79345  22236293.0864                   22236291.6954
   2730874.28547   2775041.57044  22098121.7194   22098121.0394   15875317.22747
  12418416.27044                  22880511.3284                   22880509.7304
  -7847052.13347  -6087302.08246  20746892.1174                   20746889.1414
 -21801582.94948 -16928260.43446  20136138.0944                   20136136.1214
  18518302.25445                  14389201.05142  24830145.7424   24830142.5234
 -14762876.42647  -8878741.29745  21881511.8834                   21881508.7154
 -14977493.77047 -10145955.62144  21690557.1644                   21690554.0434
 11  7 23 20 58 30.0000000  0  8G17G24G26G07G08G19G28G11
   8397640.27347   6640592.30145  22200231.1954                   22200229.4414
   2586273.66447   2662365.81344  22070605.0554   22070604.2504   15734037.80546
  12308328.43443                  22853626.9454                   22853625.0634
  -7919331.51647  -6143623.69146  20733137.5314                   20733134.5514
 -21936077.48048 -17033061.37546  20110544.6254                   20110542.3754
  18507973.77345                  14381152.68042  24828180.3364   24828178.4024
 -14903428.59447  -8988262.44545  21854765.2344                   21854762.1954
 -15072412.08247 -10219917.94945  21672495.0704                   21672492.2704
 11  7 23 20 59  0.0000000  0  8G17G24G26G07G08G19G28G11
   8208436.88747   6493161.15245  22164226.8444                   22164224.9184
   2442148.33647   2550060.40244  22043178.6644   22043178.4024   15593338.22346
  12198692.37943                  22826852.3524                   22826851.2464
  -7991158.73847  -6199592.96946  20719469.5634                   20719467.1334
 -22070105.93047 -17137499.12546  20085040.1564                   20085037.4264
  18497626.63345                  14373089.91042  24826211.0784   24826209.6054
 -15043961.38347  -9097768.50445  21828023.4534                   21828019.6724
 -15166779.85547 -10293451.28145  21654537.5164                   21654534.9494
 11  7 23 20 59 30.0000000  0  7G17G24G26G07G08G28G11
   8019539.31647   6345968.30145  22128281.2584                   22128279.3634
   2298501.58247   2438127.90244  22015843.5394   22015843.1134   15453220.76246
  12089509.95744                  22800188.3444                   22800187.2734
  -8062532.21947  -6255208.67646  20705887.4844                   20705884.6684
 -22203665.10548 -17241571.21146  20059624.4144                   20059622.0704
 -15184473.30947  -9207258.30945  21801284.7814                   21801281.2234
 -15260596.12547 -10366554.87545  21636685.2034                   21636682.0664
 11  7 23 21  0  0.0000000  0  7G17G24G26G07G08G28G11
   7830949.74647   6199015.44145  22092392.9614                   22092391.3874
   2155336.33247   2326570.60544  21988600.1884   21988599.0124   15313687.08646
  11980782.41044                  22773635.7344                   22773635.7194
  -8133451.29747  -6310470.31246  20692392.2664                   20692389.0394
 -22336751.31648 -17345274.76646  20034299.3444                   20034296.7234
 -15324963.28547  -9316730.98845  21774549.9144                   21774546.7344
 -15353859.78547 -10439227.87545  21618937.2894                   21618934.6684
 11  7 23 21  0 30.0000000  0  7G17G24G26G07G08G28G11
   7642673.35947   6052306.64845  22056565.3754                   22056564.2304
   2012658.69147   2215393.23844  21961449.4924   21961449.3094   15174741.28947
  11872512.98444                  22747196.2034                   22747194.8164
  -8203911.80547  -6365374.64146  20678984.1724                   20678980.6484
 -22469359.13748 -17448605.54346  20009064.4144                   20009062.2154
 -15465427.64547  -9426183.73045  21747820.6484                   21747816.7814
 -15446567.61347 -10511467.73845  21601295.8834                   21601293.0434
 11  7 23 21  1  0.0000000  0  7G17G24G26G07G08G28G11
   7454725.00447   5905853.45345  22020800.3674                   22020798.4454
   1870484.11747   2104607.85544  21934394.8524   21934393.9024   15036397.82846
  11764712.89843                  22720869.6414                   22720868.5824
  -8273900.72747  -6419911.47346  20665665.3134                   20665662.0164
 -22601472.48848 -17551551.01246  19983924.1954                   19983921.8204
 -15605852.46947  -9535605.66845  21721098.7734                   21721095.0664
 -15538706.19547 -10583264.05145  21583762.5314                   21583759.2194
 11  7 23 21  1 30.0000000  0  7G17G24G26G07G08G28G11
   7267112.10247   5759661.64145  21985097.8524                   21985097.2704
   1728821.23847   1994221.23845  21907437.2194   21907436.0234   14898663.84047
  11657387.73843                  22694660.1564                   22694658.4574
  -8343411.76647  -6474075.94146  20652437.3914                   20652435.2814
 -22733083.16447 -17654104.79746  19958879.6954                   19958877.3164
 -15746231.27047  -9644991.72745  21694385.5084                   21694382.5234
 -15630269.37547 -10654611.98845  21566338.4614                   21566335.7154
 11  7 23 21  2  0.0000000  0  7G17G24G26G07G08G28G11
   7079836.74647   5613732.85545  21949461.0164                   21949459.8404
   1587672.59047   1884235.32444  21880576.8914   21880576.1644   14761540.52047
  11550538.42644                  22668566.2664                   22668564.8834
  -8412444.03947  -6527867.34445  20639301.5314                   20639298.4104
 -22864188.37548 -17756264.70346  19933931.2584                   19933928.9574
 -15886563.12547  -9754341.20745  21667680.7974                   21667677.9344
 -15721256.55547 -10725511.07845  21549024.6884                   21549020.8284
 11  7 23 21  2 30.0000000  0  7G17G24G26G07G08G28G11
   6892901.48047   5468069.07445  21913888.4534                   21913887.0204
   1447041.50047   1774652.69544  21853816.1094   21853815.4574   14625029.86746
  11444166.52044                  22642589.2504                   22642587.7114
  -8480996.35247  -6581284.75446  20626256.2424                   20626253.8754
 -22994784.44947 -17858027.87946  19909080.0164                   19909077.1484
 -16026846.80547  -9863653.15645  21640986.3914                   21640982.7234
 -15811666.78547 -10795960.60545  21531820.1174                   21531817.6484
 11  7 23 21  3  0.0000000  0  7G17G24G26G07G08G28G11
   6706312.04347   5322674.75845  21878381.7344                   21878379.9614
   1306934.41847   1665478.35245  21827154.7034   21827153.7194   14489136.81346
  11338275.80143                  22616729.6174                   22616728.3054
  -8549064.31247  -6634324.75045  20613303.2584                   20613300.7194
 -23124865.10548 -17959389.43046  19884326.1334                   19884323.7424
 -16167077.72347  -9972923.98045  21614301.1644                   21614297.2664
 -15901495.79347 -10865957.25444  21514725.2114                   21514724.0664
 11  7 23 21  3 30.0000000  0  7G17G24G26G07G08G28G11
   8095494.50847   6405154.66445  22142734.5944                   22142732.7384
   2742776.55947   2784316.40245  22100386.9384   22100385.2154   15929284.90646
  12460469.15243                  22890780.2344                   22890779.4884
  -7041227.30147  -5459386.85246  20900235.4454                   20900232.1024
 -21679005.31247 -16832745.43046  20159464.2734                   20159461.6174
 -14731831.94547  -8854550.64545  21887419.5474                   21887415.6644
 -14415322.62547  -9707900.24245  21797535.2114                   21797532.0124
 11  7 23 21  4  0.0000000  0  7G17G24G26G07G08G28G11
   7909594.05947   6260297.22745  22107358.6414                   22107356.5984
   2603717.10947   2675958.44545  22073924.5004   22073923.2504   15794622.09846
  12355537.07843                  22865154.3524                   22865153.5314
  -7108333.83647  -5511677.68746  20887465.4774                   20887462.5474
 -21808055.23047 -16933303.80946  20134906.7424                   20134904.2894
 -14871962.60247  -8963743.34445  21860753.0164                   21860749.5354
 -14503997.02047  -9776997.17245  21780661.0944                   21780658.3484
 11  7 23 21  4 30.0000000  0  7G17G24G26G07G08G28G11
   7724042.30547   6115711.48845  22072048.8134                   22072047.2304
   2465186.96547   2568012.90645  22047562.8054   22047562.1524   15660577.78946
  12251086.96944                  22839647.0234                   22839645.8164
  -7174957.09047  -5563591.94146  20874787.2974                   20874784.2624
 -21936583.78948 -17033455.92646  20110448.2194                   20110446.3834
 -15012040.60947  -9072895.02345  21834097.3204                   21834093.8634
 -14592092.08647  -9845642.68045  21763897.3754                   21763894.4264
 11  7 23 21  5  0.0000000  0  7G17G24G26G07G08G28G11
   7538837.80147   5971396.36745  22036806.0004                   22036804.5314
   2327185.33647   2460479.19544  22021302.3204   22021301.1414   15527149.75846
  12147117.07843                  22814256.5164                   22814255.4224
  -7241100.01647  -5615131.91446  20862200.9694                   20862198.1764
 -22064591.80147 -17133202.43446  20086089.7584                   20086087.0634
 -15152067.98447  -9182007.26645  21807451.0474                   21807447.4064
 -14679610.93747  -9913839.21145  21747243.5084                   21747240.0744
 11  7 23 21  5 30.0000000  0  7G17G24G26G07G08G28G11
   7353984.58647   5827354.95345  22001629.2274                   22001627.3634
   2189717.01647   2353361.04345  21995142.5164   21995141.1484   15394341.15246
  12043629.87944                  22788984.0634                   22788982.5944
  -7306760.23047  -5666295.74646  20849705.9384                   20849703.5394
 -22192074.69547 -17232539.75446  20061830.0944                   20061827.5044
 -15292042.09447  -9291078.00045  21780814.7974                   21780811.2464
 -14766551.21947  -9981584.89545  21730699.1334                   21730695.9614
 11  7 23 21  6  0.0000000  0  7G17G24G26G07G08G28G11
   7169484.59047   5683588.77045  21966520.3054                   21966518.4734
   2052784.44547   2246660.36745  21969085.5314   21969084.1604   15262153.34846
  11940626.37943                  22763828.9454                   22763828.9574
  -7371936.99647  -5717082.85546  20837303.1884                   20837300.7584
 -22319029.71547 -17331465.74646  20037671.6414                   20037669.1454
 -15431961.65247  -9400106.20345  21754188.9844                   21754185.3524
 -14852912.44947 -10048879.36344  21714264.8284                   21714261.3954
 11  7 23 21  6 30.0000000  0  7G17G24G26G07G08G28G11
   6985333.34047   5540094.34845  21931477.3134                   21931475.5824
   1916383.85247   2140374.18444  21943129.2974   21943127.6094   15130580.85246
  11838102.36344                  22738791.9774                   22738790.9774
  -7436636.17647  -5767497.83646  20824991.4694                   20824988.7424
 -22445460.77047 -17429983.44946  20013612.6804                   20013610.1134
 -15571832.08647  -9509096.15245  21727572.5394                   21727569.1644
 -14938700.81247 -10115727.44145  21697939.8834                   21697937.0944
 11  7 23 21  7  0.0000000  0  7G17G24G26G07G08G28G11
   6801532.94547   5396873.31645  21896501.6094                   21896499.8014
   1780518.04747   2034504.73844  21917274.5784   21917273.9344   14999625.20747
  11736059.01243                  22713872.1484                   22713871.3834
  -7500857.12147  -5817540.14846  20812770.6174                   20812767.7344
 -22571364.73048 -17528090.43446  19989653.4304                   19989651.3054
 -15711652.27347  -9618046.91445  21700965.3284                   21700961.8364
 -15023915.92647 -10182128.83244  21681724.2814                   21681720.4104
 11  7 23 21  7 30.0000000  0  7G17G24G26G07G08G28G11
   6618081.72347   5253924.37545  21861591.5234                   21861590.4574
   1645186.07047   1929051.25844  21891521.5164   21891520.2424   14869283.76646
  11634494.27044                  22689069.1804                   22689066.9264
  -7564602.71547  -5867212.06646  20800640.7344                   20800638.2464
 -22696742.11748 -17625787.10246  19965795.0554                   19965793.1414
 -15851424.60247  -9726960.40645  21674367.6484                   21674363.8364
 -15108560.89847 -10248085.94945  21665616.7894                   21665613.4224
 11  7 23 21  8  0.0000000  0  7G17G24G26G07G08G28G11
   6434981.87147   5111249.23045  21826748.7894                   21826747.3524
   1510390.70747   1824015.93444  21865871.3444   21865870.1724   14739558.15646
  11533409.43043                  22664382.4534                   22664380.6804
  -7627872.19547  -5916512.99246  20788600.5784                   20788598.0044
 -22821590.34447 -17723071.44146  19942037.2194                   19942035.2974
 -15991147.69947  -9835835.53545  21647779.5314                   21647775.8164
 -15192635.41847 -10313598.57045  21649617.7734                   21649614.7234
 11  7 23 21  8 30.0000000  0  7G17G24G26G07G08G28G11
   6252228.16447   4968843.82845  21791972.2664                   21791970.2894
   1376127.52347   1719395.27344  21840321.8914   21840320.5314   14610442.01646
  11432799.45344                  22639812.5554                   22639812.0394
  -7690672.46947  -5965448.29346  20776649.9384                   20776647.8204
 -22945913.98047 -17819947.00446  19918379.3754                   19918376.7894
 -16130827.66047  -9944677.04345  21621199.1804                   21621195.8324
 -15276146.21147 -10378671.92245  21633726.3134                   21633723.6644
 11  7 23 21  9  0.0000000  0  7G17G24G26G07G08G28G11
   6069821.70747   4826708.99245  21757260.9064                   21757259.1484
   1242398.25847   1615190.66444  21814873.2974   21814872.3914   14481935.70747
  11332664.68844                  22615359.1564                   22615357.0904
  -7753003.83247  -6014018.21946  20764789.2114                   20764786.5124
 -23069710.72747 -17916412.00446  19894821.2194                   19894819.3834
 -16270464.27747 -10053484.78145  21594627.2734                   21594623.5864
 -15359094.13347 -10443306.68045  21617941.8984                   21617938.7894
 11  7 23 21  9 30.0000000  0  7G17G24G26G07G08G28G11
   5887762.39547   4684844.66445  21722616.1334                   21722614.3754
   1109203.44147   1511402.48844  21789527.8364   21789526.8444   14354038.21547
  11233004.31644                  22591020.9064                   22591019.7894
  -7814867.42247  -6062223.63746  20753016.9534                   20753014.1484
 -23192979.73447 -18012465.78946  19871364.1724                   19871361.8404
 -16410058.25847 -10162259.28145  21568063.5084                   21568059.4884
 -15441480.41447 -10507503.80945  21602264.5784                   21602261.3094
 11  7 23 21 10  0.0000000  0  7G17G24G26G07G08G28G11
   7281475.64547   5770855.04345  21987831.2114                   21987829.4024
   2551967.27347   2635634.03144  22064076.3834   22064075.3874   15802171.98447
  12361420.23844                  22866592.1414                   22866590.5084
  -6300843.66447  -4882464.90245  21041125.7034                   21041123.2624
 -21740297.32447 -16880505.47346  20147800.3674                   20147797.8674
 -14974186.67647  -9043398.29345  21841300.8284                   21841297.6254
 -13947885.22347  -9343663.41445  21886486.2894                   21886482.7934
 11  7 23 21 10 30.0000000  0  7G17G24G26G07G08G28G11
   7100110.39847   5629531.53945  21953318.2504                   21953316.6724
   2419842.51647   2532679.69545  22038934.4304   22038933.2974   15675488.90647
  12262706.13743                  22842484.2344                   22842483.3484
  -6361777.17647  -4929945.58245  21029530.7664                   21029527.4264
 -21862510.05548 -16975736.16846  20124544.2344                   20124541.8874
 -15113698.34847  -9152108.67645  21814752.1644                   21814749.0944
 -14029154.60247  -9406990.20745  21871021.4694                   21871017.8094
 11  7 23 21 11  0.0000000  0  7G17G24G26G07G08G28G11
   6919088.91047   5488475.89545  21918870.7194                   21918869.0944
   2288250.53147   2430140.52344  22013892.7194   22013891.5474   15549408.98846
  12164462.06643                  22818492.0704                   22818490.7774
  -6422250.81647  -4977067.93446  21018023.1024                   21018020.1024
 -21984196.23448 -17070556.56646  20101388.2344                   20101386.0434
 -15253173.01647  -9260790.22345  21788211.6414                   21788207.6804
 -14109871.33647  -9469886.37144  21855660.7974                   21855658.3714
 11  7 23 21 11 30.0000000  0  7G17G24G26G07G08G28G11
   6738414.43447   5347690.66845  21884490.0474                   21884487.6134
   2157195.27047   2328019.56644  21988953.8594   21988952.7234   15423933.94147
  12066689.32844                  22794615.9224                   22794613.6644
  -6482262.82447  -5023830.57046  21006602.0554                   21006600.6254
 -22105352.37148 -17164963.94146  20078333.0634                   20078330.5354
 -15392608.27347  -9369441.05945  21761677.4304                   21761674.2774
 -14190034.00847  -9532350.81245  21840406.2734                   21840403.9454
 11  7 23 21 12  0.0000000  0  7G17G24G26G07G08G28G11
   6558087.41047   5207176.14545  21850174.4614                   21850172.3834
   2026677.64147   2226317.51244  21964116.9224   21964115.4804   15299063.35947
  11969387.59444                  22770852.9384                   22770852.0474
  -6541814.27347  -5070234.32446  20995270.6644                   20995268.2274
 -22225976.96147 -17258957.12946  20055378.6564                   20055376.1174
 -15532004.23847  -9478061.28945  21735151.5704                   21735148.3754
 -14269643.48447  -9594384.18044  21825257.3054                   21825253.7234
 11  7 23 21 12 30.0000000  0  7G17G24G26G07G08G28G11
   6378110.59447   5066934.52745  21815925.9384                   21815924.6374
   1896700.77047   2125036.83244  21939383.1564   21939382.4414   15174799.12946
  11872558.35244                  22747205.8754                   22747205.2544
  -6600903.89847  -5116278.22346  20984026.8524                   20984024.3364
 -22346066.36748 -17352533.29346  20032526.6724                   20032523.9144
 -15671358.72347  -9586649.19145  21708633.5864                   21708629.7114
 -14348698.91847  -9655985.83644  21810213.6804                   21810210.5944
 11  7 23 21 13  0.0000000  0  7G17G24G26G07G08G28G11
   6198478.80947   4926961.77345  21781743.3134                   21781741.4024
   1767260.18447   2024174.06344  21914751.3054   21914750.9924   15051134.88747
  11776196.57844                  22723673.5704                   22723672.3484
  -6659538.26647  -5161967.35546  20972868.6884                   20972865.6454
 -22465625.21548 -17445696.03946  20009775.5164                   20009772.8714
 -15810677.69947  -9695209.41445  21682121.6724                   21682118.5664
 -14427207.46147  -9717161.30945  21795273.9304                   21795270.4734
 11  7 23 21 13 30.0000000  0  7G17G24G26G07G08G28G11
   6019192.05147   4787257.85945  21747626.1254                   21747624.2154
   1638356.65247   1923729.76645  21890221.8914   21890221.0904   14928069.92647
  11680301.80544                  22700256.0234                   22700253.9574
  -6717718.91047  -5207302.96546  20961797.1254                   20961795.6484
 -22584652.88748 -17538444.87946  19987125.3444                   19987122.3554
 -15949961.53947  -9803742.27345  21655616.7424                   21655613.1884
 -14505170.62147  -9777911.83244  21780437.7664                   21780434.7114
 11  7 23 21 14  0.0000000  0  7G17G24G26G07G08G28G11
   5840248.72747   4647821.54745  21713574.6564                   21713572.1914
   1509988.69547   1823702.80544  21865794.3594   21865792.3524   14805601.55946
  11584871.92244                  22676950.5554                   22676949.2974
  -6775449.14547  -5252287.60545  20950811.6564                   20950808.7934
 -22703150.16848 -17630780.43046  19964575.9224                   19964573.4654
 -16089212.99247  -9912249.89145  21629118.1254                   21629114.3674
 -14582591.94947  -9838240.14845  21765704.9384                   21765702.1054
 11  7 23 21 14 30.0000000  0  7G17G24G26G07G08G28G11
   5661646.67247   4508651.16445  21679586.8134                   21679585.4574
   1382154.98847   1724092.15244  21841468.3674   21841467.0634   14683726.50446
  11489904.35543                  22653757.9144                   22653757.3324
  -6832732.25047  -5296923.82846  20939911.0554                   20939908.5394
 -22821118.49648 -17722703.81246  19942127.3674                   19942124.6024
 -16228434.48847 -10020734.14845  21602624.8364                   21602621.2504
 -14659475.52047  -9898149.43744  21751074.6954                   21751072.4964
 11  7 23 21 15  0.0000000  0  7G17G24G26G07G08G28G11
   5483388.21547   4369748.51245  21645665.1724                   21645663.9184
   1254858.50447   1624900.10944  21817244.4224   21817243.7034   14562446.27046
  11395400.30143                  22630678.7424                   22630678.4964
  -6889567.33247  -5341210.93445  20929095.5164                   20929093.7734
 -22938554.84848 -17814212.68046  19919779.7424                   19919777.3594
 -16367623.63747 -10129193.21145  21576138.2274                   21576134.6884
 -14735820.13347  -9957638.76244  21736546.7274                   21736544.4024
 11  7 23 21 15 30.0000000  0  7G17G24G26G07G08G28G11
   5305474.00847   4231114.10545  21611809.4844                   21611807.9574
   1128100.11747   1526127.35544  21793123.1334   21793122.2664   14441760.12946
  11301359.14143                  22607713.9534                   22607712.5704
  -6945955.33647  -5385149.67646  20918365.4694                   20918362.6684
 -23055458.06648 -17905306.10246  19897534.2664                   19897531.3794
 -16506780.64147 -10237627.22745  21549656.8594                   21549654.0864
 -14811627.73047 -10016709.63345  21722121.4694                   21722118.0824
 11  7 23 21 16  0.0000000  0  7G17G24G26G07G08G28G11
   5127905.10247   4092748.76645  21578019.7814                   21578017.6294
   1001881.49247   1427775.20744  21769104.4144   21769103.4264   14321668.17246
  11207780.98044                  22584859.8444                   22584859.4924
  -7001896.71547  -5428740.37945  20907720.2424                   20907717.5394
 -23171826.18748 -17995982.57446  19875389.9304                   19875387.5354
 -16645905.19547 -10346035.96545  21523183.3364                   21523179.9454
 -14886898.78147 -10075362.42644  21707797.4924                   21707794.3054
